[[{"header":{"parameterUnit":"m.s-1","parameterCategory":1,"la1":30.6,"la2":29.2853,"lo1":-89.7004,"lo2":-87.6739,"dx":0.0162,"dy":0.0183,"nx":112,"ny":82,"refTime":"2022-12-05T06:00:00:Z","depth":0,"parameterNumber":2,"parameterNumberName":"U-component_of_WINDS"},"data":[0.0,0.0,0.0,0.0,0.0,0.0,0.0,0.0,0.0,0.0,0.0,0.0,0.0,0.0,0.0,0.0,0.0,0.0,0.0,0.0,0.0,0.0,0.0,0.0,0.0,0.0,0.0,0.0,0.0,0.0,0.0,0.0,0.0,0.0,0.0,0.0,0.0,0.0,0.0,0.0,0.0,0.0,0.0,0.0,0.0,0.0,0.0,0.0,0.0,0.0,0.0,0.0,0.0,0.0,0.0,0.0,0.0,0.0,0.0,0.0,0.0,0.0,0.0,0.0,0.0,0.0,0.0,0.0,0.0,0.0,0.0,0.0,0.0,0.0,0.0,0.0,0.0,0.0,0.0,0.0,0.0,0.0,0.0,0.0,0.0,0.0,0.0,0.0,0.0,0.0,-2.7867,-2.8047,-2.8694,-2.8711,-2.7774,-2.7083,-2.5473,-2.2665,0.0,0.0,0.0,0.0,0.0,0.0,0.0,0.0,0.0,0.0,0.0,0.0,0.0,0.0,0.0,0.0,0.0,0.0,0.0,0.0,0.0,0.0,0.0,0.0,0.0,0.0,0.0,0.0,0.0,0.0,0.0,0.0,0.0,0.0,0.0,0.0,0.0,0.0,0.0,0.0,0.0,0.0,0.0,0.0,0.0,0.0,0.0,0.0,0.0,0.0,0.0,0.0,0.0,0.0,0.0,0.0,0.0,0.0,0.0,0.0,0.0,0.0,0.0,0.0,0.0,0.0,0.0,0.0,0.0,0.0,0.0,0.0,0.0,0.0,0.0,0.0,0.0,0.0,0.0,0.0,0.0,0.0,0.0,0.0,0.0,0.0,0.0,0.0,0.0,0.0,0.0,0.0,0.0,0.0,0.0,0.0,0.0,0.0,0.0,0.0,0.0,0.0,0.0,0.0,-2.3931,-2.7976,-2.8829,-2.8504,-2.7006,-2.6775,-2.571,-2.3376,0.0,0.0,0.0,0.0,0.0,0.0,0.0,0.0,0.0,0.0,0.0,0.0,0.0,0.0,0.0,0.0,0.0,0.0,0.0,0.0,0.0,0.0,0.0,0.0,0.0,0.0,0.0,0.0,0.0,0.0,0.0,0.0,0.0,0.0,0.0,0.0,0.0,0.0,0.0,0.0,0.0,0.0,0.0,0.0,0.0,0.0,0.0,0.0,0.0,0.0,0.0,0.0,0.0,0.0,0.0,0.0,0.0,0.0,0.0,0.0,0.0,0.0,0.0,0.0,0.0,0.0,0.0,0.0,0.0,0.0,0.0,0.0,0.0,0.0,0.0,0.0,0.0,0.0,0.0,0.0,0.0,0.0,0.0,0.0,0.0,0.0,0.0,0.0,0.0,0.0,0.0,0.0,0.0,0.0,0.0,0.0,0.0,0.0,0.0,0.0,0.0,0.0,0.0,-2.4693,-2.6136,-2.9673,-2.9653,-2.9147,-2.8644,-2.804,-2.6612,-2.415,-2.1164,0.0,0.0,0.0,0.0,0.0,0.0,0.0,0.0,0.0,0.0,0.0,0.0,0.0,0.0,0.0,0.0,0.0,0.0,0.0,0.0,0.0,0.0,0.0,0.0,0.0,0.0,0.0,0.0,0.0,0.0,0.0,0.0,0.0,0.0,0.0,0.0,0.0,0.0,0.0,0.0,0.0,0.0,0.0,0.0,0.0,0.0,0.0,0.0,0.0,0.0,0.0,0.0,0.0,0.0,0.0,0.0,0.0,0.0,0.0,0.0,0.0,0.0,0.0,0.0,0.0,0.0,0.0,0.0,0.0,0.0,0.0,0.0,0.0,0.0,0.0,0.0,0.0,0.0,0.0,0.0,0.0,0.0,0.0,0.0,0.0,0.0,0.0,0.0,0.0,0.0,0.0,0.0,0.0,0.0,0.0,0.0,0.0,0.0,0.0,0.0,0.0,0.0,-2.8188,-2.9296,-3.0576,-3.0016,-2.9674,-2.9897,-2.8928,-2.717,-2.4403,-2.1116,0.0,0.0,0.0,0.0,0.0,0.0,0.0,0.0,0.0,0.0,0.0,0.0,0.0,0.0,0.0,0.0,0.0,0.0,0.0,0.0,0.0,0.0,0.0,0.0,0.0,0.0,0.0,0.0,0.0,0.0,0.0,0.0,0.0,0.0,0.0,0.0,0.0,0.0,0.0,0.0,0.0,0.0,0.0,0.0,0.0,0.0,0.0,0.0,0.0,0.0,0.0,0.0,0.0,0.0,0.0,0.0,0.0,0.0,0.0,0.0,0.0,0.0,0.0,0.0,0.0,0.0,0.0,0.0,0.0,0.0,0.0,0.0,0.0,0.0,0.0,0.0,0.0,0.0,0.0,0.0,0.0,0.0,0.0,0.0,0.0,0.0,0.0,0.0,0.0,0.0,0.0,0.0,0.0,0.0,0.0,0.0,0.0,0.0,0.0,0.0,0.0,0.0,-2.7887,-3.09,-2.8847,-2.9136,-2.9386,-2.9102,-2.8318,-2.6606,-2.3646,-2.0851,0.0,0.0,0.0,0.0,0.0,0.0,0.0,0.0,0.0,0.0,0.0,0.0,0.0,0.0,0.0,0.0,0.0,0.0,0.0,0.0,0.0,0.0,0.0,0.0,0.0,0.0,0.0,0.0,0.0,0.0,0.0,0.0,0.0,0.0,0.0,0.0,0.0,0.0,0.0,0.0,0.0,0.0,0.0,0.0,0.0,0.0,0.0,0.0,0.0,0.0,0.0,0.0,0.0,0.0,0.0,0.0,0.0,0.0,0.0,0.0,0.0,0.0,0.0,0.0,0.0,0.0,0.0,0.0,0.0,0.0,0.0,0.0,0.0,0.0,0.0,0.0,0.0,0.0,0.0,0.0,0.0,0.0,0.0,0.0,0.0,0.0,0.0,0.0,0.0,0.0,0.0,0.0,0.0,0.0,0.0,0.0,0.0,0.0,0.0,0.0,0.0,0.0,-2.6876,-2.9541,-3.014,-3.0458,-3.0661,-3.0744,-3.0039,-2.8014,-2.432,0.0,0.0,0.0,0.0,0.0,0.0,0.0,0.0,0.0,0.0,0.0,0.0,0.0,0.0,0.0,0.0,0.0,0.0,0.0,0.0,0.0,0.0,0.0,0.0,0.0,0.0,0.0,0.0,0.0,0.0,0.0,0.0,0.0,0.0,0.0,0.0,0.0,0.0,0.0,0.0,0.0,0.0,0.0,0.0,0.0,0.0,0.0,0.0,0.0,0.0,0.0,0.0,0.0,0.0,0.0,0.0,0.0,0.0,0.0,0.0,0.0,0.0,0.0,0.0,0.0,0.0,0.0,0.0,0.0,0.0,0.0,0.0,0.0,0.0,0.0,0.0,0.0,0.0,0.0,0.0,0.0,0.0,0.0,0.0,0.0,0.0,0.0,0.0,0.0,0.0,0.0,0.0,0.0,0.0,0.0,0.0,0.0,0.0,0.0,0.0,0.0,0.0,-2.3852,-2.7221,-2.9833,0.0,-3.12,-3.1341,-3.1588,-3.0934,-2.8802,-2.4726,0.0,0.0,0.0,0.0,0.0,0.0,0.0,0.0,0.0,0.0,0.0,0.0,0.0,0.0,0.0,0.0,0.0,0.0,0.0,0.0,0.0,0.0,0.0,0.0,0.0,0.0,0.0,0.0,0.0,0.0,0.0,0.0,0.0,0.0,0.0,0.0,0.0,0.0,0.0,0.0,0.0,0.0,0.0,0.0,0.0,0.0,0.0,0.0,0.0,0.0,0.0,0.0,0.0,0.0,0.0,0.0,0.0,0.0,0.0,0.0,0.0,0.0,0.0,0.0,0.0,0.0,0.0,0.0,0.0,0.0,0.0,0.0,0.0,0.0,0.0,0.0,0.0,0.0,0.0,0.0,0.0,0.0,0.0,0.0,0.0,0.0,0.0,0.0,0.0,0.0,0.0,0.0,0.0,0.0,0.0,0.0,0.0,0.0,0.0,0.0,0.0,0.0,-2.4023,-2.926,-3.236,-3.0767,-3.095,-3.119,-3.119,-3.0548,-2.8518,0.0,0.0,0.0,0.0,0.0,0.0,0.0,0.0,0.0,0.0,0.0,0.0,0.0,0.0,0.0,0.0,0.0,0.0,0.0,0.0,0.0,0.0,0.0,0.0,0.0,0.0,0.0,0.0,0.0,0.0,0.0,0.0,0.0,0.0,0.0,0.0,0.0,0.0,0.0,0.0,0.0,0.0,0.0,0.0,0.0,0.0,0.0,0.0,0.0,0.0,0.0,0.0,0.0,0.0,0.0,0.0,0.0,0.0,0.0,0.0,0.0,0.0,0.0,0.0,0.0,0.0,0.0,0.0,0.0,0.0,0.0,0.0,0.0,0.0,0.0,0.0,0.0,0.0,0.0,0.0,0.0,0.0,0.0,0.0,0.0,0.0,0.0,0.0,0.0,0.0,0.0,0.0,0.0,0.0,0.0,0.0,0.0,0.0,0.0,0.0,0.0,0.0,0.0,-2.4296,-2.9124,-3.2139,-3.1132,-3.1133,-3.119,-3.119,-3.0987,-2.9059,-2.4778,0.0,0.0,0.0,0.0,0.0,0.0,0.0,0.0,0.0,0.0,0.0,0.0,0.0,0.0,0.0,0.0,0.0,0.0,0.0,0.0,0.0,0.0,0.0,0.0,0.0,0.0,0.0,0.0,0.0,0.0,0.0,0.0,0.0,0.0,0.0,0.0,0.0,0.0,0.0,0.0,0.0,0.0,0.0,0.0,0.0,0.0,0.0,0.0,0.0,0.0,0.0,0.0,0.0,0.0,0.0,0.0,0.0,0.0,0.0,0.0,0.0,0.0,0.0,0.0,0.0,0.0,0.0,0.0,0.0,0.0,0.0,0.0,0.0,0.0,0.0,0.0,0.0,0.0,0.0,0.0,0.0,0.0,0.0,0.0,0.0,0.0,0.0,0.0,0.0,0.0,0.0,0.0,0.0,0.0,0.0,0.0,0.0,0.0,0.0,0.0,0.0,0.0,-2.4846,-2.9517,-3.2462,-3.1718,-3.136,-3.119,-3.119,-3.119,-2.9668,-2.6048,0.0,0.0,0.0,0.0,0.0,0.0,0.0,0.0,0.0,0.0,0.0,0.0,0.0,0.0,0.0,0.0,0.0,0.0,0.0,0.0,0.0,0.0,0.0,0.0,0.0,0.0,0.0,0.0,0.0,0.0,0.0,0.0,0.0,0.0,0.0,0.0,0.0,0.0,0.0,0.0,0.0,0.0,0.0,0.0,0.0,0.0,0.0,0.0,0.0,0.0,0.0,0.0,0.0,0.0,0.0,0.0,0.0,0.0,0.0,0.0,0.0,0.0,0.0,0.0,0.0,0.0,0.0,0.0,0.0,0.0,0.0,0.0,0.0,0.0,0.0,0.0,0.0,0.0,0.0,0.0,0.0,0.0,0.0,0.0,0.0,0.0,0.0,0.0,0.0,0.0,0.0,0.0,0.0,0.0,0.0,0.0,0.0,0.0,0.0,0.0,0.0,0.0,-2.5438,-3.0194,-3.3186,-3.2395,-3.1752,-3.136,-3.1292,-3.1292,-3.0311,-2.7959,0.0,0.0,0.0,0.0,0.0,0.0,0.0,0.0,0.0,0.0,0.0,0.0,0.0,0.0,0.0,0.0,0.0,0.0,0.0,0.0,0.0,0.0,0.0,0.0,0.0,0.0,0.0,0.0,0.0,0.0,0.0,0.0,0.0,0.0,0.0,0.0,0.0,0.0,0.0,0.0,0.0,0.0,0.0,0.0,0.0,0.0,0.0,0.0,0.0,0.0,0.0,0.0,0.0,0.0,0.0,0.0,0.0,0.0,0.0,0.0,-2.7637,0.0,0.0,0.0,0.0,0.0,0.0,0.0,0.0,0.0,0.0,0.0,0.0,0.0,0.0,0.0,0.0,0.0,0.0,0.0,0.0,0.0,0.0,0.0,0.0,0.0,0.0,0.0,0.0,0.0,0.0,0.0,0.0,0.0,0.0,0.0,0.0,0.0,0.0,0.0,0.0,0.0,-2.4996,-3.0428,-3.3761,-3.2429,-3.2679,-3.2713,-3.2124,-3.2056,-3.0852,-2.7993,-2.5614,0.0,0.0,0.0,0.0,0.0,0.0,0.0,0.0,0.0,0.0,0.0,0.0,0.0,0.0,0.0,0.0,0.0,0.0,0.0,0.0,0.0,0.0,0.0,0.0,0.0,0.0,0.0,0.0,0.0,0.0,0.0,0.0,0.0,0.0,0.0,0.0,0.0,0.0,0.0,0.0,0.0,0.0,0.0,0.0,0.0,0.0,0.0,0.0,0.0,0.0,0.0,0.0,0.0,0.0,0.0,0.0,0.0,0.0,0.0,0.0,-2.8814,0.0,0.0,0.0,0.0,0.0,0.0,0.0,0.0,0.0,0.0,0.0,0.0,0.0,0.0,0.0,0.0,0.0,0.0,0.0,0.0,0.0,0.0,0.0,0.0,0.0,0.0,0.0,0.0,0.0,0.0,0.0,0.0,0.0,0.0,0.0,0.0,0.0,0.0,0.0,0.0,-2.6439,-3.1411,-3.4622,-3.3973,-3.3897,-3.3626,-3.2882,-3.2814,-3.1867,-2.96,-2.7176,0.0,0.0,0.0,0.0,0.0,0.0,0.0,0.0,0.0,0.0,0.0,0.0,0.0,0.0,0.0,0.0,0.0,0.0,0.0,0.0,0.0,0.0,0.0,0.0,0.0,0.0,0.0,0.0,0.0,0.0,0.0,0.0,0.0,0.0,0.0,0.0,0.0,0.0,0.0,0.0,0.0,0.0,0.0,0.0,0.0,0.0,0.0,0.0,0.0,0.0,0.0,0.0,0.0,-3.4675,-3.5656,-3.5656,-3.5656,-3.5926,-3.6299,-3.4438,-3.3694,-3.3503,0.0,0.0,0.0,0.0,0.0,0.0,0.0,0.0,0.0,0.0,0.0,0.0,0.0,0.0,0.0,0.0,0.0,0.0,0.0,0.0,0.0,0.0,0.0,0.0,0.0,-2.4777,-2.5364,0.0,0.0,0.0,0.0,0.0,0.0,0.0,0.0,0.0,0.0,0.0,0.0,-2.8809,-3.2738,-3.5379,-3.5396,-3.5115,-3.4607,-3.3863,-3.3931,-3.3288,-3.1698,-2.9042,-2.7038,0.0,0.0,0.0,0.0,0.0,0.0,0.0,0.0,0.0,0.0,0.0,0.0,0.0,0.0,0.0,0.0,0.0,0.0,0.0,0.0,0.0,0.0,0.0,0.0,0.0,0.0,0.0,0.0,0.0,0.0,0.0,0.0,-2.4548,-2.6093,0.0,0.0,0.0,0.0,0.0,0.0,0.0,0.0,0.0,0.0,0.0,0.0,0.0,-2.9657,-3.1608,-3.3783,-3.5926,-3.799,-3.958,-4.0324,-4.0324,-4.0324,-4.002,-3.9503,-3.9199,0.0,-3.516,-3.3368,0.0,0.0,0.0,0.0,0.0,0.0,0.0,0.0,0.0,0.0,0.0,0.0,0.0,0.0,0.0,0.0,0.0,0.0,0.0,0.0,0.0,0.0,-2.9512,-2.9545,-2.922,-2.9541,0.0,-2.744,-2.3124,-2.2992,0.0,0.0,0.0,0.0,0.0,0.0,0.0,0.0,-3.1317,-3.4051,-3.5316,-3.473,-3.578,-3.6163,-3.5363,-3.596,-3.5419,-3.3254,-3.2705,-3.0962,-2.762,-2.6573,0.0,0.0,0.0,0.0,0.0,0.0,0.0,0.0,0.0,0.0,0.0,0.0,0.0,0.0,0.0,0.0,0.0,0.0,0.0,0.0,0.0,0.0,0.0,0.0,0.0,0.0,0.0,0.0,0.0,-2.4822,-2.7156,-2.8465,-2.6264,-2.4209,0.0,0.0,0.0,0.0,0.0,0.0,0.0,0.0,0.0,-3.0545,-3.238,-3.4392,-3.6543,-3.8677,-4.0501,-4.1963,-4.3088,-4.316,-4.2371,-4.1962,-4.117,-4.0113,-4.0113,-3.9368,-3.799,-3.6096,-3.3829,-3.1407,0.0,0.0,0.0,0.0,-2.7539,-2.7176,-2.9877,-3.0293,0.0,0.0,0.0,0.0,0.0,0.0,0.0,0.0,0.0,0.0,0.0,0.0,0.0,-3.1944,-3.1767,-3.1699,-3.3232,-3.0838,-2.8273,0.0,-2.7435,-2.5812,-2.1549,0.0,0.0,0.0,0.0,-3.1236,-3.3009,-3.5511,-3.7032,-3.6835,-3.7408,-3.7511,-3.6757,-3.7126,-3.6637,-3.4754,-3.4619,-3.3537,-3.1035,-2.9837,-2.774,0.0,0.0,0.0,0.0,0.0,0.0,0.0,0.0,0.0,0.0,0.0,0.0,0.0,0.0,0.0,0.0,0.0,0.0,0.0,0.0,0.0,0.0,0.0,0.0,0.0,0.0,0.0,0.0,-2.7273,-2.9429,-3.0215,-2.8955,-2.7191,0.0,0.0,0.0,0.0,0.0,0.0,-2.8838,-3.0803,-3.277,-3.4708,-3.6464,-3.8446,-4.0669,-4.2423,-4.3824,-4.4759,-4.5404,-4.4948,-4.3474,-4.2877,-4.1929,-4.0813,-4.0331,-4.0281,-4.0464,-3.8458,-3.6761,-3.525,-3.4004,-3.2573,-3.133,-3.2513,-3.1843,-3.0815,-3.422,-3.4377,-3.3022,-3.2692,0.0,-2.993,-2.7875,0.0,0.0,0.0,0.0,-2.8581,-3.0431,-3.1384,-3.2296,-3.3948,-3.385,-3.3646,-3.4469,-3.3809,-3.2785,0.0,-3.1326,-2.9533,-2.5052,0.0,0.0,0.0,0.0,-3.4291,-3.5283,-3.6873,-3.7979,-3.8124,-3.8148,-3.8011,-3.761,-3.7978,-3.7618,-3.6276,-3.6174,-3.5498,-3.4011,-3.2713,-3.1258,-2.9585,0.0,0.0,0.0,0.0,0.0,0.0,0.0,0.0,0.0,0.0,0.0,0.0,0.0,0.0,0.0,0.0,0.0,0.0,0.0,0.0,0.0,0.0,0.0,0.0,0.0,0.0,0.0,0.0,0.0,-3.068,-2.9608,0.0,0.0,0.0,0.0,-2.7559,-2.97,-3.1884,-3.4032,-3.5616,-3.7081,-3.8391,-3.9276,-4.0749,-4.2823,-4.3718,-4.4865,-4.6283,-4.633,-4.5529,-4.4044,-4.3498,-4.3126,-4.275,-4.092,-4.0861,-4.197,-4.0523,-3.9039,-3.7672,-3.7019,-3.5819,-3.4493,-3.4619,-3.417,-3.3612,-3.4449,-3.4581,-3.4287,-3.3638,-3.1715,-2.9735,-3.0131,-2.8992,0.0,0.0,-3.1284,-3.2715,-3.4087,-3.4967,-3.5707,-3.6462,-3.6117,-3.6011,-3.7373,-3.6009,-3.4253,0.0,-3.3254,-3.2476,-3.0142,0.0,-3.0844,-3.3389,-3.3005,-3.4123,-3.8879,-3.798,-3.6864,-3.6875,-3.6909,-3.7157,-3.7835,-3.8556,-3.8599,-3.7855,-3.7787,-3.711,-3.5532,-3.4742,-3.3288,-3.1123,-2.9551,0.0,0.0,0.0,0.0,0.0,0.0,0.0,0.0,0.0,0.0,0.0,0.0,0.0,0.0,0.0,0.0,0.0,0.0,0.0,0.0,0.0,0.0,0.0,0.0,0.0,0.0,0.0,0.0,-3.0528,-3.0788,0.0,-2.9034,-2.9941,-3.0815,-3.1329,-3.3071,-3.4619,-3.5868,-3.6987,-3.813,-3.9361,-4.1025,-4.269,-4.4345,-4.5502,-4.6876,-4.8436,-4.8011,-4.7281,-4.6262,-4.5622,-4.4788,-4.3731,-4.3021,-4.2741,-4.2678,-4.217,-4.0929,-3.9309,-3.9101,-3.832,-3.7392,-3.7445,-3.6975,-3.6451,-3.7154,-3.705,-3.6595,-3.6333,-3.497,-3.3516,-3.4241,-3.3606,-3.2826,-3.3514,-3.4425,-3.5296,-3.5793,-3.6508,-3.7279,-3.7958,-3.7958,-3.7939,-3.847,-3.799,-3.7076,-3.5836,-3.4776,-3.3389,-3.119,-3.322,-3.466,-3.3242,-3.546,-3.778,-3.9116,-3.8517,-3.8162,-3.862,-3.8242,-3.8242,-3.9009,-3.9462,-3.9605,-3.9309,-3.9334,-3.8633,-3.7121,-3.728,-3.6332,-3.41,-3.3998,-3.1438,0.0,0.0,0.0,0.0,0.0,0.0,0.0,0.0,0.0,0.0,0.0,0.0,0.0,0.0,0.0,0.0,0.0,0.0,0.0,0.0,0.0,0.0,0.0,0.0,0.0,0.0,-3.1906,-3.0489,-3.1697,-3.216,-3.0726,-3.2457,-3.381,-3.4058,-3.5518,-3.6702,-3.7406,-3.842,-3.9555,-4.0857,-4.2973,-4.4797,-4.6194,-4.7638,-4.893,-4.9994,-4.9284,-4.8535,-4.7736,-4.6859,-4.5966,-4.5135,-4.4462,-4.4169,-4.4071,-4.3592,-4.2647,-4.1419,-4.0671,-3.991,-3.9315,-3.9315,-3.8799,-3.8189,-3.8442,-3.8189,-3.7793,-3.7793,-3.7115,-3.6383,-3.6874,-3.6661,-3.629,-3.629,-3.7,-3.7789,-3.7789,-3.8534,-3.9444,-3.9939,-4.0047,-4.0014,-3.9784,-3.9546,-3.9029,-3.7777,-3.6321,-3.4709,-3.2983,-3.5385,-3.6603,-3.3829,-3.7032,-3.9469,-3.8734,-3.8685,-3.8917,-3.9409,-3.8791,-3.8677,-3.9409,-3.8918,-3.9005,-4.0045,-3.9402,-3.8894,-3.8633,-3.7889,-3.6772,-3.5284,-3.5686,-3.3222,-2.7759,0.0,0.0,0.0,0.0,0.0,0.0,0.0,0.0,0.0,0.0,0.0,0.0,0.0,0.0,0.0,0.0,0.0,0.0,0.0,0.0,0.0,0.0,0.0,-2.955,-3.0593,-3.1248,-3.068,-3.2334,-3.301,-3.1718,-3.3385,-3.4837,-3.5577,-3.6989,-3.8157,-3.8935,-4.0226,-4.159,-4.3009,-4.5192,-4.6973,-4.8287,-4.9958,-5.0802,-5.0839,-5.0014,-4.9187,-4.8323,-4.7009,-4.6686,-4.7019,-4.515,-4.5108,-4.6199,-4.4842,-4.4281,-4.4015,-4.1811,-4.0659,-4.0163,-4.0163,-3.9696,-3.8947,-3.8201,-3.7911,-3.7883,-3.7879,-3.7851,-3.7854,-3.7854,-3.7854,-3.7886,-3.7886,-3.8971,-4.0117,-4.0117,-4.123,-4.2286,-4.232,-4.232,-4.2151,-4.1407,-4.0696,-3.9943,-3.9174,-3.7879,-3.6626,-3.5802,-3.6332,-3.6603,-3.5802,-3.7618,0.0,-3.8058,-3.8599,-3.9005,-3.8971,-3.8328,-3.8193,-3.8903,-3.6941,-3.6941,-3.991,-3.8082,-3.7879,-4.0011,-3.6626,-3.4641,-3.4641,-3.4355,-3.3225,-3.1224,0.0,0.0,0.0,0.0,0.0,0.0,0.0,0.0,0.0,0.0,0.0,0.0,0.0,0.0,0.0,0.0,0.0,0.0,0.0,0.0,0.0,0.0,-3.0885,-3.0099,-3.1654,-3.2857,-3.2699,-3.3578,-3.409,-3.3725,-3.5095,-3.6104,-3.6321,-3.7725,-3.9116,-4.0363,-4.1332,-4.2658,-4.4458,-4.623,-4.7538,-4.8287,-4.9958,-5.1096,-5.1646,-5.0839,-5.0325,-5.0105,-4.9142,-4.8446,-4.7957,-4.7392,-4.706,-4.6849,-4.6458,-4.5707,-4.4689,-4.3058,-4.2339,-4.2204,-4.2204,-4.2135,-4.2014,-4.1318,-4.0354,-3.9467,-3.9462,-3.9051,-3.8704,-3.9279,-3.9437,-3.9383,-3.9383,-4.0105,-4.0875,-4.0875,-4.1604,-4.2422,-4.2963,-4.3098,-4.3064,-4.2834,-4.2219,-4.1305,-4.0054,-3.9039,-3.8159,-3.7415,-3.7889,-3.8328,-3.8091,-3.9039,0.0,-3.9537,-3.9681,-3.9411,-3.8328,-3.8024,-3.799,-3.8193,-3.7652,-3.8091,-3.9977,-3.9537,-3.9469,-4.0079,-3.9097,-3.8319,-3.7753,-3.5245,-3.3282,0.0,0.0,0.0,0.0,0.0,0.0,0.0,0.0,0.0,0.0,0.0,0.0,0.0,0.0,0.0,0.0,0.0,0.0,0.0,0.0,0.0,0.0,-3.1795,-3.3047,-3.2516,-3.3354,-3.3986,-3.3937,-3.4545,-3.5063,-3.5337,-3.6413,-3.7389,-3.803,-3.8897,-4.0147,-4.1868,-4.2634,-4.3806,-4.5549,-4.7389,-4.8689,-4.9334,-5.0986,-5.1867,-5.1977,-5.1169,-5.0618,-5.0251,-4.9444,-4.8783,0.0,-4.8306,-4.8049,-4.759,-4.759,-4.7144,0.0,0.0,0.0,0.0,0.0,-4.3921,-4.3776,-4.3348,-4.2272,-4.1036,-4.1032,-4.0708,-4.04,-4.0878,-4.0978,-4.0935,-4.0935,-4.1513,-4.2122,-4.2122,-4.2696,-4.3369,-4.3809,-4.391,-4.391,-4.391,-4.3064,-4.2049,-4.1204,-4.0189,0.0,-3.8903,-3.9174,-3.914,-3.8193,-3.9478,-4.0223,-3.9276,-3.9986,-4.0231,-3.9377,-3.958,-3.9614,-3.9309,-3.843,0.0,0.0,0.0,-3.8589,-3.8227,-3.8193,0.0,0.0,0.0,0.0,0.0,0.0,0.0,0.0,-3.0698,-3.04,0.0,0.0,0.0,0.0,0.0,0.0,0.0,0.0,0.0,0.0,0.0,0.0,0.0,0.0,0.0,0.0,-3.4487,-3.5903,-3.5775,-3.5437,-3.5081,-3.4784,-3.54,-3.613,-3.6814,-3.7596,-3.8671,-4.0122,-4.0299,-4.1305,-4.3409,0.0,0.0,0.0,0.0,-5.0108,-5.0845,-5.2463,-5.2909,-5.2123,-5.1313,-5.0502,-4.9692,-4.8845,-4.8402,-4.8382,-4.8382,-4.8344,-4.8306,-4.8306,-4.8344,-4.8161,-4.6104,-4.5039,-4.4733,-4.5472,-4.5411,-4.4942,-4.4868,0.0,0.0,-4.2453,-4.2434,-4.2422,-4.2422,-4.2489,-4.2557,-4.2557,-4.3031,-4.3511,-4.3511,-4.4045,-4.4615,-4.4615,-4.4615,-4.4615,-4.4615,-4.3436,-4.2388,-4.232,-4.1196,-4.0214,-4.0214,-4.0223,-3.958,-3.7608,-3.958,-4.0629,-3.8667,-4.0189,-4.1373,-4.1102,0.0,0.0,-4.1035,-3.9174,-3.8633,-4.0011,-3.8251,-3.684,-3.614,-3.6107,-3.6107,-3.6107,-3.6107,-3.711,-3.9106,-3.9106,-3.9024,-3.8617,-3.2738,-3.1857,0.0,0.0,0.0,0.0,0.0,0.0,0.0,0.0,0.0,0.0,0.0,0.0,0.0,0.0,0.0,-3.3944,-3.6072,-3.7347,-3.6642,-3.7422,-3.7605,-3.6353,-3.6896,-3.7682,-3.838,-3.9206,-4.0043,-4.0908,-4.1565,-4.2766,-4.4812,-4.5009,-4.5925,-4.7838,-4.9661,-5.0799,-5.1286,-5.2865,-5.346,-5.2965,0.0,0.0,-5.045,-4.964,-4.9075,-4.8779,-4.8779,-4.8604,-4.8306,-4.8306,-4.8514,-4.867,-4.7261,-4.7051,-4.7534,-4.7796,-4.7864,-4.7751,-4.7263,-4.574,-4.3888,-4.3301,-4.3134,-4.32,-4.32,-4.3639,0.0,-4.4175,-4.4276,-4.4378,-4.4378,-4.4479,-4.4615,-4.4615,-4.4615,-4.4615,-4.4615,-4.3842,-4.3031,-4.2422,-4.1576,-4.1001,-4.1001,-4.1001,-4.0865,-4.0426,-4.1339,-4.1914,-4.1508,-4.2354,-4.2286,-4.0519,-4.0967,-4.0865,-3.9546,-3.9039,-3.914,-4.0045,-3.9706,-3.9402,-3.9233,-3.9233,-3.9233,-3.9233,-3.9233,-3.9469,-3.991,-3.991,-3.9858,-3.9744,-3.7293,-3.708,0.0,0.0,0.0,0.0,0.0,0.0,0.0,0.0,0.0,0.0,0.0,-3.0108,-3.3527,0.0,-3.5037,-3.6561,-3.776,-3.8332,-3.791,-3.9115,-3.9336,-3.7413,-3.8226,-3.9097,-3.9455,-4.0525,-4.1531,-4.2239,-4.2955,-4.4083,-4.5764,-4.6167,-4.6952,-4.8267,-4.9554,-5.0599,-5.1409,-5.2156,-5.2554,-5.2582,-5.1752,-5.0922,-5.0093,-4.9678,-4.9386,-4.9187,-4.8978,-4.8796,-4.8604,-4.8604,-4.8709,-4.8878,-4.8932,-4.9299,-4.9787,-4.9699,-4.9466,-4.9095,-4.837,-4.6753,-4.4946,-4.4876,-4.4449,-4.4033,-4.438,-4.4518,-4.4615,-4.4615,-4.4615,-4.4615,-4.4615,-4.4615,-4.4615,-4.4615,-4.4615,-4.4615,-4.4615,-4.3978,-4.3274,-4.2929,-4.2252,-4.1745,-4.1745,-4.2083,-4.2185,-4.1813,-4.2388,-4.2726,-4.2354,-4.2963,-4.2997,-4.188,-4.2422,-4.2422,-4.1305,-4.0527,-4.0257,-4.0629,-4.0629,-4.0612,-4.0514,-4.0891,-4.0925,-4.0514,-4.048,-4.0368,-4.0113,-4.0113,-4.0113,-4.0079,-3.9715,-3.9661,0.0,0.0,0.0,0.0,0.0,0.0,0.0,-2.6526,-2.7391,-3.0804,-3.1984,-3.3176,-3.5773,-3.6787,-3.7595,-3.8773,-3.91,-3.9202,-3.9136,-4.0326,-4.0514,-3.8678,-3.9686,-4.0569,-4.0735,-4.1795,-4.2828,-4.3572,-4.4233,-4.5162,-4.633,-4.7044,-4.7695,-4.8287,-4.921,-5.0232,-5.1269,-5.1469,-5.1694,-5.195,-5.1254,-5.0496,-4.9714,-4.9714,-4.9673,-4.9575,-4.9108,-4.8878,-4.8878,-4.8878,-4.8978,-4.923,-5.0372,-5.1011,-5.1286,-5.0989,-5.0419,-4.9677,-4.9025,-4.752,-4.594,-4.6448,-4.584,-4.5035,-4.552,-4.5241,-4.4776,-4.4776,-4.4776,-4.4776,-4.4776,-4.4776,-4.4776,-4.4776,-4.4692,-4.4615,-4.4615,-4.4079,-4.3606,-4.3409,-4.2929,-4.2523,-4.2523,-4.3031,-4.32,-4.2591,-4.3166,-4.3436,-4.2794,-4.3267,-4.3639,-4.3639,-4.4215,-4.4248,-4.3443,-4.2185,-4.1407,-4.1407,-4.1537,-4.156,-4.1347,-4.2113,-4.2218,-4.1545,-4.1267,-4.0927,-4.0517,-4.0366,-4.0316,-4.035,-4.1068,-4.1001,-2.8015,-2.6607,-2.6169,-2.7951,-2.8343,-2.9383,0.0,-3.3379,-3.327,-3.6303,-3.6986,-3.7366,-3.8362,-3.8619,-3.8718,-3.8884,-3.9502,-3.9986,-3.9978,-4.0679,-4.1118,-4.086,-4.1553,-4.2314,-4.2989,-4.3179,-4.3606,-4.4412,-4.5032,-4.567,-4.6365,-4.7044,-4.7695,-4.8287,-4.9417,-5.0318,-5.0855,-5.1916,-5.2272,-5.1907,-5.1792,-5.1341,-5.0584,-5.0584,-5.0358,-4.9987,-4.9234,-4.8878,-4.8878,-4.8878,-4.9326,-5.0012,-5.0511,-5.0946,-5.1302,-5.1316,-5.0601,-4.9585,-4.9511,-4.8468,-4.7212,-4.7277,-4.6796,-4.6233,-4.627,-4.5865,-4.5399,-4.5399,-4.5399,-4.5399,-4.5399,-4.5399,-4.5399,-4.5399,-4.5015,-4.4615,-4.4615,-4.4547,-4.4248,-4.3511,-4.3308,-4.3274,-4.3274,-4.3341,-4.3375,-4.3274,-4.3944,-4.4445,-4.4344,-4.4412,-4.4479,-4.4479,-4.4547,-4.4248,-4.3443,-4.2658,-4.2185,-4.2185,-4.2739,-4.3044,-4.3013,-4.3652,-4.3912,-4.3841,-4.2661,-4.2018,-4.1947,-4.1341,-4.1068,-4.1102,-4.1813,-4.1779,-3.3196,-3.1935,-3.1078,-3.2457,-3.2884,-3.3421,-3.5194,-3.5163,-3.5493,-3.7945,-3.8453,-3.8685,-3.9465,-3.961,-3.961,-3.961,-4.0246,-4.0883,-4.1273,-4.2318,-4.3191,-4.3551,-4.4237,-4.4337,-4.3457,-4.3809,-4.4215,-4.4581,-4.5468,-4.6136,-4.6365,-4.7385,-4.8035,-4.8287,-4.9045,-4.984,-5.0778,-5.1051,-5.1411,-5.1885,-5.1433,-5.101,-5.0712,-5.0712,-5.0483,-5.0099,-4.9741,-4.9475,-4.9265,-4.9504,-4.9819,-5.0188,-5.1075,-5.1063,-5.0596,-5.0649,-5.0302,-4.9806,-4.91,-4.8227,-4.7449,-4.7797,-4.7219,-4.646,-4.6864,-4.6542,-4.6014,-4.6014,-4.6014,-4.6014,-4.6014,-4.574,-4.5494,-4.5494,-4.5035,-4.4615,-4.4615,-4.4615,-4.4513,-4.4147,-4.4079,-4.4079,-4.4079,-4.4079,-4.4079,-4.4079,-4.4378,-4.4615,-4.4615,-4.4615,-4.4615,-4.4615,-4.4615,-4.4479,-4.4113,-4.3403,-4.2963,-4.2963,-4.3223,-4.3467,-4.3734,-4.4084,-4.4202,-4.4134,-4.3231,-4.262,-4.2279,-4.197,-4.1847,-4.1847,-4.2591,-4.2794,-3.551,-3.4987,-3.4665,-3.5406,-3.6171,-3.6627,-3.6293,-3.6442,-3.7091,-3.8569,-3.9069,-3.9461,-4.0248,-4.0417,-4.0485,-4.0688,-4.1316,-4.1962,-4.2445,-4.3739,-4.4808,-4.5244,-4.6153,-4.6088,-4.4379,-4.4592,-4.4824,-4.4824,-4.579,-4.6566,-4.6966,-4.8063,-4.8746,-4.9003,-4.9482,-5.0081,-5.0764,-5.0875,-5.1272,-5.1885,-5.1818,-5.1625,-5.1395,-5.1125,-5.0675,-5.0111,-5.0111,-4.9936,-4.9673,-4.9974,-5.0171,-5.034,-5.1237,-5.1041,-5.0248,-5.0018,-4.9857,-4.9629,-4.8771,-4.8097,-4.7715,-4.8134,-4.7658,-4.7021,-4.7491,-4.7176,-4.6717,-4.6954,-4.6847,-4.674,-4.6954,-4.6495,-4.5965,-4.5765,-4.5294,-4.4769,-4.4643,-4.4615,-4.4615,-4.4615,-4.4615,-4.4615,-4.4615,-4.4615,-4.4615,-4.4615,-4.4615,-4.4615,-4.4615,-4.4615,-4.4615,-4.4615,-4.4615,-4.4615,-4.4615,-4.4079,-4.3741,-4.3741,-4.4026,-4.4394,-4.4739,-4.5035,-4.5082,-4.5032,-4.4036,-4.3304,-4.2875,-4.2698,-4.2591,-4.2625,-4.3403,-4.3741,-3.2447,-3.3234,-3.4689,-3.5415,-3.7235,-3.8619,-3.7898,-3.8293,-3.8815,-3.8908,-3.9532,-4.029,-4.1035,-4.117,-4.1407,-4.2117,-4.2783,-4.3232,-4.3256,-4.4437,-4.5267,-4.529,-4.6708,-4.7322,0.0,-4.5815,-4.5468,-4.5468,-4.6063,-4.7025,-4.846,-4.92,-4.9921,-5.0692,-5.149,-5.1526,-5.0719,-5.2279,-5.2692,-5.1923,-5.3587,-5.3933,-5.3087,-5.2231,-5.1201,-5.0111,-5.0111,-5.0111,-5.0061,-5.0111,-5.0336,-5.0702,-5.0702,-5.0702,-5.0594,-4.9792,-4.9271,-4.8915,-4.8898,-4.8622,-4.8287,-4.8287,-4.8267,-4.8248,-4.8267,-4.7838,-4.7508,-4.8301,-4.7977,-4.7544,-4.8337,-4.7941,-4.719,-4.6542,-4.5915,-4.532,-4.472,-4.4615,-4.4615,-4.4615,-4.4615,-4.4615,-4.4615,-4.4615,-4.4615,-4.4615,-4.4615,-4.4615,-4.4615,-4.4615,-4.4615,-4.4615,-4.4615,-4.4615,-4.4615,-4.4581,-4.4581,-4.4581,-4.5664,-4.6306,-4.6318,-4.6963,-4.7327,-4.7291,-4.5375,-4.4341,-4.4316,-4.3685,-4.3375,-4.3375,-4.4181,-4.4581,-3.5362,-3.6156,-3.7064,-3.8295,-3.9151,-3.9636,-3.9401,-3.98,-4.0241,-4.0241,-4.0745,-4.1288,-4.1544,-4.2044,-4.2486,-4.2707,-4.3828,-4.4776,-4.5241,-4.6082,-4.6823,-4.7239,-4.7788,0.0,0.0,0.0,0.0,-4.6147,-4.6705,-4.7513,-4.854,-4.9236,-4.9978,-5.0765,-5.1267,-5.1544,-5.1579,-5.2412,-5.2805,-5.2779,-5.3356,-5.378,-5.401,-5.2538,-5.168,-5.125,-5.0724,-5.0493,-5.0493,-5.0493,-5.0584,-5.0712,-5.0712,-5.0712,-5.0692,-5.038,-4.9885,-4.9218,-4.8711,-4.8402,-4.8306,-4.8306,-4.8306,-4.8306,-4.8306,-4.8134,-4.8161,-4.9001,-4.8636,-4.8198,-4.9038,-4.8333,-4.7342,-4.711,-4.6257,-4.5416,-4.5214,-4.4879,-4.4615,-4.4615,-4.4615,-4.4615,-4.4615,-4.4615,-4.4615,-4.4615,-4.4615,-4.4615,-4.4615,-4.4615,-4.4615,-4.4615,-4.4615,-4.4615,-4.4615,-4.4615,-4.4776,-4.5169,-4.5571,-4.6185,-4.7021,-4.6472,-4.6329,-4.6751,-4.5277,-4.4531,-4.4531,-4.4319,-4.4181,-4.4181,-4.4479,-4.4615,-3.7303,-3.799,-3.8549,-4.0017,-4.0563,-4.0696,-4.0696,-4.0967,-4.1206,-4.1206,-4.1073,-4.1096,-4.1662,-4.2178,-4.2731,-4.3262,-4.5094,-4.6525,-4.6663,-4.7334,-4.7959,-4.8285,-4.835,-4.8227,-4.7772,0.0,0.0,-4.6832,-4.7441,-4.8287,-4.9313,-5.0069,-5.0839,-5.1646,-5.2028,-5.2292,-5.2431,-5.3128,-5.386,-5.4549,-5.4241,-5.4395,-5.4857,-5.3164,-5.2192,-5.1846,-5.1048,-5.0712,-5.0712,-5.0712,-5.0712,-5.0712,-5.0712,-5.0712,-5.0702,-5.0525,-5.0159,-4.9617,-4.8965,-4.8532,-4.8306,-4.8306,-4.8306,-4.8306,-4.8306,-4.8526,-4.893,-4.9774,-4.9407,-4.8967,-4.9811,-4.8875,-4.7674,-4.7449,-4.6774,-4.6039,-4.5597,-4.5222,-4.4852,-4.4637,-4.4615,-4.4615,-4.4615,-4.4615,-4.4615,-4.4615,-4.4615,-4.4615,-4.4615,-4.4615,-4.4615,-4.4615,-4.4615,-4.4615,-4.4615,-4.4615,-4.4776,-4.5169,-4.5571,-4.6185,-4.6999,-4.6257,-4.6014,-4.6389,-4.5188,-4.4615,-4.4615,-4.4615,-4.4615,-4.4615,-4.4615,-4.4615,-3.8087,-3.8681,-3.9163,-4.0585,-4.1362,-4.181,-4.1846,-4.1867,-4.1817,-4.1782,-4.0557,-3.9899,-4.1294,-4.1704,-4.2271,-4.3735,-4.6569,-4.8316,-4.7557,-4.8099,-4.8487,-4.8283,-4.8468,-4.8508,-4.8283,-4.9077,0.0,-4.7636,0.0,-4.9277,-5.0745,-5.1573,-5.238,-5.3167,-5.3565,-5.3603,-5.3267,-5.4524,-5.5759,-5.6983,-5.6126,-5.5703,-5.5703,-5.3972,-5.2731,-5.1923,-5.1048,-5.0712,-5.0712,-5.0712,-5.0712,-5.0712,-5.0712,-5.0712,-5.0644,-5.0291,-5.0123,-5.0024,-4.9631,-4.8999,-4.8344,-4.8306,-4.8306,-4.8306,-4.8306,-4.8893,-4.9721,-5.0508,-5.0141,-4.9721,-5.0545,-4.9517,-4.8134,-4.7554,-4.7428,-4.7044,-4.579,-4.552,-4.532,-4.472,-4.4615,-4.4615,-4.4615,-4.4615,-4.4615,-4.4615,-4.4615,-4.4615,-4.4615,-4.4615,-4.4615,-4.4615,-4.4615,-4.4615,-4.4615,-4.4615,-4.4615,-4.4637,-4.5724,-4.6365,-4.6389,-4.6365,-4.6342,-4.6342,-4.5222,-4.4615,-4.4615,-4.4615,-4.4615,-4.4615,-4.4615,-4.4615,-3.8944,-3.9752,-4.0549,-4.138,-4.1703,-4.1952,-4.2562,-4.2573,-4.2298,-4.1652,-4.1071,-4.0413,-3.9615,-4.1432,-4.316,-4.3541,-4.6297,-4.8274,-4.8111,-4.8258,-4.8194,-4.7674,-4.8061,-4.8194,-4.7674,-4.8822,-4.9441,0.0,-4.9228,-4.9781,-5.0765,-5.1573,-5.238,-5.3167,-5.3314,-5.3608,-5.4166,-5.5084,-5.606,-5.6983,-5.6126,-5.6049,-5.6599,-5.4241,-5.3087,-5.2779,-5.1318,-5.0712,-5.0712,-5.0712,-5.0712,-5.0712,-5.0712,-5.0712,-5.0702,-5.0594,-5.0358,-5.0024,-4.9631,-4.9171,-4.8692,-4.8383,-4.8306,-4.8306,-4.8306,-4.8453,-4.882,-4.9664,-4.9297,-4.882,-4.9684,-4.9114,-4.8267,-4.8094,-4.7736,-4.7154,-4.6353,-4.5815,-4.532,-4.472,-4.4615,-4.4615,-4.4615,-4.4615,-4.4615,-4.4615,-4.4615,-4.4615,-4.4615,-4.4615,-4.4615,-4.4615,-4.4615,-4.4615,-4.4615,-4.4615,-4.4803,-4.5241,-4.5545,-4.594,-4.6365,-4.5965,-4.5749,-4.5749,-4.5015,-4.4615,-4.4615,-4.4615,-4.4615,-4.4615,-4.4615,-4.4615,-3.9861,-4.0862,-4.1789,-4.2103,-4.2653,-4.292,-4.2308,-4.2338,-4.1996,-4.0088,-3.9321,-3.8615,-3.7316,-4.001,-4.2433,-4.2433,-4.6067,-4.8746,-4.8343,-4.8404,-4.8259,-4.7834,-4.7858,-4.8004,-4.8327,-4.9102,-4.9757,-5.0105,-5.0455,-5.0839,-5.1316,-5.2087,-5.2747,-5.3188,-5.338,-5.3888,-5.4745,-5.5387,-5.5934,-5.6406,-5.5934,-5.5972,-5.6368,-5.4203,-5.3203,-5.3126,0.0,-5.0712,-5.0712,-5.0712,-5.0712,-5.0712,-5.0712,-5.0712,-5.0712,-5.0712,-5.0573,-5.0291,-4.9687,-4.9582,-4.962,-4.9048,-4.86,-4.8379,-4.8746,-4.8857,-4.8967,-4.9463,-4.9243,-4.8967,-4.9463,-4.893,-4.8306,-4.8306,-4.8055,-4.7533,-4.6577,-4.6136,-4.5648,-4.4776,-4.4615,-4.4615,-4.4615,-4.4615,-4.4615,-4.4615,-4.4615,-4.4615,-4.4615,-4.4615,-4.4615,-4.4615,-4.4615,-4.4615,-4.4615,-4.4615,-4.4748,-4.5089,-4.5346,-4.5648,-4.5989,-4.5699,-4.5494,-4.5494,-4.4906,-4.4615,-4.4615,-4.4615,-4.4615,-4.4615,-4.4615,-4.4615,-4.0892,-4.1987,-4.2893,-4.2951,-4.3852,-4.4104,-4.1902,-4.1809,-4.1222,-3.8006,-3.6684,-3.584,-3.4913,-3.8043,-4.0855,-4.1123,-4.5626,-4.8913,-4.8379,-4.8457,-4.8457,-4.8224,-4.7797,-4.8042,-4.9362,-4.9644,-5.0088,-5.0912,-5.1683,-5.2087,-5.2013,-5.2747,-5.3209,-5.3293,-5.3701,-5.4267,-5.5107,-5.5481,-5.5703,-5.5703,-5.5703,-5.5703,-5.5665,-5.4087,-5.3318,-5.3126,0.0,0.0,-5.0712,-5.0712,-5.0712,-5.0712,-5.0712,-5.0712,-5.0712,-5.0712,-5.0712,-5.0594,-4.9859,-5.0061,-5.0582,-4.9862,-4.9077,-4.86,-4.939,-4.9537,-4.9427,-4.9427,-4.9427,-4.9427,-4.9427,-4.8857,-4.8306,-4.8306,-4.8306,-4.7939,-4.6705,-4.6246,-4.584,-4.4769,-4.4615,-4.4615,-4.4615,-4.4615,-4.4615,-4.4615,-4.4615,-4.4615,-4.4615,-4.4615,-4.4615,-4.4615,-4.4615,-4.4615,-4.4615,-4.4615,-4.4615,-4.4615,-4.5089,-4.5399,-4.5399,-4.5399,-4.5399,-4.5399,-4.4852,-4.4615,-4.4615,-4.4615,-4.4615,-4.4615,-4.4615,-4.4615,-4.2267,-4.3044,-4.3785,-4.4218,-4.4527,-4.4415,-4.3314,-4.2176,-4.0398,-3.7184,-3.5811,-3.483,-3.3573,-3.6523,-3.9626,-4.1171,-4.4328,-4.6948,-4.8122,-4.8339,-4.8141,-4.7611,-4.7879,-4.8324,-4.8735,-4.9877,-5.0912,0.0,-5.2527,-5.2711,-5.2013,-5.2747,-5.3359,-5.3683,-5.4135,-5.4609,-5.5107,-5.5481,-5.5703,-5.5703,-5.5703,-5.5703,-5.5665,-5.4703,-5.3895,-5.3126,-5.2125,0.0,-5.0712,-5.0712,-5.0712,-5.0712,-5.0712,-5.0712,-5.0712,-5.0712,-5.0712,-5.0624,-5.0159,-5.031,-5.0582,-4.9862,-4.95,-4.939,-4.9537,-4.9077,-4.8526,-4.8526,-4.8526,-4.8526,-4.8526,-4.8416,-4.8306,-4.8306,-4.8306,-4.7939,-4.6705,-4.5622,-4.4852,-4.4637,-4.4615,-4.4615,-4.4615,-4.4615,-4.4615,-4.4615,-4.4615,-4.4615,-4.4615,-4.4615,-4.4615,-4.4615,-4.4615,-4.4615,-4.4615,-4.4615,-4.4615,-4.4615,-4.4692,-4.4776,-4.4776,-4.4776,-4.4776,-4.4776,-4.4637,-4.4615,-4.4615,-4.4615,-4.4615,-4.4615,-4.4615,-4.4615,-4.3296,-4.4099,-4.502,-4.5278,-4.5645,-4.5168,-4.2286,-4.113,-3.9357,-3.4892,-3.3722,-3.3168,-3.2156,-3.5165,-3.8231,-3.9421,-4.2918,-4.5859,-4.6893,-4.7792,-4.8173,-4.7879,-4.8536,-4.9162,-4.9664,-5.0769,-5.1756,-5.2564,0.0,-5.3041,-5.2637,-5.3004,-5.3484,-5.4135,-5.4371,-5.479,-5.5411,-5.5599,-5.5703,-5.5703,-5.5703,-5.5703,-5.5665,-5.4857,-5.401,-5.3164,-5.2269,0.0,-5.0712,-5.0712,-5.0712,-5.0712,-5.0712,-5.0712,-5.0712,-5.0712,-5.0712,-5.0634,-5.023,-5.0495,-5.0932,-5.0614,-5.0062,-4.9684,-5.0105,-4.9334,-4.8306,-4.8306,-4.8306,-4.8306,-4.8306,-4.8306,-4.8306,-4.8306,-4.7797,-4.7154,-4.6507,-4.5477,-4.4615,-4.4615,-4.4615,-4.4615,-4.4615,-4.4615,-4.4615,-4.4615,-4.4615,-4.4615,-4.4615,-4.4615,-4.4615,-4.4615,-4.4615,-4.4615,-4.4615,-4.4615,-4.4615,-4.4615,-4.4615,-4.4615,-4.4615,-4.4615,-4.4615,-4.4615,-4.4615,-4.4615,-4.4615,-4.4615,-4.4615,-4.4615,-4.4615,-4.4615,-4.4077,-4.5093,-4.6177,-4.6177,-4.6636,-4.5883,-4.1282,-4.023,-3.865,-3.3053,-3.2019,-3.1949,-3.1445,-3.4175,-3.6873,-3.8053,-4.1667,-4.4728,-4.5859,-4.7206,-4.8161,-4.8421,-4.9118,-4.9941,-5.0729,-5.1536,-5.2344,-5.3151,0.0,0.0,-5.3203,-5.3203,-5.3602,-5.4452,-5.4484,-5.4876,-5.5703,-5.5703,-5.5703,-5.5703,-5.5703,-5.5703,-5.5665,-5.5049,-5.4203,-5.3164,-5.2462,0.0,0.0,-5.0712,-5.0712,-5.0712,-5.0712,-5.0712,-5.0712,-5.0712,-5.0712,-5.0644,-5.0336,-5.0694,-5.1319,-5.141,-5.0768,-5.0078,-5.0622,-4.9774,-4.8526,-4.8343,-4.8306,-4.8306,-4.8306,-4.8306,-4.8306,-4.8306,-4.7306,-4.6389,-4.6389,-4.5477,-4.4615,-4.4615,-4.4615,-4.4615,-4.4615,-4.4615,-4.4615,-4.4615,-4.4615,-4.4615,-4.4615,-4.4615,-4.4615,-4.4615,-4.4615,-4.4615,-4.4615,-4.4615,-4.4615,-4.4615,-4.4615,-4.4615,-4.4615,-4.4615,-4.4615,-4.4615,-4.4615,-4.4615,-4.4615,-4.4615,-4.4615,-4.4615,-4.4615,-4.4615,-4.4711,-4.5773,-4.7003,-4.7003,-4.7039,-4.6103,-4.2245,-4.0791,-3.8745,-3.3283,-3.2175,-3.2221,-3.2414,-3.3752,-3.5797,-3.8836,-4.0755,-4.2917,-4.6015,-4.6906,-4.7629,-4.8702,-4.9289,-4.9941,-5.0729,-5.1536,-5.2344,-5.3151,0.0,0.0,-5.3203,-5.3203,-5.3602,-5.4452,-5.4484,-5.4876,-5.5703,-5.5703,-5.5703,-5.5703,-5.5703,-5.5703,-5.5703,-5.5626,-5.4703,-5.3203,-5.3126,0.0,0.0,-5.0712,-5.0712,-5.0712,-5.0712,-5.0712,-5.0712,-5.0712,-5.0712,-5.0702,-5.0644,-5.0916,-5.1358,-5.1737,-5.1536,-5.1083,-5.0868,-5.0178,-4.9317,-4.8526,-4.8306,-4.8306,-4.8306,-4.8306,-4.8306,-4.8306,-4.7306,-4.6389,-4.6389,-4.5477,-4.4615,-4.4615,-4.4615,-4.4615,-4.4615,-4.4615,-4.4615,-4.4615,-4.4615,-4.4615,-4.4615,-4.4615,-4.4615,-4.4615,-4.4615,-4.4615,-4.4615,-4.4615,-4.4615,-4.4615,-4.4615,-4.4615,-4.4615,-4.4615,-4.4615,-4.4615,-4.4615,-4.4615,-4.4615,-4.4615,-4.4615,-4.4615,-4.4615,-4.4615,-4.5315,-4.6617,-4.781,-4.781,-4.7261,-4.579,-4.2299,-4.0375,-3.8018,-3.3343,-3.2507,-3.266,-3.2739,-3.3632,-3.523,-3.7877,-3.9157,-4.059,-4.2766,-4.4042,-4.5491,-4.7515,-4.8776,-5.021,-5.2054,0.0,-5.3232,0.0,0.0,0.0,-5.3546,-5.3318,-5.3464,-5.4048,-5.4338,-5.476,-5.535,-5.5577,-5.5703,-5.5703,-5.5703,-5.5703,-5.5703,-5.5703,-5.478,-5.3203,-5.3203,0.0,0.0,-5.0712,-5.0712,-5.0712,-5.0712,-5.0712,-5.0712,-5.0712,-5.0712,-5.0712,-5.0712,-5.0786,-5.1063,-5.1703,-5.1801,-5.154,-5.0966,-5.0251,-4.9427,-4.8563,-4.8306,-4.8306,-4.8306,-4.8306,-4.8306,-4.8306,-4.7306,-4.6389,-4.6389,-4.5477,-4.4615,-4.4615,-4.4615,-4.4615,-4.4615,-4.4615,-4.4615,-4.4615,-4.4615,-4.4615,-4.4615,-4.4615,-4.4615,-4.4615,-4.4615,-4.4615,-4.4615,-4.4615,-4.4615,-4.4615,-4.4615,-4.4615,-4.4615,-4.4615,-4.4615,-4.4615,-4.4615,-4.4615,-4.4615,-4.4615,-4.4615,-4.4615,-4.4615,-4.4615,-4.5553,-4.6911,-4.8012,-4.8233,-4.735,-4.5558,-4.235,-4.0287,-3.7909,-3.3845,-3.3144,-3.3276,-3.3276,-3.3782,-3.4868,-3.6819,-3.7804,-3.8933,-4.0704,-4.2033,-4.3741,-4.6112,-4.773,-4.9558,-5.1865,-5.3249,0.0,0.0,0.0,0.0,0.0,-5.3604,-5.3565,-5.3995,-5.4322,-5.4745,-5.5262,-5.5566,-5.5703,-5.5703,-5.5703,-5.5703,-5.5703,-5.5703,-5.478,-5.3203,0.0,0.0,0.0,-5.0712,-5.0712,-5.0712,-5.0712,-5.0712,-5.0712,-5.0712,-5.0712,-5.0712,-5.0712,-5.0712,-5.0814,-5.1505,-5.1624,-5.1447,-5.0787,-5.0296,-4.9701,-4.86,-4.8306,-4.8306,-4.8306,-4.8306,-4.8267,-4.8075,-4.7198,-4.6342,-4.6185,-4.532,-4.4615,-4.4615,-4.4615,-4.4615,-4.4615,-4.4615,-4.4615,-4.4615,-4.4615,-4.4615,-4.4615,-4.4615,-4.4615,-4.4615,-4.4615,-4.4615,-4.4615,-4.4615,-4.4615,-4.4615,-4.4615,-4.4615,-4.4615,-4.4615,-4.4615,-4.4615,-4.4615,-4.4615,-4.4615,-4.4615,-4.4615,-4.4615,-4.4615,-4.4615,-4.5259,-4.6489,-4.7296,-4.8122,-4.735,-4.5621,-4.2565,-4.0844,-3.8804,-3.4952,-3.4167,-3.4205,-3.4205,-3.4205,-3.4669,-3.6086,-3.6985,-3.8395,-4.092,-4.1722,-4.2737,-4.4798,-4.6151,-4.7594,-4.928,-5.2491,0.0,0.0,0.0,0.0,0.0,-5.4048,-5.3995,-5.4468,-5.4484,-5.4876,-5.5692,-5.5703,-5.5703,-5.5703,-5.5703,-5.5703,-5.5703,-5.5703,-5.478,0.0,0.0,0.0,0.0,-5.0712,-5.0712,-5.0712,-5.0712,-5.0712,-5.0712,-5.0712,-5.0712,-5.0712,-5.0712,-5.0712,-5.0778,-5.1188,-5.1033,-5.0643,-5.0247,-5.0417,-5.0435,-4.8783,-4.8306,-4.8306,-4.8306,-4.8306,-4.8134,-4.7533,-4.6887,-4.6257,-4.5648,-4.5008,-4.4615,-4.4615,-4.4615,-4.4615,-4.4615,-4.4615,-4.4615,-4.4615,-4.4615,-4.4615,-4.4615,-4.4615,-4.4615,-4.4615,-4.4615,-4.4615,-4.4615,-4.4615,-4.4615,-4.4615,-4.4615,-4.4615,-4.4615,-4.4615,-4.4615,-4.4615,-4.4615,-4.4615,-4.4615,-4.4615,-4.4615,-4.4615,-4.4615,-4.4615,-4.2249,-4.3608,-4.4468,-4.3837,-4.2671,-4.133,-4.0023,-3.8699,-3.7057,-3.4686,-3.4661,-3.493,-3.4321,-3.4205,-3.5301,-3.8615,-3.7939,-3.8046,-4.1208,-4.2747,-4.425,-4.61,-5.0216,-5.2996,0.0,0.0,0.0,0.0,0.0,0.0,0.0,-5.4183,-5.4013,-5.4468,-5.476,-5.5015,-5.5275,-5.5566,-5.5703,-5.5703,-5.5703,-5.5703,-5.5703,-5.5703,0.0,0.0,0.0,0.0,0.0,-5.0712,-5.0712,-5.0712,-5.0712,-5.0712,-5.0712,-5.0712,-5.0712,-5.0712,-5.0712,-5.0712,-5.0778,-5.1188,-5.1192,-5.0992,-5.031,-5.0047,-4.9738,-4.8636,-4.8306,-4.8306,-4.8306,-4.8306,-4.8134,-4.7533,-4.6887,-4.6222,-4.5622,-4.5008,-4.4615,-4.4615,-4.4615,-4.4615,-4.4615,-4.4615,-4.4615,-4.4615,-4.4615,-4.4615,-4.4615,-4.4615,-4.4615,-4.4615,-4.4615,-4.4615,-4.4615,-4.4615,-4.4615,-4.4615,-4.4615,-4.4615,-4.4615,-4.4615,-4.4615,-4.4615,-4.4615,-4.4615,-4.4615,-4.4615,-4.4615,-4.4615,-4.4615,-4.4615,-4.0194,-4.1368,-4.2055,-4.1623,-4.0419,-3.9236,-3.8788,-3.7589,-3.6189,-3.4955,-3.5115,-3.5231,-3.4359,-3.4205,-3.5052,-3.7707,-3.6776,-3.7046,-4.0777,-4.2508,-4.447,-4.7509,-5.1625,0.0,0.0,0.0,0.0,0.0,0.0,0.0,0.0,-5.4663,-5.4478,-5.4933,-5.4745,-5.4678,-5.4862,-5.5134,-5.53,-5.5458,-5.5458,-5.5554,-5.5703,-5.5703,0.0,0.0,0.0,0.0,0.0,-5.0712,-5.0712,-5.0712,-5.0712,-5.0712,-5.0712,-5.0712,-5.0712,-5.0712,-5.0712,-5.0712,-5.0759,-5.0993,-5.0874,-5.0523,-4.9861,-4.9399,-4.9003,-4.8453,-4.8306,-4.8306,-4.8306,-4.8306,-4.8075,-4.7255,-4.6692,-4.6185,-4.5346,-4.4852,-4.4615,-4.4615,-4.4615,-4.4615,-4.4615,-4.4615,-4.4615,-4.4615,-4.4615,-4.4615,-4.4615,-4.4615,-4.4615,-4.4615,-4.4615,-4.4615,-4.4615,-4.4615,-4.4615,-4.4615,-4.4615,-4.4615,-4.4615,-4.4615,-4.4615,-4.4615,-4.4615,-4.4615,-4.4615,-4.4615,-4.4615,-4.4615,-4.4615,-4.4615,0.0,-3.9549,-3.9847,-4.0748,-3.9858,-3.8677,-3.8491,-3.729,0.0,-3.5504,-3.5423,-3.5192,-3.443,-3.4205,-3.4244,-3.459,-3.4552,-3.5937,-4.0169,-4.1739,-4.4278,-4.924,-5.1241,0.0,-5.3318,0.0,0.0,0.0,0.0,0.0,0.0,-5.5261,-5.5224,-5.5632,-5.4494,-5.4066,-5.4532,-5.45,-5.4701,-5.5107,-5.5107,-5.5287,-5.5703,-5.5703,0.0,0.0,0.0,0.0,0.0,-5.0712,-5.0712,-5.0712,-5.0712,-5.0712,-5.0712,-5.0712,-5.0712,-5.0712,-5.0712,-5.0712,-5.0712,-5.0712,-5.0159,-4.9431,-4.9059,-4.8658,-4.8306,-4.8306,-4.8306,-4.8306,-4.8306,-4.8306,-4.7995,-4.6692,-4.6389,-4.6088,-4.4852,-4.4615,-4.4615,-4.4615,-4.4615,-4.4615,-4.4615,-4.4615,-4.4615,-4.4615,-4.4615,-4.4615,-4.4615,-4.4615,-4.4615,-4.4615,-4.4615,-4.4615,-4.4615,-4.4615,-4.4615,-4.4615,-4.4615,-4.4615,-4.4615,-4.4615,-4.4615,-4.4615,-4.4615,-4.4615,-4.4615,-4.4615,-4.4615,-4.4615,-4.4615,-4.4615,-3.4871,0.0,-3.694,-3.6098,-3.564,-3.5472,0.0,-3.564,-3.522,-3.4627,-3.4507,-3.4661,-3.5122,-3.4083,-3.4468,-3.8399,-3.793,-3.8584,-4.2816,-4.6394,-5.001,-5.378,-5.4549,-5.4895,0.0,0.0,0.0,0.0,0.0,0.0,0.0,-5.4675,-5.4447,-5.5237,-5.4655,-5.4547,-5.4947,-5.464,-5.4701,-5.5107,-5.5107,-5.5287,-5.5703,-5.5703,0.0,0.0,0.0,0.0,-5.0712,-5.0712,-5.0712,-5.0712,-5.0712,-5.0712,-5.0712,-5.0712,-5.0712,-5.0712,-5.0712,-5.0712,-5.0712,-5.0712,-5.0159,-4.9475,-4.9386,-4.8864,-4.8306,-4.8306,-4.8306,-4.8306,-4.8306,-4.8306,-4.7995,-4.6692,-4.6389,-4.6088,-4.4852,-4.4615,-4.4615,-4.4615,-4.4615,-4.4615,-4.4615,-4.4615,-4.4615,-4.4615,-4.4615,-4.4615,-4.4615,-4.4615,-4.4615,-4.4615,-4.4615,-4.4615,-4.4615,-4.4615,-4.4615,-4.4615,-4.4615,-4.4615,-4.4615,-4.4615,-4.4615,-4.4615,-4.4615,-4.4615,-4.4615,-4.4615,-4.4615,-4.4615,-4.4615,-4.4615,-3.2596,-3.388,-3.5101,-3.486,-3.4674,-3.4723,-3.5322,-3.5182,-3.4876,-3.4642,-3.4714,-3.4814,-3.4891,-3.5084,-3.5892,-3.7892,-3.9084,-4.1354,-4.597,-4.9663,-5.2818,-5.5395,-5.5703,-5.5703,0.0,0.0,0.0,0.0,0.0,0.0,0.0,-5.4511,-5.4341,-5.48,-5.477,-5.4775,-5.4819,-5.4404,-5.4404,-5.4819,-5.4819,-5.5053,-5.5423,-5.561,-5.4803,0.0,0.0,0.0,-5.0799,-5.0799,-5.0776,-5.0712,-5.0712,-5.0712,-5.0712,-5.0712,-5.0712,-5.0712,-5.0712,-5.0712,-5.0712,-5.0712,-5.0159,-4.9489,-4.9489,-4.8949,-4.8306,-4.8306,-4.8306,-4.8248,-4.7975,-4.8094,-4.7899,-4.6377,-4.6209,-4.6088,-4.4852,-4.4615,-4.4615,-4.4615,-4.4615,-4.4615,-4.4615,-4.4615,-4.4615,-4.4615,-4.4615,-4.4615,-4.4615,-4.4615,-4.4615,-4.4615,-4.4615,-4.4615,-4.4615,-4.4615,-4.4615,-4.4615,-4.4615,-4.4615,-4.4615,-4.4615,-4.4615,-4.4615,-4.4615,-4.4615,-4.4615,-4.4615,-4.4615,-4.4615,-4.4615,-4.4615,-3.1984,-3.3146,-3.4315,-3.4909,-3.5014,-3.5095,-3.5526,-3.5162,-3.4745,-3.4882,-3.5101,-3.5238,-3.5013,-3.6479,-3.7525,-3.6864,-4.0098,-4.4332,-4.9019,-5.1826,-5.3972,-5.5511,-5.5703,0.0,0.0,0.0,0.0,0.0,0.0,0.0,0.0,-5.4357,-5.4357,-5.4511,-5.4953,-5.504,-5.4686,-5.417,-5.4135,-5.4579,-5.4579,-5.479,-5.5199,-5.5554,-5.4921,0.0,0.0,0.0,-5.1087,-5.097,-5.0851,-5.073,-5.073,-5.0702,-5.0712,-5.0712,-5.0712,-5.0712,-5.0712,-5.0712,-5.0712,-5.0712,-5.0159,-4.9489,-4.9489,-4.8949,-4.8306,-4.8306,-4.8306,-4.8153,-4.7533,-4.7838,-4.7838,-4.594,-4.5965,-4.6088,-4.4852,-4.4615,-4.4615,-4.4615,-4.4615,-4.4615,-4.4615,-4.4615,-4.4615,-4.4615,-4.4615,-4.4615,-4.4615,-4.4615,-4.4615,-4.4615,-4.4615,-4.4615,-4.4615,-4.4615,-4.4615,-4.4615,-4.4615,-4.4615,-4.4615,-4.4615,-4.4615,-4.4615,-4.4615,-4.4615,-4.4615,-4.4615,-4.4615,-4.4615,-4.4615,-4.4615,-3.4614,-3.5716,-3.5436,-3.3542,-3.4017,-3.493,-3.4548,-3.4572,-3.4556,-3.4082,-3.4227,-3.5244,-3.8015,-3.7414,-3.7784,-4.1787,-4.4832,-4.7705,-5.0617,-5.2889,-5.4664,-5.5588,0.0,0.0,0.0,0.0,0.0,0.0,0.0,0.0,0.0,0.0,-5.3741,-5.4472,-5.5198,-5.5577,-5.5531,-5.4775,-5.4594,-5.5026,-5.5026,-5.5212,-5.5599,-5.5682,-5.5278,0.0,0.0,-5.2912,-5.2041,-5.1336,-5.0972,-5.0883,-5.0883,-5.0808,-5.0712,-5.0712,-5.0712,-5.0712,-5.0712,-5.0712,-5.0712,-5.0712,-5.0159,-4.9489,-4.9489,-4.8949,-4.8306,-4.8306,-4.8306,-4.8153,-4.7533,-4.7838,-4.7838,-4.594,-4.5965,-4.6088,-4.4852,-4.4615,-4.4615,-4.4615,-4.4615,-4.4615,-4.4615,-4.4615,-4.4615,-4.4615,-4.4615,-4.4615,-4.4615,-4.4615,-4.4615,-4.4615,-4.4615,-4.4615,-4.4615,-4.4615,-4.4615,-4.4615,-4.4615,-4.4615,-4.4615,-4.4615,-4.4615,-4.4615,-4.4615,-4.4615,-4.4615,-4.4615,-4.4615,-4.4615,-4.4615,-4.4615,-3.2375,-3.366,-3.4357,-3.4541,-3.678,-3.8866,-3.8626,-3.8454,-3.8053,-3.6908,-3.7024,-3.7832,-3.9444,-4.0416,-4.2536,-4.7352,-4.8777,-5.0068,-5.2323,-5.371,-5.478,0.0,0.0,0.0,0.0,0.0,0.0,0.0,0.0,0.0,0.0,0.0,-5.3395,-5.378,-5.5011,-5.5703,-5.5703,-5.535,-5.5134,-5.5107,-5.5107,-5.5199,-5.5387,-5.5599,-5.5382,-5.4757,0.0,-5.3097,-5.232,-5.1498,-5.104,-5.0889,-5.0889,-5.0803,-5.0712,-5.0712,-5.0712,-5.0712,-5.0712,-5.0712,-5.0644,-5.0462,-4.9974,-4.946,-4.9249,-4.8761,-4.8306,-4.8306,-4.8306,-4.8153,-4.7533,-4.7632,-4.7428,-4.5865,-4.5724,-4.5673,-4.4803,-4.4615,-4.4615,-4.4615,-4.4615,-4.4615,-4.4615,-4.4615,-4.4615,-4.4615,-4.4615,-4.4615,-4.4615,-4.4615,-4.4615,-4.4615,-4.4615,-4.4615,-4.4615,-4.4615,-4.4615,-4.4615,-4.4615,-4.4615,-4.4615,-4.4615,-4.4615,-4.4615,-4.4615,-4.4615,-4.4615,-4.4615,-4.4615,-4.4615,-4.4615,-4.4615,-3.1201,-3.2362,-3.383,-3.6707,-3.9019,-4.0855,-4.1809,-4.1456,-4.0709,-3.9854,-4.024,-4.08,-4.1092,-4.3817,-4.7201,-5.0643,-5.1345,-5.2061,-5.3836,-5.4476,-5.5011,0.0,0.0,0.0,0.0,0.0,0.0,0.0,0.0,0.0,0.0,0.0,-5.3203,-5.3203,-5.4818,-5.5735,-5.5758,-5.5735,-5.5554,-5.5237,-5.5237,-5.5237,-5.5237,-5.5566,-5.5522,-5.5136,-5.4074,-5.3311,-5.2786,-5.1691,-5.1133,-5.0952,-5.0952,-5.0844,-5.0712,-5.074,-5.0721,-5.0712,-5.0712,-5.0712,-5.0624,-5.0218,-4.9846,-4.9431,-4.9011,-4.8622,-4.8306,-4.8306,-4.8306,-4.8153,-4.7533,-4.7491,-4.7277,-4.585,-4.5597,-4.5494,-4.4776,-4.4615,-4.4615,-4.4615,-4.4615,-4.4615,-4.4615,-4.4615,-4.4615,-4.4615,-4.4615,-4.4615,-4.4615,-4.4615,-4.4615,-4.4615,-4.4615,-4.4615,-4.4615,-4.4615,-4.4615,-4.4615,-4.4615,-4.4615,-4.4615,-4.4615,-4.4615,-4.4615,-4.4615,-4.4615,-4.4615,-4.4615,-4.4615,-4.4615,-4.4615,-4.4615,-3.4798,-3.5349,-3.5775,-3.9774,-3.8123,-3.6509,-4.0325,-4.02,-3.9668,-4.1043,-4.2142,-4.3136,-4.4018,-4.6979,-4.9248,-4.9209,-5.1717,-5.3977,-5.4892,0.0,0.0,0.0,0.0,0.0,0.0,0.0,0.0,0.0,0.0,0.0,0.0,0.0,0.0,-5.3203,-5.4818,-5.575,-5.5891,-5.575,-5.5692,-5.5671,-5.5671,-5.5671,-5.5682,-5.5692,-5.5831,-5.5997,-5.4313,-5.3699,-5.375,-5.207,-5.1252,-5.1079,-5.1079,-5.0925,-5.0741,-5.0835,-5.0825,-5.0712,-5.0712,-5.0712,-5.0624,-5.0218,-4.9846,-4.9431,-4.9011,-4.8622,-4.8306,-4.8306,-4.8306,-4.8153,-4.7533,-4.7818,-4.7777,-4.5915,-4.5915,-4.6014,-4.4852,-4.4615,-4.4615,-4.4615,-4.4615,-4.4615,-4.4615,-4.4615,-4.4615,-4.4615,-4.4615,-4.4615,-4.4615,-4.4615,-4.4615,-4.4615,-4.4615,-4.4615,-4.4615,-4.4615,-4.4615,-4.4615,-4.4615,-4.4615,-4.4615,-4.4615,-4.4615,-4.4615,-4.4615,-4.4615,-4.4615,-4.4615,-4.4615,-4.4615,-4.4615,-4.4615,-3.2719,-3.41,-3.5628,-3.8212,-3.8432,-3.9129,-4.3167,-4.4061,-4.4385,-4.5491,-4.6224,-4.6657,-4.6732,-4.9749,-5.1902,-5.0974,-5.3172,-5.4943,0.0,0.0,0.0,0.0,0.0,0.0,0.0,0.0,0.0,0.0,0.0,0.0,0.0,0.0,0.0,-5.3203,-5.4901,-5.5831,-5.5915,-5.5971,-5.5932,-5.5825,-5.5748,-5.5703,-5.5703,-5.5703,-5.5599,-5.533,-5.4113,-5.3429,-5.3086,-5.1826,-5.1249,-5.1151,-5.1122,-5.1004,-5.0819,-5.0859,-5.0833,-5.0712,-5.0712,-5.0525,-5.0241,-4.9872,-4.946,-4.9043,-4.8658,-4.8421,-4.8306,-4.8306,-4.8306,-4.8248,-4.8035,-4.7838,-4.7449,-4.6353,-4.594,-4.5622,-4.4803,-4.4615,-4.4615,-4.4615,-4.4615,-4.4615,-4.4615,-4.4615,-4.4615,-4.4615,-4.4615,-4.4615,-4.4615,-4.4615,-4.4615,-4.4615,-4.4615,-4.4615,-4.4615,-4.4615,-4.4615,-4.4615,-4.4615,-4.4615,-4.4615,-4.4615,-4.4615,-4.4615,-4.4615,-4.4615,-4.4615,-4.4615,-4.4327,-4.3798,-4.4355,-4.4327,-3.2779,-3.4137,-3.5922,-3.8102,-3.9276,-4.1001,-4.5296,-4.6507,-4.7149,-4.8783,-4.8661,-4.834,-4.8534,-5.0598,-5.2224,-5.1971,-5.395,0.0,0.0,0.0,0.0,0.0,0.0,0.0,0.0,0.0,0.0,0.0,0.0,0.0,0.0,0.0,0.0,0.0,-5.4954,-5.5916,-5.5976,-5.6141,-5.6164,-5.6058,-5.5907,-5.5836,-5.576,-5.576,-5.5467,-5.4922,-5.4022,-5.3283,-5.2573,-5.1609,-5.1177,-5.1113,-5.1063,-5.0966,-5.0844,-5.0867,-5.0833,-5.0712,-5.0712,-5.0451,-5.0024,-4.9617,-4.9234,-4.883,-4.8421,-4.8306,-4.8306,-4.8306,-4.8306,-4.8306,-4.8306,-4.7995,-4.747,-4.66,-4.6088,-4.5622,-4.5008,-4.4748,-4.4615,-4.4615,-4.4615,-4.4615,-4.4615,-4.4615,-4.4615,-4.4615,-4.4615,-4.4615,-4.4615,-4.4615,-4.4615,-4.4615,-4.4615,-4.4615,-4.4615,-4.4615,-4.4615,-4.4615,-4.4615,-4.4468,-4.4179,-4.444,-4.4468,-4.4179,-4.444,-4.4615,-4.4615,-4.4615,-4.415,-4.329,-4.3919,-4.371,-3.6266,-3.6303,-3.7074,-4.0288,-4.0524,-4.1222,-4.6012,-4.6507,-4.6874,-5.0141,-4.8874,-4.7663,-4.9317,-4.9305,-4.969,-5.1692,-5.376,0.0,0.0,0.0,0.0,0.0,0.0,0.0,0.0,0.0,0.0,0.0,0.0,0.0,0.0,0.0,0.0,0.0,-5.4954,-5.5984,-5.6191,-5.6197,-5.626,-5.6389,-5.6256,-5.611,-5.5885,-5.5885,-5.5617,-5.502,-5.4159,-5.3306,-5.2416,-5.1555,-5.1096,-5.0889,-5.0889,-5.0803,-5.0702,-5.0851,-5.0833,-5.0712,-5.0712,-5.0451,-5.0012,-4.9617,-4.9234,-4.883,-4.8421,-4.8306,-4.8306,-4.8306,-4.8306,-4.8306,-4.8287,-4.8287,-4.7959,-4.6692,-4.6389,-4.6233,-4.5622,-4.5008,-4.4615,-4.4615,-4.4615,-4.4615,-4.4615,-4.4615,-4.4615,-4.4615,-4.4615,-4.4615,-4.4615,-4.4615,-4.4615,-4.4615,-4.4615,-4.4615,-4.4615,-4.4615,-4.4615,-4.4615,-4.4615,-4.4179,-4.3353,-4.4121,-4.4179,-4.3323,-4.415,-4.4615,-4.4615,-4.4615,-4.4121,-4.3292,-4.3292,-4.28,-3.2999,-3.5349,-3.8212,-3.9166,-4.2653,-4.6324,-4.8343,-4.86,-4.9187,-5.194,-5.1883,-5.125,-5.0861,-5.1676,0.0,-5.1992,0.0,0.0,0.0,0.0,0.0,0.0,0.0,0.0,0.0,0.0,0.0,0.0,0.0,0.0,0.0,0.0,0.0,0.0,-5.511,-5.6146,-5.6191,-5.6386,-5.6456,-5.6389,-5.6368,-5.626,-5.6122,-5.6122,-5.5405,-5.4159,-5.3826,-5.2863,-5.155,-5.1257,-5.1047,-5.0903,-5.0984,-5.0972,-5.0844,-5.0905,-5.0833,-5.0712,-5.0712,-5.023,-4.9645,-4.9532,-4.9027,-4.8458,-4.8344,-4.8306,-4.8306,-4.8306,-4.8306,-4.8209,-4.7777,-4.7674,-4.7449,-4.6577,-4.6088,-4.5597,-4.5015,-4.472,-4.4615,-4.4615,-4.4615,-4.4615,-4.4615,-4.4615,-4.4615,-4.4615,-4.4615,-4.4615,-4.4615,-4.4615,-4.4615,-4.4615,-4.4615,-4.4615,-4.4615,-4.4615,-4.4615,-4.4615,-4.4035,-4.3562,-4.329,-4.3562,-4.3562,-4.3323,-4.3562,-4.3977,-4.4615,-4.3977,-4.3229,-4.2395,-4.2395,-4.1917,-3.5973,-3.8579,-4.1405,-4.269,-4.5443,-4.836,-5.0508,-5.0986,-5.1389,-5.2894,-5.2711,-5.2095,-5.1673,-5.2139,0.0,0.0,0.0,0.0,0.0,0.0,0.0,0.0,0.0,0.0,0.0,0.0,0.0,0.0,0.0,0.0,0.0,0.0,0.0,0.0,-5.5324,-5.6191,-5.6191,-5.646,-5.656,-5.6465,-5.6465,-5.6448,-5.6368,-5.6289,-5.5386,-5.3842,-5.2995,-5.2042,-5.1083,-5.0978,-5.0882,-5.0819,-5.0903,-5.0874,-5.0803,-5.0803,-5.0756,-5.0712,-5.0712,-5.0171,-4.9489,-4.9489,-4.8965,-4.8306,-4.8306,-4.8306,-4.8306,-4.8306,-4.8114,-4.7858,-4.7491,-4.7021,-4.6612,-4.6436,-4.594,-4.5399,-4.5035,-4.4776,-4.4615,-4.4615,-4.4615,-4.4615,-4.4615,-4.4615,-4.4615,-4.4615,-4.4615,-4.4615,-4.4615,-4.4615,-4.4615,-4.4615,-4.4615,-4.4615,-4.4615,-4.4298,-4.4241,-4.4587,-4.3472,-4.2769,-4.2769,-4.2769,-4.2614,-4.2269,-4.2614,-4.3199,-4.4064,-4.3199,-4.252,-4.1981,-4.1626,-4.1028,-4.1956,-4.3644,-4.5369,-4.8563,-4.8526,-4.8617,-5.2323,-5.3203,-5.3203,-5.3203,-5.1977,-5.1132,-5.1867,-5.1353,0.0,0.0,0.0,0.0,0.0,0.0,0.0,0.0,0.0,0.0,0.0,0.0,0.0,0.0,0.0,0.0,0.0,0.0,0.0,0.0,-5.5535,-5.6181,-5.6191,-5.6456,-5.6601,0.0,-5.6601,-5.6601,-5.6601,-5.6383,-5.5407,-5.3747,-5.1877,-5.1029,-5.089,-5.0767,-5.0712,-5.0712,-5.0712,-5.0712,-5.0712,-5.0712,-5.0712,-5.0712,-5.0712,-5.0171,-4.9489,-4.9489,-4.8965,-4.8306,-4.8306,-4.8306,-4.8306,-4.8306,-4.7858,-4.7406,-4.7406,-4.6448,-4.5648,-4.6209,-4.584,-4.5425,-4.5425,-4.5015,-4.4615,-4.4615,-4.4615,-4.4615,-4.4615,-4.4615,-4.4615,-4.4615,-4.4615,-4.4615,-4.4615,-4.4615,-4.4615,-4.4615,-4.4615,-4.4615,-4.4615,-4.3798,-4.3621,-4.4412,-4.2923,-4.1949,-4.1885,-4.1885,-4.1495,-4.0724,-4.1462,-4.2363,-4.3323,-4.2363,-4.1917,-4.1949,-4.1028,-4.0135,-3.6839,-4.023,-4.4378,-4.6985,-4.9791,-5.2103,-5.2983,-5.3203,-5.3203,-5.3203,-5.2417,-5.1793,-5.1977,0.0,0.0,0.0,0.0,0.0,0.0,0.0,0.0,0.0,0.0,0.0,0.0,0.0,0.0,0.0,0.0,0.0,0.0,0.0,0.0,0.0,0.0,-5.6019,-5.6191,-5.6368,-5.6508,0.0,-5.6601,-5.6601,-5.6562,-5.5858,-5.4507,-5.261,-5.1429,-5.0883,-5.0749,-5.0693,-5.0712,-5.0712,-5.0712,-5.0712,-5.0712,-5.0712,-5.0712,-5.0712,-5.0712,-5.0171,-4.9489,-4.9489,-4.8965,-4.8306,-4.8306,-4.8306,-4.8306,-4.8306,-4.7858,-4.7406,-4.7406,-4.6448,-4.552,-4.5673,-4.5214,-4.4803,-4.4803,-4.4692,-4.4615,-4.4615,-4.4615,-4.4615,-4.4615,-4.4615,-4.4615,-4.4615,-4.4615,-4.4615,-4.4615,-4.4615,-4.4615,-4.4615,-4.4615,-4.4615,-4.4615,-4.3798,-4.3383,-4.3562,-4.2583,-4.1691,-4.1028,-4.0995,-4.0894,-4.0724,-4.0894,-4.1723,-4.3323,-4.1723,-4.133,-4.1949,-4.0413,-3.9589,-3.8248,-4.1515,-4.4856,-4.8086,-5.1039,-5.3203,-5.3203,-5.3203,-5.3115,-5.2711,-5.227,-5.1756,0.0,0.0,0.0,0.0,0.0,0.0,0.0,0.0,0.0,0.0,0.0,0.0,0.0,0.0,0.0,0.0,0.0,0.0,0.0,0.0,0.0,0.0,-5.5379,-5.6022,-5.6191,-5.626,-5.6394,-5.6601,-5.6518,-5.6088,-5.5351,-5.4839,-5.374,-5.2261,-5.1321,-5.0811,-5.0712,-5.0712,-5.0712,-5.0712,-5.0712,-5.0712,-5.0712,-5.0712,-5.0712,-5.0712,-5.0712,-5.0171,-4.9489,-4.9489,-4.8965,-4.8306,-4.8306,-4.8306,-4.8306,-4.8306,-4.7617,-4.6999,-4.732,-4.6233,-4.5142,-4.5451,-4.5316,-4.5128,-4.5128,-4.5128,-4.5128,-4.5128,-4.4852,-4.4615,-4.4615,-4.4615,-4.4615,-4.4615,-4.4615,-4.4615,-4.4615,-4.4615,-4.4615,-4.4615,-4.4615,-4.4615,-4.4615,-4.341,-4.3047,-4.3889,-4.23,-4.1528,-4.1917,-4.1131,-4.0485,-4.0095,-4.0095,-4.0724,-4.2045,-4.0724,-4.055,-4.133,-4.0025,-3.9373,-3.9974,-4.313,-4.57,-4.9774,-5.2013,-5.3203,-5.3203,-5.3203,-5.2968,-5.216,-5.1867,0.0,0.0,0.0,0.0,0.0,0.0,0.0,0.0,0.0,0.0,0.0,0.0,0.0,0.0,0.0,0.0,0.0,0.0,0.0,0.0,0.0,-5.3972,-5.5241,-5.5643,-5.5893,-5.5919,-5.6075,-5.6277,-5.6517,-5.645,-5.5558,-5.3944,-5.3842,-5.3195,-5.2067,-5.1244,-5.0811,-5.0712,-5.0712,-5.0712,-5.0712,-5.0712,-5.0712,-5.0712,-5.0712,-5.0712,-5.0712,-5.0712,-5.0171,-4.9489,-4.9489,-4.8965,-4.8306,-4.8306,-4.8306,-4.8306,-4.8306,-4.737,-4.653,-4.7234,-4.6024,-4.4748,-4.5372,-4.5692,-4.5872,-4.5737,-4.5703,-4.5703,-4.5703,-4.5094,-4.4615,-4.4615,-4.4615,-4.4615,-4.4615,-4.4615,-4.4615,-4.4615,-4.4615,-4.4615,-4.4615,-4.4615,-4.4615,-4.4615,-4.2984,-4.2676,-4.4298,-4.2205,-4.156,-4.3017,-4.1691,-4.0485,-3.9631,-3.9481,-3.9844,-4.069,-3.9844,-3.9879,-4.069,-3.9809,-3.9373,-3.3793,-3.9261,-4.57,-4.9774,-5.2013,-5.3203,-5.3203,-5.3203,-5.2968,0.0,0.0,0.0,0.0,0.0,0.0,0.0,0.0,0.0,0.0,0.0,0.0,0.0,0.0,0.0,0.0,0.0,0.0,0.0,0.0,0.0,0.0,-5.351,-5.4087,-5.3549,-5.4975,-5.547,-5.4931,-5.5583,-5.6032,-5.6246,-5.6361,-5.5499,-5.3832,-5.3826,-5.288,-5.124,-5.1011,-5.0811,-5.0712,-5.0712,-5.0712,-5.0712,-5.0712,-5.0712,-5.0712,-5.0712,-5.0712,-5.0712,-5.0712,-5.0171,-4.9489,-4.9489,-4.8965,-4.8306,-4.8306,-4.8306,-4.8306,-4.8306,-4.737,-4.653,-4.7234,-4.6024,-4.4748,-4.5372,-4.6103,-4.6481,-4.5838,-4.5703,-4.5703,-4.5703,-4.5094,-4.4615,-4.4615,-4.4615,-4.4615,-4.4615,-4.4615,-4.4615,-4.4615,-4.4615,-4.4615,-4.4615,-4.4615,-4.4615,-4.4615,-4.2984,-4.2426,-4.3413,-4.2458,-4.1917,-4.2141,-4.1949,-4.1396,-4.0519,-3.9773,-3.9844,-4.069,-3.9844,-3.9879,-4.069,-3.9809,-3.9373,-3.4798,-4.0267,-4.57,-4.9774,-5.1683,-5.2637,-5.3093,-5.3203,-5.2858,-5.1573,0.0,0.0,0.0,0.0,0.0,0.0,0.0,0.0,0.0,0.0,0.0,0.0,0.0,0.0,0.0,0.0,0.0,0.0,0.0,0.0,-5.3318,-5.3626,-5.3818,-5.3933,-5.4164,-5.4179,-5.3964,-5.4259,-5.4697,-5.5365,-5.5483,-5.4943,-5.3774,-5.3228,-5.2246,-5.0966,-5.0925,-5.0811,-5.075,-5.1202,-5.1125,-5.075,-5.1202,-5.1087,-5.0712,-5.0712,-5.0712,-5.0712,-5.0712,-5.0325,-4.9819,-4.9561,-4.9108,-4.8604,-4.8382,-4.8306,-4.8248,-4.7879,-4.7731,-4.7595,-4.7428,-4.6862,-4.6281,-4.6045,-4.6672,-4.7107,-4.6467,-4.6312,-4.6075,-4.5229,-4.5162,-4.5094,-4.4682,-4.4925,-4.506,-4.4682,-4.4615,-4.4445,-4.3978,-4.3944,-4.3944,-4.3944,-4.3944,-4.4113,-4.4581,-4.3439,-4.2894,-4.3259,-4.2489,-4.2237,-4.2707,-4.1788,-4.1297,-4.1429,-4.0095,-3.9559,-3.9955,-3.9589,-3.9625,-3.9955,-3.9589,-3.9373,-3.5165,-3.9496,-4.313,-4.8012,-5.0178,-5.1389,-5.2601,-5.3078,-5.2858,0.0,0.0,0.0,0.0,0.0,0.0,0.0,0.0,0.0,0.0,0.0,0.0,0.0,0.0,0.0,0.0,0.0,0.0,0.0,0.0,0.0,-5.378,-5.3433,-5.3395,-5.3818,-5.3433,-5.3148,-5.3025,-5.334,-5.3918,-5.47,-5.5079,-5.467,-5.3666,-5.2987,-5.2014,-5.0851,-5.0905,-5.0927,-5.1048,-5.1654,-5.1548,-5.1048,-5.1654,-5.1395,-5.0712,-5.0712,-5.0712,-5.0712,-5.0712,-5.0451,-5.0037,-4.9728,-4.9311,-4.8847,-4.8532,-4.8364,-4.8265,-4.8011,-4.8272,-4.8547,-4.8336,-4.7999,-4.7594,-4.7121,-4.7385,-4.7534,-4.6927,-4.6786,-4.6346,-4.4886,-4.5196,-4.5466,-4.475,-4.5196,-4.5466,-4.4716,-4.4445,-4.4079,-4.3477,-4.3375,-4.3308,-4.3166,-4.3274,-4.3639,-4.4215,-4.3326,-4.2815,-4.3026,-4.2204,-4.1981,-4.2694,-4.14,-4.1028,-4.1658,-4.02,-3.9373,-3.9373,-3.9373,-3.9373,-3.9373,-3.9373,-3.9373,-3.1555,-3.3623,-3.6083,-4.324,-4.6764,-4.9114,-5.1499,0.0,-5.3167,0.0,0.0,0.0,0.0,0.0,0.0,0.0,0.0,0.0,0.0,0.0,0.0,0.0,0.0,0.0,0.0,0.0,0.0,0.0,0.0,0.0,-5.2038,-5.2779,-5.2856,-5.2038,-5.2779,-5.2818,-5.1982,-5.3598,-5.4535,-5.47,-5.5656,-5.5196,-5.3427,-5.3627,-5.2606,-5.0702,-5.0844,-5.1266,-5.1846,-5.1885,-5.1885,-5.1846,-5.1885,-5.1395,-5.0712,-5.0712,-5.0712,-5.0712,-5.0712,-5.0451,-5.0111,-5.0087,-4.9547,-4.8915,-4.8898,-4.8604,-4.8489,-4.9277,-4.904,-4.8887,-5.0252,-4.9175,-4.7877,-4.8526,-4.8181,-4.7534,-4.6927,-4.6786,-4.6346,-4.4886,-4.5196,-4.5466,-4.475,-4.5196,-4.5466,-4.4716,-4.3944,-4.3443,-4.3409,-4.3375,-4.3132,-4.2422,-4.2997,-4.3409,-4.3443,-4.1939,-4.1394,-4.2294,-4.1342,-4.0882,-4.1084,-4.0852,-4.0724,-4.0758,-3.9879,-3.9373,-3.9373,-3.9373,-3.9373,-3.9373,-3.9373,-3.9373,-3.0944,-3.2779,-3.5055,-4.0304,-4.3828,-4.6617,-4.9077,-5.1096,-5.2417,0.0,0.0,0.0,0.0,0.0,0.0,0.0,0.0,0.0,0.0,0.0,0.0,0.0,0.0,0.0,0.0,0.0,0.0,0.0,0.0,0.0,-5.2692,-5.25,-5.2231,-5.1923,-5.2192,-5.2462,-5.2731,-5.3454,-5.4078,-5.4583,-5.5017,-5.4604,-5.3367,-5.2848,-5.1951,-5.085,-5.1322,-5.1664,-5.1923,-5.25,-5.2385,-5.1962,-5.25,-5.1895,-5.0712,-5.0712,-5.0712,-5.0712,-5.0712,-5.0604,-5.0451,-5.0183,-5.0093,-5.0006,-4.9728,-4.9788,-4.9878,-4.9768,-5.0226,-5.0675,-5.0271,-5.0315,-5.029,-4.9657,-4.8986,-4.8286,-4.7674,-4.753,-4.7225,-4.621,-4.6616,-4.6752,-4.55,-4.5534,-4.5263,-4.4012,-4.32,-4.2692,-4.2692,-4.2692,-4.276,-4.2997,-4.2828,-4.2895,-4.3341,-4.2377,-4.1439,-4.0802,-4.0323,-4.0082,-4.016,-3.9545,-3.9677,-4.069,-3.9814,-3.9373,-3.9373,-3.9373,-3.9373,-3.9373,-3.9373,-3.9373,-2.9329,-3.076,-3.2816,-3.7184,-3.9942,-4.277,-4.726,-4.9565,-5.1045,0.0,0.0,0.0,0.0,0.0,0.0,0.0,0.0,0.0,0.0,0.0,0.0,0.0,0.0,0.0,0.0,0.0,0.0,0.0,0.0,0.0,-5.2308,-5.1818,-5.151,-5.151,-5.1769,-5.2192,-5.2779,-5.3464,-5.4078,-5.4574,-5.501,-5.4721,-5.3786,-5.2833,-5.1987,-5.1275,-5.1693,-5.2077,-5.2385,-5.328,-5.3126,-5.2395,-5.3022,-5.2204,-5.0721,-5.0767,-5.074,-5.0712,-5.0712,-5.0712,-5.0721,-5.0714,-5.0684,-5.0711,-5.0745,-5.0787,-5.0758,-5.0605,-5.1228,-5.1841,-5.1129,-5.1501,-5.1659,-5.025,-4.9581,-4.9108,-4.8391,-4.8075,-4.7699,-4.6921,-4.7192,-4.7158,-4.5906,-4.5703,-4.5263,-4.4012,-4.3166,-4.2658,-4.2658,-4.2658,-4.276,-4.2997,-4.2828,-4.276,-4.3031,-4.2245,-4.1121,-3.9642,-3.9369,-3.914,-3.8925,-3.859,-3.9008,-4.0239,-3.9702,-3.9373,-3.9373,-3.9373,-3.9373,-3.9373,-3.9373,-3.9373,0.0,0.0,0.0,-3.3573,-3.5,-3.7502,-4.5956,0.0,-4.8911,0.0,0.0,0.0,0.0,0.0,0.0,0.0,0.0,0.0,0.0,0.0,0.0,0.0,0.0,0.0,0.0,0.0,0.0,0.0,0.0,-5.0279,-5.0644,-5.0702,-5.0712,-5.075,-5.151,-5.1923,-5.1962,-5.3782,-5.47,-5.4739,-5.5734,-5.5689,-5.4661,-5.3809,-5.2876,-5.1943,-5.1982,-5.2453,-5.33,-5.4147,-5.4021,-5.3282,-5.3404,-5.2357,-5.0798,-5.0937,-5.088,-5.0798,-5.0789,-5.0789,-5.0894,-5.1692,-5.1407,-5.0907,-5.1767,-5.1501,-5.1022,-5.183,-5.2013,-5.2197,-5.3004,-5.268,-5.1754,-5.0317,-5.0002,-4.9867,-4.9199,-4.8443,-4.7733,-4.6989,-4.6853,-4.6583,-4.5872,-4.5703,-4.5432,-4.4682,-4.3876,-4.3375,-4.3375,-4.3375,-4.3132,-4.2422,-4.3031,-4.3166,-4.2388,-4.1452,-4.0351,-3.9001,-3.8596,-3.8093,-3.7464,-3.8033,-3.8691,-3.9373,-3.9373,-3.9373,-3.9373,-3.9373,-3.9373,-3.9373,-3.9373,-3.9373,-2.6759,0.0,0.0,0.0,0.0,0.0,0.0,0.0,0.0,0.0,0.0,0.0,0.0,0.0,0.0,0.0,0.0,0.0,0.0,0.0,0.0,0.0,0.0,0.0,0.0,0.0,0.0,0.0,-4.9617,-4.9859,-5.023,-5.0525,-5.0971,-5.1548,-5.1769,-5.25,-5.378,-5.4505,-5.51,-5.5575,-5.6,-5.5689,-5.47,-5.4467,-5.3855,-5.3033,-5.3758,-5.4207,-5.4427,-5.4591,-5.4486,-5.4318,-5.444,-5.3778,-5.2809,-5.2715,-5.2686,-5.2652,-5.2541,-5.251,-5.2549,-5.2779,-5.2692,-5.2567,-5.2793,-5.2696,-5.2601,-5.2821,-5.2858,-5.2931,-5.313,-5.306,-5.2652,-5.1706,-5.115,-5.0608,-4.9896,-4.9176,-4.8646,-4.8443,-4.797,-4.7361,-4.6616,-4.5602,-4.4621,-4.3842,-4.3098,-4.2794,-4.3308,-4.3375,-4.3538,-4.3938,-4.4147,-4.3944,-4.3166,-4.2234,-4.1117,-3.9708,-3.8411,-3.7823,-3.8093,-3.7853,-3.8242,-3.9409,-3.9373,-3.9373,-3.9373,-3.9373,-3.9373,-3.9373,-3.9373,-3.9373,-2.7813,-2.7714,-2.775,-2.7467,0.0,0.0,-3.6187,-3.8496,0.0,0.0,0.0,0.0,0.0,0.0,0.0,0.0,0.0,0.0,0.0,0.0,0.0,0.0,0.0,0.0,0.0,0.0,0.0,0.0,-4.9371,-4.9765,-5.0325,-5.0584,-5.0894,-5.1395,-5.2087,-5.2945,-5.4023,-5.4984,-5.5675,-5.6113,-5.6181,-5.5908,-5.538,-5.4929,-5.4435,-5.4052,-5.4647,-5.4918,-5.4913,-5.528,-5.5151,-5.4796,-5.4942,-5.4416,-5.3589,-5.3494,-5.3448,-5.3391,-5.3263,-5.3203,-5.328,-5.3626,-5.3593,-5.3474,-5.3685,-5.3623,-5.344,-5.3251,-5.3203,-5.3203,-5.3203,-5.3203,-5.3002,-5.2289,-5.179,-5.1241,-5.0195,-4.9693,-4.9346,-4.9046,-4.8173,-4.7293,-4.6853,-4.5596,-4.4445,-4.3978,-4.3538,-4.3403,-4.3842,-4.391,-4.4215,-4.4959,-4.506,-4.4722,-4.3978,-4.3017,-4.1725,-4.0028,-3.8596,-3.7973,-3.8362,-3.8033,-3.8332,-3.9409,-3.9373,-3.9373,-3.9373,-3.9373,-3.9373,-3.9373,-3.9373,-3.9559,-2.9462,-2.8691,-2.8504,-2.9524,-2.8703,0.0,-3.8053,-4.0169,-4.2317,0.0,0.0,0.0,0.0,0.0,0.0,0.0,0.0,0.0,0.0,0.0,0.0,0.0,0.0,0.0,0.0,0.0,-4.8622,-4.9371,-4.9504,-4.9898,-5.0644,-5.0712,-5.0721,-5.0712,-5.2367,-5.3299,-5.3412,-5.5291,-5.6269,-5.6389,-5.6269,-5.6273,-5.6386,-5.5369,-5.4964,-5.5054,-5.5069,-5.5078,-5.516,-5.6065,-5.589,-5.5064,-5.5201,-5.4726,-5.3914,-5.3925,-5.3829,-5.37,-5.3532,-5.3492,-5.3626,-5.4395,-5.4276,-5.3944,-5.4367,-5.4135,-5.3644,-5.3314,-5.3203,-5.3203,-5.3203,-5.3203,-5.3002,-5.2381,-5.2159,-5.1765,-5.05,-5.0118,-4.9804,-4.9226,-4.7861,-4.6786,-4.6786,-4.5596,-4.4615,-4.4615,-4.4615,-4.4615,-4.4615,-4.4682,-4.4959,-4.5635,-4.5872,-4.5607,-4.4744,-4.3837,-4.243,-4.0226,-3.9112,-3.8512,-3.8512,-3.8422,-3.8721,-3.9373,-3.9373,-3.9373,-3.9373,-3.9373,-3.9373,-3.9373,-3.9373,-3.9738,-3.1073,-3.0516,-3.0496,-2.7937,-2.879,0.0,-2.9265,-3.0349,-3.2763,0.0,0.0,0.0,0.0,0.0,0.0,0.0,0.0,0.0,0.0,0.0,0.0,0.0,0.0,0.0,0.0,0.0,-4.8514,-4.8978,-4.9617,-5.0183,-5.0654,-5.0712,-5.0758,-5.0867,-5.25,-5.3412,-5.3541,-5.5424,-5.6374,-5.6389,-5.6374,-5.6374,-5.6389,-5.6163,-5.6078,-5.6098,-5.6229,-5.6281,-5.6281,-5.6481,-5.6387,-5.6104,-5.6239,-5.6207,-5.6006,-5.5884,-5.5758,-5.5623,-5.5428,-5.5306,-5.5241,-5.5395,-5.497,-5.439,-5.4462,-5.3943,-5.3314,-5.3209,-5.3203,-5.3203,-5.3203,-5.3203,-5.3146,-5.3039,-5.2531,-5.2042,-5.1741,-5.0823,-4.9947,-4.9804,-4.8177,-4.6786,-4.6786,-4.5596,-4.4615,-4.4615,-4.4615,-4.4615,-4.4615,-4.5128,-4.5534,-4.5703,-4.6786,-4.6888,-4.5381,-4.4951,-4.379,-4.1492,-3.9985,-3.92,-3.92,-3.8691,-3.8721,-3.9373,-3.9373,-3.9373,-3.9373,-3.9373,-3.9373,-3.9373,-3.9373,-3.9463,-3.389,-3.2664,-3.2124,-3.0574,-3.0586,0.0,0.0,-3.2264,-3.3968,0.0,0.0,0.0,0.0,0.0,0.0,0.0,0.0,0.0,0.0,0.0,0.0,0.0,0.0,0.0,0.0,0.0,-4.8864,-4.946,-5.0049,-5.0483,-5.0702,-5.0747,-5.1021,-5.1477,-5.2809,-5.3786,-5.4344,-5.5711,-5.6445,-5.651,-5.6445,-5.6448,-5.6508,-5.6445,-5.6448,-5.651,-5.6561,-5.6601,-5.6601,-5.6601,-5.656,-5.6511,-5.6562,-5.6601,-5.6562,-5.6377,-5.6251,-5.6158,-5.5874,-5.574,-5.5703,-5.5703,-5.5275,-5.476,-5.4547,-5.387,-5.3203,-5.3203,-5.3203,-5.3203,-5.3203,-5.3203,-5.3203,-5.3203,-5.2915,-5.2554,-5.2183,-5.1544,-5.085,-5.0146,-4.8822,-4.7626,-4.6941,-4.5596,-4.4615,-4.4615,-4.4891,-4.5128,-4.5128,-4.5771,-4.638,-4.6786,-4.7432,-4.7551,-4.6717,-4.5766,-4.4405,-4.2532,-4.0802,-3.9768,-3.9403,-3.908,-3.908,-3.9373,-3.9373,-3.9373,-3.9373,-3.9373,-3.9373,-3.9373,-3.9373,-3.9768,-3.6836,-3.5109,-3.4292,-3.3979,-3.3059,-3.2889,0.0,0.0,0.0,0.0,0.0,0.0,0.0,0.0,0.0,0.0,0.0,0.0,0.0,0.0,0.0,0.0,0.0,0.0,0.0,0.0,-4.8332,-4.9998,-4.9552,-4.9673,-5.0635,-5.0819,-5.1259,-5.2122,-5.3091,-5.411,-5.5127,-5.5981,-5.6507,-5.6601,-5.6507,-5.6508,-5.6601,-5.6506,-5.6508,-5.6601,-5.6601,-5.6601,-5.6601,-5.6601,-5.6601,-5.6601,-5.6601,-5.6601,-5.6562,-5.6368,-5.6237,-5.6158,-5.5887,-5.5758,-5.5703,-5.5703,-5.5387,-5.4905,-5.4484,-5.3833,-5.3203,-5.3203,-5.3203,-5.3203,-5.3203,-5.3203,-5.3203,-5.3203,-5.3203,-5.306,-5.2427,-5.2183,-5.1716,-5.0445,-4.9521,-4.8424,-4.7034,-4.5669,-4.4818,-4.4818,-4.5331,-4.5771,-4.5906,-4.6549,-4.7259,-4.7838,-4.8007,-4.7953,-4.7611,-4.6223,-4.4631,-4.2891,-4.1428,-4.0247,-3.9403,-3.9373,-3.9373,-3.9373,-3.9373,-3.9373,-3.9373,-3.9373,-3.9373,-3.9373,-3.9373,-4.0068,-3.886,-3.7909,-3.8131,-3.5028,-3.5677,-3.6074,-3.2162,0.0,-3.2279,-2.9777,0.0,0.0,0.0,0.0,0.0,0.0,0.0,0.0,0.0,0.0,0.0,0.0,0.0,0.0,0.0,0.0,0.0,-4.9756,-4.6282,-4.5932,-5.0481,-5.0819,-5.1321,-5.2241,-5.326,-5.4268,-5.5273,-5.6132,-5.6562,-5.6601,-5.6562,-5.6601,-5.6601,-5.6562,-5.6601,-5.6601,-5.6601,-5.6601,-5.6601,-5.6601,-5.6601,-5.6601,-5.6601,-5.6601,-5.6601,-5.6561,-5.6394,-5.6186,-5.6152,-5.5962,-5.5703,-5.5703,-5.5186,-5.4468,-5.4013,-5.3546,-5.3203,-5.3203,-5.3203,-5.3203,-5.3203,-5.3203,-5.3203,-5.3203,-5.3203,-5.3203,-5.3103,-5.2554,-5.1898,-5.1112,-4.9843,-4.8424,-4.7034,-4.6109,-4.5568,-4.5568,-4.5669,-4.594,-4.6583,-4.7327,-4.7804,-4.7872,-4.8477,-4.8221,-4.653,-4.6185,-4.48,-4.1782,-4.1415,-4.0726,-3.9433,-3.9373,-3.9373,-3.9373,-3.9373,-3.9373,-3.9373,-3.9373,-3.9373,-3.9373,-3.9373,-3.9798,-4.0166,-4.0103,-4.0588,-3.7217,-3.7328,-3.7307,-3.3714,-3.2306,-3.1447,0.0,0.0,0.0,0.0,0.0,0.0,0.0,0.0,0.0,0.0,0.0,0.0,0.0,0.0,0.0,0.0,0.0,0.0,0.0,0.0,-4.5316,-5.0442,-5.0889,-5.1658,-5.3011,-5.3628,-5.4605,-5.6055,-5.6406,-5.6601,-5.6601,-5.6601,-5.6601,-5.6601,-5.6601,-5.6601,-5.6601,-5.6601,-5.6601,-5.6601,-5.6601,-5.6601,-5.6601,-5.6601,-5.6601,-5.6601,-5.6512,-5.6397,-5.6281,-5.6077,-5.5939,-5.5769,-5.5443,-5.4985,-5.4404,-5.3941,-5.3543,-5.3203,-5.3203,-5.3203,-5.3203,-5.3203,-5.3203,-5.3203,-5.3203,-5.3203,-5.3203,-5.3203,-5.2959,-5.2381,-5.1292,-5.0594,-4.9582,-4.7738,-4.6819,-4.6346,-4.6346,-4.6718,-4.709,-4.7394,-4.8105,-4.8545,-4.8545,-4.8815,-4.8482,-4.7138,-4.6523,-4.5227,-4.2941,-4.1942,-4.0965,-4.0038,-3.9978,-3.9798,-3.9403,-3.9373,-3.9373,-3.9373,-3.9373,-3.9373,-3.9373,-3.9373,-3.9768,-4.1924,-4.1953,-4.2041,-3.8023,-3.7347,-3.6982,0.0,0.0,-3.1784,0.0,0.0,0.0,0.0,0.0,0.0,0.0,0.0,0.0,0.0,0.0,0.0,0.0,0.0,0.0,0.0,0.0,0.0,0.0,0.0,0.0,-5.0366,-5.0966,-5.1877,-5.356,-5.3844,-5.4844,-5.6562,-5.6601,-5.6601,-5.6601,-5.6601,-5.6601,-5.6601,-5.6601,-5.6601,-5.6601,-5.6601,-5.6601,-5.6601,-5.6601,-5.6601,-5.6601,-5.6601,-5.6601,-5.6601,-5.6507,-5.6445,-5.6371,-5.6077,-5.5932,-5.5768,-5.5408,-5.4905,-5.442,-5.4101,-5.3624,-5.3203,-5.3203,-5.3203,-5.3203,-5.3203,-5.3203,-5.3203,-5.3203,-5.3203,-5.3203,-5.3203,-5.3203,-5.2769,-5.1368,-5.1086,-5.046,-4.8545,-4.7597,-4.709,-4.709,-4.7564,-4.7973,-4.8206,-4.868,-4.9018,-4.9018,-4.9018,-4.8513,-4.7306,-4.6592,-4.5389,-4.3562,-4.2168,-4.1175,-4.0696,-4.0666,-4.0367,-3.9709,-3.9679,-3.9553,-3.9373,-3.9373,-3.9373,-3.9373,-3.9373,-3.9768,0.0,0.0,0.0,-3.6288,0.0,0.0,0.0,0.0,-3.278,0.0,0.0,0.0,0.0,0.0,0.0,0.0,0.0,0.0,0.0,0.0,0.0,0.0,0.0,0.0,0.0,0.0,0.0,0.0,0.0,0.0,-5.0173,-5.0966,-5.1877,-5.356,-5.3844,-5.4844,-5.6562,-5.6601,-5.6601,-5.6601,-5.6601,-5.6601,-5.6601,-5.6601,-5.6601,-5.6601,-5.6601,-5.6601,-5.6601,-5.6601,-5.6601,-5.6601,-5.6601,-5.6601,-5.6601,-5.6601,-5.6512,-5.638,-5.6232,-5.5963,-5.5714,-5.5703,-5.5147,-5.4484,-5.4468,-5.3907,-5.3203,-5.3203,-5.3203,-5.3203,-5.3203,-5.3203,-5.3203,-5.3203,-5.3203,-5.3203,-5.3203,-5.3203,-5.2769,-5.1368,-5.1086,-5.0635,-4.9192,-4.8376,-4.7838,-4.7838,-4.7872,-4.8173,-4.8883,-4.8984,-4.9018,-4.9018,-4.9018,-4.8257,-4.6384,-4.6208,-4.5137,-4.2604,-4.1782,-4.1422,-4.1354,-4.1392,-4.1025,-4.0367,-4.0367,-4.0068,-3.9373,-3.9373,-3.9373,-3.9373,-3.9373,-3.9768,0.0,0.0,-4.7182,-4.0517,0.0,0.0,0.0,0.0,0.0,0.0,0.0,0.0,0.0,0.0,0.0,0.0,0.0,0.0,0.0,0.0,0.0,0.0,0.0,0.0,0.0,0.0,0.0,0.0,0.0,0.0,0.0,-5.0966,-5.1877,-5.356,-5.3844,-5.4844,-5.6562,-5.6601,-5.6601,-5.6601,-5.6601,-5.6601,-5.6601,-5.6601,-5.6601,-5.6601,-5.6511,-5.646,-5.646,-5.646,-5.646,-5.6463,-5.6561,-5.6601,-5.6601,-5.6601,-5.6561,-5.651,-5.6269,-5.5963,-5.5703,-5.5703,-5.516,-5.4484,-5.4484,-5.387,-5.3203,-5.3203,-5.3203,-5.3203,-5.3203,-5.3203,-5.3203,-5.3203,-5.3203,-5.3203,-5.3203,-5.3203,-5.2769,-5.1368,-5.1086,-5.0635,-4.9226,-4.8815,-4.8646,-4.8646,-4.8646,-4.8714,-4.8984,-4.9018,-4.9018,-4.9018,-4.9018,-4.8482,-4.7239,-4.5992,-4.4613,-4.3079,-4.2791,-4.2491,-4.2081,-4.2081,-4.1542,-4.0427,-4.0397,-4.0068,-3.9373,-3.9373,-3.9373,-3.9373,-3.9373,-3.9493,-4.9151,-4.9771,0.0,-4.3152,-4.1849,0.0,-3.5169,0.0,-3.5529,0.0,0.0,0.0,0.0,0.0,0.0,0.0,0.0,0.0,0.0,0.0,0.0,0.0,0.0,0.0,0.0,0.0,0.0,0.0,0.0,0.0,0.0,0.0,-5.1691,-5.3151,-5.368,-5.4646,-5.6133,-5.6445,-5.6601,-5.6601,-5.6601,-5.6601,-5.6601,-5.6559,-5.6517,-5.6515,-5.6383,-5.6344,-5.6344,-5.6344,-5.6365,-5.6394,-5.6508,-5.656,-5.6601,-5.6601,-5.6558,-5.6448,-5.6251,-5.5963,-5.5703,-5.5703,-5.516,-5.4484,-5.4484,-5.387,-5.3203,-5.3203,-5.3203,-5.3203,-5.3203,-5.3203,-5.3203,-5.3203,-5.3203,-5.3203,-5.3203,-5.3203,-5.2872,-5.1667,-5.1266,-5.0716,-4.9551,-4.9168,-4.9018,-4.9018,-4.9018,-4.9018,-4.9018,-4.9018,-4.9018,-4.9018,-4.9018,-4.8608,-4.7704,-4.5885,-4.451,-4.3888,-4.3488,-4.315,-4.2731,-4.3059,-4.2576,-4.1153,-4.1187,-4.0764,-3.9768,-3.9529,-3.9373,-3.9373,-3.9373,-3.9373]},{"header":{"parameterUnit":"m.s-1","parameterCategory":1,"la1":30.6,"la2":29.2853,"lo1":-89.7004,"lo2":-87.6739,"dx":0.0162,"dy":0.0183,"nx":112,"ny":82,"refTime":"2022-12-05T06:00:00:Z","depth":0,"parameterNumber":3,"parameterNumberName":"V-component_of_WINDS"},"data":[0.0,0.0,0.0,0.0,0.0,0.0,0.0,0.0,0.0,0.0,0.0,0.0,0.0,0.0,0.0,0.0,0.0,0.0,0.0,0.0,0.0,0.0,0.0,0.0,0.0,0.0,0.0,0.0,0.0,0.0,0.0,0.0,0.0,0.0,0.0,0.0,0.0,0.0,0.0,0.0,0.0,0.0,0.0,0.0,0.0,0.0,0.0,0.0,0.0,0.0,0.0,0.0,0.0,0.0,0.0,0.0,0.0,0.0,0.0,0.0,0.0,0.0,0.0,0.0,0.0,0.0,0.0,0.0,0.0,0.0,0.0,0.0,0.0,0.0,0.0,0.0,0.0,0.0,0.0,0.0,0.0,0.0,0.0,0.0,0.0,0.0,0.0,0.0,0.0,0.0,1.035,1.0312,1.218,1.3388,1.3359,1.4628,1.4707,1.3086,0.0,0.0,0.0,0.0,0.0,0.0,0.0,0.0,0.0,0.0,0.0,0.0,0.0,0.0,0.0,0.0,0.0,0.0,0.0,0.0,0.0,0.0,0.0,0.0,0.0,0.0,0.0,0.0,0.0,0.0,0.0,0.0,0.0,0.0,0.0,0.0,0.0,0.0,0.0,0.0,0.0,0.0,0.0,0.0,0.0,0.0,0.0,0.0,0.0,0.0,0.0,0.0,0.0,0.0,0.0,0.0,0.0,0.0,0.0,0.0,0.0,0.0,0.0,0.0,0.0,0.0,0.0,0.0,0.0,0.0,0.0,0.0,0.0,0.0,0.0,0.0,0.0,0.0,0.0,0.0,0.0,0.0,0.0,0.0,0.0,0.0,0.0,0.0,0.0,0.0,0.0,0.0,0.0,0.0,0.0,0.0,0.0,0.0,0.0,0.0,0.0,0.0,0.0,0.0,1.0499,1.357,1.3597,1.3825,1.4931,1.5264,1.4844,1.3496,0.0,0.0,0.0,0.0,0.0,0.0,0.0,0.0,0.0,0.0,0.0,0.0,0.0,0.0,0.0,0.0,0.0,0.0,0.0,0.0,0.0,0.0,0.0,0.0,0.0,0.0,0.0,0.0,0.0,0.0,0.0,0.0,0.0,0.0,0.0,0.0,0.0,0.0,0.0,0.0,0.0,0.0,0.0,0.0,0.0,0.0,0.0,0.0,0.0,0.0,0.0,0.0,0.0,0.0,0.0,0.0,0.0,0.0,0.0,0.0,0.0,0.0,0.0,0.0,0.0,0.0,0.0,0.0,0.0,0.0,0.0,0.0,0.0,0.0,0.0,0.0,0.0,0.0,0.0,0.0,0.0,0.0,0.0,0.0,0.0,0.0,0.0,0.0,0.0,0.0,0.0,0.0,0.0,0.0,0.0,0.0,0.0,0.0,0.0,0.0,0.0,0.0,0.0,0.9355,1.0493,1.2672,1.2817,1.3283,1.4595,1.4909,1.4676,1.3873,1.2937,0.0,0.0,0.0,0.0,0.0,0.0,0.0,0.0,0.0,0.0,0.0,0.0,0.0,0.0,0.0,0.0,0.0,0.0,0.0,0.0,0.0,0.0,0.0,0.0,0.0,0.0,0.0,0.0,0.0,0.0,0.0,0.0,0.0,0.0,0.0,0.0,0.0,0.0,0.0,0.0,0.0,0.0,0.0,0.0,0.0,0.0,0.0,0.0,0.0,0.0,0.0,0.0,0.0,0.0,0.0,0.0,0.0,0.0,0.0,0.0,0.0,0.0,0.0,0.0,0.0,0.0,0.0,0.0,0.0,0.0,0.0,0.0,0.0,0.0,0.0,0.0,0.0,0.0,0.0,0.0,0.0,0.0,0.0,0.0,0.0,0.0,0.0,0.0,0.0,0.0,0.0,0.0,0.0,0.0,0.0,0.0,0.0,0.0,0.0,0.0,0.0,0.0,1.0715,1.1209,1.2121,1.2664,1.3445,1.4622,1.4899,1.4714,1.3983,1.3163,0.0,0.0,0.0,0.0,0.0,0.0,0.0,0.0,0.0,0.0,0.0,0.0,0.0,0.0,0.0,0.0,0.0,0.0,0.0,0.0,0.0,0.0,0.0,0.0,0.0,0.0,0.0,0.0,0.0,0.0,0.0,0.0,0.0,0.0,0.0,0.0,0.0,0.0,0.0,0.0,0.0,0.0,0.0,0.0,0.0,0.0,0.0,0.0,0.0,0.0,0.0,0.0,0.0,0.0,0.0,0.0,0.0,0.0,0.0,0.0,0.0,0.0,0.0,0.0,0.0,0.0,0.0,0.0,0.0,0.0,0.0,0.0,0.0,0.0,0.0,0.0,0.0,0.0,0.0,0.0,0.0,0.0,0.0,0.0,0.0,0.0,0.0,0.0,0.0,0.0,0.0,0.0,0.0,0.0,0.0,0.0,0.0,0.0,0.0,0.0,0.0,0.0,1.1981,1.3476,1.454,1.5006,1.5625,1.6465,1.6185,1.5323,1.3652,1.2998,0.0,0.0,0.0,0.0,0.0,0.0,0.0,0.0,0.0,0.0,0.0,0.0,0.0,0.0,0.0,0.0,0.0,0.0,0.0,0.0,0.0,0.0,0.0,0.0,0.0,0.0,0.0,0.0,0.0,0.0,0.0,0.0,0.0,0.0,0.0,0.0,0.0,0.0,0.0,0.0,0.0,0.0,0.0,0.0,0.0,0.0,0.0,0.0,0.0,0.0,0.0,0.0,0.0,0.0,0.0,0.0,0.0,0.0,0.0,0.0,0.0,0.0,0.0,0.0,0.0,0.0,0.0,0.0,0.0,0.0,0.0,0.0,0.0,0.0,0.0,0.0,0.0,0.0,0.0,0.0,0.0,0.0,0.0,0.0,0.0,0.0,0.0,0.0,0.0,0.0,0.0,0.0,0.0,0.0,0.0,0.0,0.0,0.0,0.0,0.0,0.0,0.0,1.2426,1.3736,1.4659,1.4897,1.5455,1.6563,1.6225,1.5369,1.397,0.0,0.0,0.0,0.0,0.0,0.0,0.0,0.0,0.0,0.0,0.0,0.0,0.0,0.0,0.0,0.0,0.0,0.0,0.0,0.0,0.0,0.0,0.0,0.0,0.0,0.0,0.0,0.0,0.0,0.0,0.0,0.0,0.0,0.0,0.0,0.0,0.0,0.0,0.0,0.0,0.0,0.0,0.0,0.0,0.0,0.0,0.0,0.0,0.0,0.0,0.0,0.0,0.0,0.0,0.0,0.0,0.0,0.0,0.0,0.0,0.0,0.0,0.0,0.0,0.0,0.0,0.0,0.0,0.0,0.0,0.0,0.0,0.0,0.0,0.0,0.0,0.0,0.0,0.0,0.0,0.0,0.0,0.0,0.0,0.0,0.0,0.0,0.0,0.0,0.0,0.0,0.0,0.0,0.0,0.0,0.0,0.0,0.0,0.0,0.0,0.0,0.0,1.1601,1.3424,1.4752,0.0,1.5513,1.6099,1.6973,1.6622,1.572,1.4204,0.0,0.0,0.0,0.0,0.0,0.0,0.0,0.0,0.0,0.0,0.0,0.0,0.0,0.0,0.0,0.0,0.0,0.0,0.0,0.0,0.0,0.0,0.0,0.0,0.0,0.0,0.0,0.0,0.0,0.0,0.0,0.0,0.0,0.0,0.0,0.0,0.0,0.0,0.0,0.0,0.0,0.0,0.0,0.0,0.0,0.0,0.0,0.0,0.0,0.0,0.0,0.0,0.0,0.0,0.0,0.0,0.0,0.0,0.0,0.0,0.0,0.0,0.0,0.0,0.0,0.0,0.0,0.0,0.0,0.0,0.0,0.0,0.0,0.0,0.0,0.0,0.0,0.0,0.0,0.0,0.0,0.0,0.0,0.0,0.0,0.0,0.0,0.0,0.0,0.0,0.0,0.0,0.0,0.0,0.0,0.0,0.0,0.0,0.0,0.0,0.0,0.0,1.2307,1.5191,1.6935,1.6187,1.7244,1.8008,1.8008,1.7637,1.6465,0.0,0.0,0.0,0.0,0.0,0.0,0.0,0.0,0.0,0.0,0.0,0.0,0.0,0.0,0.0,0.0,0.0,0.0,0.0,0.0,0.0,0.0,0.0,0.0,0.0,0.0,0.0,0.0,0.0,0.0,0.0,0.0,0.0,0.0,0.0,0.0,0.0,0.0,0.0,0.0,0.0,0.0,0.0,0.0,0.0,0.0,0.0,0.0,0.0,0.0,0.0,0.0,0.0,0.0,0.0,0.0,0.0,0.0,0.0,0.0,0.0,0.0,0.0,0.0,0.0,0.0,0.0,0.0,0.0,0.0,0.0,0.0,0.0,0.0,0.0,0.0,0.0,0.0,0.0,0.0,0.0,0.0,0.0,0.0,0.0,0.0,0.0,0.0,0.0,0.0,0.0,0.0,0.0,0.0,0.0,0.0,0.0,0.0,0.0,0.0,0.0,0.0,0.0,1.3537,1.6268,1.7999,1.7479,1.7794,1.8008,1.8008,1.7891,1.6777,1.427,0.0,0.0,0.0,0.0,0.0,0.0,0.0,0.0,0.0,0.0,0.0,0.0,0.0,0.0,0.0,0.0,0.0,0.0,0.0,0.0,0.0,0.0,0.0,0.0,0.0,0.0,0.0,0.0,0.0,0.0,0.0,0.0,0.0,0.0,0.0,0.0,0.0,0.0,0.0,0.0,0.0,0.0,0.0,0.0,0.0,0.0,0.0,0.0,0.0,0.0,0.0,0.0,0.0,0.0,0.0,0.0,0.0,0.0,0.0,0.0,0.0,0.0,0.0,0.0,0.0,0.0,0.0,0.0,0.0,0.0,0.0,0.0,0.0,0.0,0.0,0.0,0.0,0.0,0.0,0.0,0.0,0.0,0.0,0.0,0.0,0.0,0.0,0.0,0.0,0.0,0.0,0.0,0.0,0.0,0.0,0.0,0.0,0.0,0.0,0.0,0.0,0.0,1.4309,1.6999,1.8695,1.8266,1.8105,1.8008,1.8008,1.8008,1.7129,1.5039,0.0,0.0,0.0,0.0,0.0,0.0,0.0,0.0,0.0,0.0,0.0,0.0,0.0,0.0,0.0,0.0,0.0,0.0,0.0,0.0,0.0,0.0,0.0,0.0,0.0,0.0,0.0,0.0,0.0,0.0,0.0,0.0,0.0,0.0,0.0,0.0,0.0,0.0,0.0,0.0,0.0,0.0,0.0,0.0,0.0,0.0,0.0,0.0,0.0,0.0,0.0,0.0,0.0,0.0,0.0,0.0,0.0,0.0,0.0,0.0,0.0,0.0,0.0,0.0,0.0,0.0,0.0,0.0,0.0,0.0,0.0,0.0,0.0,0.0,0.0,0.0,0.0,0.0,0.0,0.0,0.0,0.0,0.0,0.0,0.0,0.0,0.0,0.0,0.0,0.0,0.0,0.0,0.0,0.0,0.0,0.0,0.0,0.0,0.0,0.0,0.0,0.0,1.4612,1.7389,1.916,1.8656,1.8286,1.8105,1.8066,1.8066,1.75,1.6183,0.0,0.0,0.0,0.0,0.0,0.0,0.0,0.0,0.0,0.0,0.0,0.0,0.0,0.0,0.0,0.0,0.0,0.0,0.0,0.0,0.0,0.0,0.0,0.0,0.0,0.0,0.0,0.0,0.0,0.0,0.0,0.0,0.0,0.0,0.0,0.0,0.0,0.0,0.0,0.0,0.0,0.0,0.0,0.0,0.0,0.0,0.0,0.0,0.0,0.0,0.0,0.0,0.0,0.0,0.0,0.0,0.0,0.0,0.0,0.0,1.4502,0.0,0.0,0.0,0.0,0.0,0.0,0.0,0.0,0.0,0.0,0.0,0.0,0.0,0.0,0.0,0.0,0.0,0.0,0.0,0.0,0.0,0.0,0.0,0.0,0.0,0.0,0.0,0.0,0.0,0.0,0.0,0.0,0.0,0.0,0.0,0.0,0.0,0.0,0.0,0.0,0.0,1.3642,1.7216,1.9492,1.8676,1.8867,1.8887,1.85,1.8461,1.7812,1.6202,1.5239,0.0,0.0,0.0,0.0,0.0,0.0,0.0,0.0,0.0,0.0,0.0,0.0,0.0,0.0,0.0,0.0,0.0,0.0,0.0,0.0,0.0,0.0,0.0,0.0,0.0,0.0,0.0,0.0,0.0,0.0,0.0,0.0,0.0,0.0,0.0,0.0,0.0,0.0,0.0,0.0,0.0,0.0,0.0,0.0,0.0,0.0,0.0,0.0,0.0,0.0,0.0,0.0,0.0,0.0,0.0,0.0,0.0,0.0,0.0,0.0,1.6261,0.0,0.0,0.0,0.0,0.0,0.0,0.0,0.0,0.0,0.0,0.0,0.0,0.0,0.0,0.0,0.0,0.0,0.0,0.0,0.0,0.0,0.0,0.0,0.0,0.0,0.0,0.0,0.0,0.0,0.0,0.0,0.0,0.0,0.0,0.0,0.0,0.0,0.0,0.0,0.0,1.4095,1.7055,1.9241,1.9516,1.957,1.9414,1.8984,1.8945,1.8398,1.709,1.6128,0.0,0.0,0.0,0.0,0.0,0.0,0.0,0.0,0.0,0.0,0.0,0.0,0.0,0.0,0.0,0.0,0.0,0.0,0.0,0.0,0.0,0.0,0.0,0.0,0.0,0.0,0.0,0.0,0.0,0.0,0.0,0.0,0.0,0.0,0.0,0.0,0.0,0.0,0.0,0.0,0.0,0.0,0.0,0.0,0.0,0.0,0.0,0.0,0.0,0.0,0.0,0.0,0.0,2.0019,2.0586,2.0586,2.0586,2.0742,2.0957,1.9883,1.9453,1.9392,0.0,0.0,0.0,0.0,0.0,0.0,0.0,0.0,0.0,0.0,0.0,0.0,0.0,0.0,0.0,0.0,0.0,0.0,0.0,0.0,0.0,0.0,0.0,0.0,0.0,2.0607,2.0631,0.0,0.0,0.0,0.0,0.0,0.0,0.0,0.0,0.0,0.0,0.0,0.0,1.4957,1.7224,1.916,2.0333,2.0273,1.998,1.9551,1.959,1.9219,1.8301,1.7193,1.6206,0.0,0.0,0.0,0.0,0.0,0.0,0.0,0.0,0.0,0.0,0.0,0.0,0.0,0.0,0.0,0.0,0.0,0.0,0.0,0.0,0.0,0.0,0.0,0.0,0.0,0.0,0.0,0.0,0.0,0.0,0.0,0.0,1.0043,0.9626,0.0,0.0,0.0,0.0,0.0,0.0,0.0,0.0,0.0,0.0,0.0,0.0,0.0,1.6354,1.8065,1.9455,2.0742,2.1934,2.2852,2.3281,2.3281,2.3281,2.3105,2.275,2.2574,0.0,2.0351,1.9314,0.0,0.0,0.0,0.0,0.0,0.0,0.0,0.0,0.0,0.0,0.0,0.0,0.0,0.0,0.0,0.0,0.0,0.0,0.0,0.0,0.0,0.0,2.4382,2.3031,2.3504,2.3603,0.0,1.8205,1.5524,1.3611,0.0,0.0,0.0,0.0,0.0,0.0,0.0,0.0,1.5274,1.8248,2.0236,2.0001,2.0605,2.0879,2.0468,2.0762,2.0449,1.9199,1.8978,1.8012,1.6067,1.5458,0.0,0.0,0.0,0.0,0.0,0.0,0.0,0.0,0.0,0.0,0.0,0.0,0.0,0.0,0.0,0.0,0.0,0.0,0.0,0.0,0.0,0.0,0.0,0.0,0.0,0.0,0.0,0.0,0.0,1.0504,1.1702,1.2119,1.2073,1.158,0.0,0.0,0.0,0.0,0.0,0.0,0.0,0.0,0.0,1.7326,1.7398,1.819,1.9635,2.0027,2.058,2.1324,2.297,2.3495,2.3065,2.3801,2.3769,2.3101,2.3101,2.2672,2.1934,2.084,1.9531,1.8179,0.0,0.0,0.0,0.0,1.978,2.0665,2.0872,2.1162,0.0,0.0,0.0,0.0,0.0,0.0,0.0,0.0,0.0,0.0,0.0,0.0,0.0,2.4845,2.4819,2.4268,2.1839,1.9931,1.8142,0.0,1.584,1.4902,1.2441,0.0,0.0,0.0,0.0,1.6217,1.6955,1.824,1.938,2.0,2.0417,2.0473,2.0061,2.1005,2.1152,2.0116,2.0038,1.9412,1.7964,1.7227,1.6016,0.0,0.0,0.0,0.0,0.0,0.0,0.0,0.0,0.0,0.0,0.0,0.0,0.0,0.0,0.0,0.0,0.0,0.0,0.0,0.0,0.0,0.0,0.0,0.0,0.0,0.0,0.0,0.0,1.2214,1.3606,1.4412,1.4674,1.4344,0.0,0.0,0.0,0.0,0.0,0.0,1.6692,1.8738,1.9788,1.9487,1.9286,1.9536,2.0332,2.0121,2.0261,2.0753,2.2391,2.2779,2.1972,2.328,2.3301,2.2333,2.2876,2.2964,2.2719,2.1981,2.1171,2.0352,1.993,1.9961,2.0394,2.1367,2.2557,2.3752,2.3795,2.4521,2.511,2.3319,0.0,2.3489,2.2372,0.0,0.0,0.0,0.0,2.33,2.4863,2.5301,2.5346,2.5178,2.5048,2.4333,2.2012,2.1229,2.0436,0.0,1.8086,1.7051,1.45,0.0,0.0,0.0,0.0,1.7708,1.876,1.8838,1.9247,2.0324,2.0444,2.037,2.0208,2.1323,2.1719,2.0997,2.0938,2.0546,1.9686,1.8887,1.8047,1.7038,0.0,0.0,0.0,0.0,0.0,0.0,0.0,0.0,0.0,0.0,0.0,0.0,0.0,0.0,0.0,0.0,0.0,0.0,0.0,0.0,0.0,0.0,0.0,0.0,0.0,0.0,0.0,0.0,0.0,1.559,1.731,0.0,0.0,0.0,0.0,1.9885,1.8739,1.9063,2.1681,2.1347,2.0766,1.9985,2.0229,2.0261,1.9912,2.0212,2.0802,2.1644,2.1727,2.1412,2.0714,2.1925,2.162,2.0162,2.2218,2.265,2.1907,2.2694,2.2539,2.186,2.2574,2.2436,2.1975,2.3351,2.4542,2.5559,2.6137,2.6415,2.6668,2.7483,2.6377,2.4786,2.5227,2.4274,0.0,0.0,2.5052,2.4933,2.6097,2.5639,2.4598,2.3679,2.4133,2.429,2.229,2.1905,2.1404,0.0,1.9199,1.875,1.7402,0.0,1.7273,1.7242,1.7967,1.9012,2.0401,2.0837,2.107,2.1129,2.1149,2.1345,2.1734,2.2204,2.2285,2.1855,2.1816,2.1426,2.0566,2.0059,1.9219,1.7969,1.7019,0.0,0.0,0.0,0.0,0.0,0.0,0.0,0.0,0.0,0.0,0.0,0.0,0.0,0.0,0.0,0.0,0.0,0.0,0.0,0.0,0.0,0.0,0.0,0.0,0.0,0.0,0.0,0.0,1.9402,2.0718,0.0,2.0236,2.0916,2.1778,2.2605,2.257,2.2644,2.3016,2.3,2.2237,2.049,2.0231,1.9737,1.8995,1.8557,1.8702,1.9324,2.0256,2.0375,1.9876,2.1213,2.1243,2.0276,2.1041,2.1078,2.0585,2.0911,2.1705,2.2695,2.2975,2.3368,2.3822,2.4317,2.5235,2.612,2.5595,2.5883,2.6588,2.6946,2.7507,2.7937,2.7358,2.7274,2.7544,2.8122,2.7629,2.7023,2.7403,2.6708,2.5621,2.4532,2.4532,2.4345,2.2661,2.2322,2.1949,2.0742,2.0078,1.9277,1.8008,1.918,1.981,1.8427,2.0062,2.1593,2.185,2.1076,2.0666,2.0969,2.0764,2.0764,2.1235,2.227,2.2808,2.2695,2.2652,2.2305,2.1486,2.1523,2.0977,1.9687,1.9629,1.7651,0.0,0.0,0.0,0.0,0.0,0.0,0.0,0.0,0.0,0.0,0.0,0.0,0.0,0.0,0.0,0.0,0.0,0.0,0.0,0.0,0.0,0.0,0.0,0.0,0.0,0.0,2.0869,2.21,2.3294,2.3851,2.3418,2.4237,2.4904,2.5029,2.487,2.4523,2.3945,2.3429,2.2265,2.0482,1.9868,1.9131,1.8196,1.7811,1.7809,1.8196,1.898,1.918,1.8864,2.0072,2.0166,1.9333,2.0087,2.0071,1.9622,1.9924,2.0916,2.2197,2.2428,2.3217,2.4211,2.4211,2.4957,2.588,2.5504,2.588,2.6524,2.6524,2.7464,2.8554,2.7787,2.8068,2.8673,2.8673,2.7945,2.7204,2.7204,2.6484,2.5615,2.4836,2.4661,2.4341,2.3201,2.2832,2.2477,2.1756,2.0917,2.0039,1.9043,2.043,2.1133,1.9531,2.1327,2.273,2.2363,2.1499,2.1076,2.1398,2.1062,2.0945,2.1398,2.1963,2.2519,2.3062,2.2691,2.2399,2.2305,2.1875,2.123,2.0371,2.0139,1.8463,1.5347,0.0,0.0,0.0,0.0,0.0,0.0,0.0,0.0,0.0,0.0,0.0,0.0,0.0,0.0,0.0,0.0,0.0,0.0,0.0,0.0,0.0,0.0,0.0,1.8241,2.0587,2.2651,2.3542,2.498,2.6081,2.6556,2.6615,2.6852,2.7299,2.5422,2.4367,2.4745,2.2585,2.0849,1.9884,1.9299,1.8562,1.7635,1.8183,1.849,1.8504,1.8142,1.7903,1.7648,1.8577,1.8331,1.7346,1.9398,1.9789,1.9018,1.9907,2.0297,2.0408,2.1018,2.1961,2.3013,2.3013,2.3734,2.4872,2.6071,2.6423,2.6464,2.64,2.6442,2.6505,2.6505,2.6505,2.6528,2.6528,2.5978,2.5434,2.5434,2.4896,2.4414,2.4434,2.4434,2.4336,2.3906,2.3496,2.3003,2.2617,2.1814,2.1093,2.0723,2.0977,2.1133,2.0723,2.1719,0.0,2.1973,2.2285,2.2519,2.25,2.2129,2.2051,2.2461,2.1328,2.1328,2.2984,2.1931,2.1814,2.3042,2.1093,2.0,2.0,1.8508,1.7806,1.8027,0.0,0.0,0.0,0.0,0.0,0.0,0.0,0.0,0.0,0.0,0.0,0.0,0.0,0.0,0.0,0.0,0.0,0.0,0.0,0.0,0.0,0.0,2.1475,2.217,2.3745,2.5326,2.6657,2.7556,2.8102,2.8236,2.7916,2.7767,2.787,2.5867,2.4383,2.3835,2.2441,2.0805,1.8929,1.9149,1.8726,1.7635,1.8183,1.8597,1.8798,1.8504,1.8317,1.8237,1.8251,1.7993,1.7514,1.8133,1.8124,1.7691,1.795,1.8467,1.9085,1.9964,2.0479,2.0755,2.0755,2.1759,2.3229,2.4521,2.5277,2.5508,2.442,2.536,2.6788,2.5937,2.6476,2.7385,2.7385,2.6671,2.5915,2.5915,2.5184,2.4492,2.4805,2.4883,2.4863,2.4793,2.4375,2.3848,2.3125,2.2539,2.2031,2.1602,2.1875,2.2129,2.1992,2.2539,0.0,2.2769,2.291,2.2754,2.2129,2.1953,2.1934,2.2051,2.1738,2.1992,2.3023,2.2769,2.273,2.3081,2.2516,2.2068,2.1797,1.9486,1.8354,0.0,0.0,0.0,0.0,0.0,0.0,0.0,0.0,0.0,0.0,0.0,0.0,0.0,0.0,0.0,0.0,0.0,0.0,0.0,0.0,0.0,0.0,2.0895,2.3086,2.5063,2.5768,2.6673,2.8225,2.8287,2.833,2.8551,2.7878,2.729,2.7001,2.5807,2.4422,2.3089,2.1899,2.0485,1.8751,1.8786,1.8568,1.7956,1.8557,1.8878,1.8918,1.8624,1.8424,1.829,1.7996,1.7756,0.0,1.7582,1.7488,1.738,1.738,1.7685,0.0,0.0,0.0,0.0,0.0,2.1244,2.2667,2.3475,2.4283,2.484,2.3929,2.4702,2.5862,2.5173,2.5606,2.633,2.633,2.6003,2.5686,2.5686,2.5338,2.5039,2.5293,2.5352,2.5352,2.5352,2.4863,2.4277,2.3789,2.3203,0.0,2.2461,2.2617,2.2598,2.2051,2.2793,2.3223,2.2676,2.3086,2.3286,2.2734,2.2852,2.2871,2.2695,2.2187,0.0,0.0,0.0,2.2223,2.207,2.2051,0.0,0.0,0.0,0.0,0.0,0.0,0.0,0.0,1.5726,1.5365,0.0,0.0,0.0,0.0,0.0,0.0,0.0,0.0,0.0,0.0,0.0,0.0,0.0,0.0,0.0,0.0,2.213,2.382,2.6714,2.6643,2.6919,2.861,2.7845,2.7412,2.7931,2.7003,2.6145,2.5499,2.5365,2.4391,2.2357,0.0,0.0,0.0,0.0,1.8114,1.8255,1.8836,1.8866,1.8394,1.8108,1.7822,1.7536,1.7237,1.7199,1.7371,1.7371,1.7477,1.7582,1.7582,1.7477,1.741,1.8103,1.906,2.0151,2.0603,2.1478,2.253,2.2677,0.0,0.0,2.4202,2.4314,2.4492,2.4492,2.4531,2.457,2.457,2.4844,2.5184,2.5184,2.543,2.5693,2.5693,2.5693,2.5693,2.5693,2.5078,2.4473,2.4434,2.3725,2.3159,2.3159,2.3223,2.2852,2.1658,2.2852,2.3457,2.2324,2.3203,2.3887,2.373,0.0,0.0,2.3691,2.2617,2.2305,2.3042,2.2029,2.1269,2.0918,2.0899,2.0899,2.0899,2.0899,2.1426,2.2578,2.2578,2.1854,2.0479,1.8288,1.7297,0.0,0.0,0.0,0.0,0.0,0.0,0.0,0.0,0.0,0.0,0.0,0.0,0.0,0.0,0.0,2.3438,2.3706,2.4253,2.5716,2.548,2.5905,2.8021,2.7301,2.6816,2.725,2.6259,2.5695,2.5936,2.5098,2.3645,2.1374,2.1048,1.9969,1.7946,1.8198,1.7802,1.6602,1.7177,1.6728,1.525,0.0,0.0,1.4526,1.4234,1.477,1.5849,1.5849,1.6499,1.7582,1.7582,1.6882,1.5931,1.7027,1.7709,1.8306,1.9859,2.0502,2.0763,2.1851,2.2681,2.3213,2.2902,2.3787,2.4941,2.4941,2.5195,0.0,2.544,2.5499,2.5557,2.5557,2.5615,2.5693,2.5693,2.5693,2.5693,2.5693,2.5312,2.4844,2.4492,2.4004,2.3672,2.3672,2.3672,2.3594,2.334,2.3867,2.4199,2.3965,2.4453,2.4414,2.3335,2.3652,2.3594,2.2832,2.2539,2.2598,2.3062,2.2867,2.2691,2.2594,2.2594,2.2594,2.2594,2.2594,2.273,2.2984,2.2984,2.2838,2.2486,2.1423,2.0607,0.0,0.0,0.0,0.0,0.0,0.0,0.0,0.0,0.0,0.0,0.0,1.9043,2.0046,0.0,2.2429,2.3236,2.331,2.3721,2.5033,2.468,2.506,2.7058,2.6518,2.6,2.6238,2.5446,2.5078,2.5568,2.4426,2.3009,2.1462,2.0676,1.9448,1.7687,1.8036,1.7546,1.6086,1.6445,1.5817,1.4151,1.3928,1.3704,1.3481,1.3369,1.3696,1.4395,1.5091,1.5796,1.6499,1.6499,1.6062,1.5411,1.537,1.6018,1.7143,1.8767,1.9798,2.0399,2.0907,2.2113,2.3211,2.2313,2.3572,2.5295,2.46,2.4995,2.5693,2.5693,2.5693,2.5693,2.5693,2.5693,2.5693,2.5693,2.5693,2.5693,2.5693,2.5391,2.5047,2.4785,2.4394,2.4102,2.4102,2.4297,2.4355,2.4141,2.4473,2.4668,2.4453,2.4805,2.4824,2.418,2.4492,2.4492,2.3848,2.3398,2.3242,2.3457,2.3457,2.3094,2.2227,2.2434,2.2452,2.2227,2.2208,2.2492,2.3101,2.3101,2.3101,2.3081,2.293,2.2553,0.0,0.0,0.0,0.0,0.0,0.0,0.0,1.8574,1.9313,2.0341,2.082,2.1135,2.1389,2.1669,2.2145,2.2839,2.2745,2.3034,2.4277,2.4051,2.4344,2.5783,2.5527,2.5228,2.5331,2.4866,2.4727,2.5156,2.3892,2.2702,2.1727,2.0333,1.8968,1.7635,1.7608,1.6929,1.5613,1.5491,1.4579,1.3013,1.2898,1.2707,1.2453,1.2453,1.2615,1.2994,1.4663,1.5411,1.5411,1.5411,1.5091,1.4524,1.3792,1.4267,1.5557,1.7371,1.8851,2.0008,1.9745,2.1095,2.2717,2.1659,2.2918,2.4707,2.3633,2.4245,2.5333,2.5333,2.5333,2.5333,2.5333,2.5333,2.5333,2.5333,2.5479,2.5693,2.5693,2.5449,2.5176,2.5125,2.4785,2.4551,2.4551,2.4844,2.4941,2.459,2.4922,2.5078,2.4707,2.498,2.5195,2.5195,2.5527,2.5547,2.5145,2.4355,2.3906,2.3906,2.368,2.2919,2.1581,2.1631,2.1511,2.1111,2.1311,2.1876,2.2865,2.313,2.3218,2.3237,2.3711,2.3672,1.585,1.54,1.5453,1.7849,1.8538,1.9586,0.0,2.2674,2.1709,2.3351,2.3733,2.3862,2.4263,2.4367,2.4429,2.4534,2.3677,2.3086,2.3256,2.3604,2.3859,2.4068,2.4354,2.4677,2.5071,2.5055,2.5176,2.5577,2.4387,2.3082,2.1744,2.0333,1.8968,1.7635,1.6655,1.5384,1.3805,1.2824,1.1469,0.9738,0.9716,0.9574,0.9375,0.9375,1.0131,1.1483,1.4234,1.5411,1.5411,1.5411,1.3911,1.1719,1.3122,1.2998,1.2376,1.5322,1.7177,1.8293,1.8266,1.9031,2.004,1.9886,2.0896,2.2114,2.1946,2.2868,2.3949,2.3949,2.3949,2.3949,2.3949,2.3949,2.3949,2.3949,2.4824,2.5693,2.5693,2.5654,2.5547,2.5184,2.5067,2.5047,2.5047,2.5086,2.5106,2.5047,2.5371,2.5596,2.5538,2.5577,2.5615,2.5615,2.5654,2.5547,2.5145,2.4629,2.4355,2.4355,2.3206,2.2467,2.2272,2.1173,2.0535,2.0502,2.1328,2.1815,2.1952,2.3152,2.3711,2.373,2.4141,2.4121,1.8829,1.8437,1.8124,1.955,2.0498,2.1549,2.3405,2.3662,2.366,2.4407,2.4556,2.4409,2.3889,2.38,2.38,2.38,2.3648,2.3248,2.2468,2.2917,2.3026,2.225,2.254,2.345,2.4964,2.5293,2.5527,2.5674,2.3732,2.2316,2.1744,1.9627,1.8199,1.7635,1.6291,1.4941,1.3487,1.208,1.0635,0.9207,0.9069,0.8994,0.8885,0.8885,0.9699,1.1164,1.2344,1.3372,1.4126,1.3264,1.2191,1.1126,1.109,1.1145,1.1623,1.4823,1.6344,1.6846,1.7568,1.8573,1.9472,1.8708,1.9922,2.1541,2.0743,2.1456,2.2567,2.2567,2.2567,2.2567,2.2567,2.3117,2.3683,2.3683,2.4707,2.5693,2.5693,2.5693,2.5635,2.5488,2.5449,2.5449,2.5449,2.5449,2.5449,2.5449,2.5557,2.5693,2.5693,2.5693,2.5693,2.5693,2.5693,2.5615,2.5469,2.5059,2.4805,2.4805,2.4268,2.3173,2.1449,2.18,2.1559,2.0521,2.1672,2.2602,2.3315,2.3866,2.416,2.416,2.459,2.4707,1.9734,1.9946,2.0115,2.1012,2.2165,2.3278,2.3795,2.435,2.4784,2.4809,2.4532,2.4122,2.3413,2.3276,2.3315,2.3432,2.3435,2.3081,2.2095,2.2226,2.2097,2.1098,2.146,2.2416,2.4033,2.4781,2.5167,2.5167,2.3018,2.1591,2.128,1.8993,1.7742,1.7836,1.5959,1.4538,1.3543,1.1629,1.0141,0.9207,0.9137,0.9103,0.9062,0.9015,0.9735,1.1109,1.1109,1.1701,1.2615,1.1538,1.0836,1.0414,0.9496,0.969,1.0852,1.4048,1.5421,1.5886,1.6734,1.7923,1.8916,1.7937,1.8954,2.0385,1.9369,2.0025,2.1167,2.1213,2.1165,2.1116,2.1213,2.1928,2.2667,2.3067,2.4146,2.5265,2.5645,2.5693,2.5693,2.5693,2.5693,2.5693,2.5693,2.5693,2.5693,2.5693,2.5693,2.5693,2.5693,2.5693,2.5693,2.5693,2.5693,2.5693,2.5693,2.5449,2.5254,2.5254,2.4593,2.3172,2.0981,2.1722,2.1624,2.0344,2.1896,2.3146,2.4011,2.4404,2.459,2.4609,2.5059,2.5254,1.6936,1.828,2.0383,2.2345,2.3778,2.502,2.6168,2.5587,2.4787,2.4787,2.393,2.3262,2.3691,2.3769,2.3906,2.4316,2.3289,2.2445,2.2398,2.1613,2.1048,2.0999,2.1656,2.2004,0.0,2.2968,2.3732,2.3732,2.2466,2.1245,2.0197,1.8763,1.817,1.845,1.5558,1.3867,1.3709,1.0874,0.935,0.9214,0.9449,0.951,0.9361,0.9268,0.9895,1.1109,1.1109,1.1109,1.1156,1.1109,1.0241,0.894,0.894,0.894,0.932,1.2299,1.4245,1.5423,1.5476,1.6446,1.7635,1.7635,1.7687,1.774,1.7687,1.8603,1.9739,2.0069,1.9934,1.9754,2.0084,1.9919,2.0092,2.1456,2.2767,2.4097,2.543,2.5693,2.5693,2.5693,2.5693,2.5693,2.5693,2.5693,2.5693,2.5693,2.5693,2.5693,2.5693,2.5693,2.5693,2.5693,2.5693,2.5693,2.5693,2.5674,2.5674,2.5674,2.3267,2.1778,2.166,2.042,1.9664,1.9649,2.1825,2.3021,2.3069,2.4402,2.5106,2.5106,2.5508,2.5674,1.8359,1.9938,2.1507,2.2727,2.335,2.3757,2.4145,2.3327,2.2478,2.2478,2.1551,2.0754,2.094,2.1077,2.1241,2.141,2.1435,2.1177,2.0261,2.0097,1.9755,1.8846,1.8945,0.0,0.0,0.0,0.0,2.2383,2.11,2.0229,2.0106,1.8777,1.8129,1.8477,1.6534,1.4963,1.382,1.192,1.0444,0.9306,0.9408,0.9483,0.9523,0.9323,0.9462,0.9846,0.9688,0.9644,0.9644,0.9644,0.9375,0.8885,0.8885,0.8885,0.8995,1.0021,1.1919,1.4288,1.618,1.7199,1.7582,1.7582,1.7582,1.7582,1.7582,1.7937,1.8307,1.8626,1.8487,1.8321,1.864,1.9161,1.9731,2.0179,2.2064,2.3831,2.4295,2.5069,2.5693,2.5693,2.5693,2.5693,2.5693,2.5693,2.5693,2.5693,2.5693,2.5693,2.5693,2.5693,2.5693,2.5693,2.5693,2.5693,2.5693,2.5693,2.5333,2.4461,2.3534,2.2215,2.0385,2.1608,2.1912,2.0998,2.3507,2.4811,2.4811,2.5266,2.5508,2.5508,2.5615,2.5693,1.9367,2.0573,2.1423,2.2239,2.2138,2.181,2.181,2.1212,2.0657,2.0657,1.9866,1.9273,1.9538,1.9724,1.9926,2.0173,2.0491,2.035,1.9328,1.9546,1.9255,1.7753,1.8138,1.8573,1.8878,0.0,0.0,2.0912,2.0199,1.9693,1.9549,1.8782,1.8504,1.8798,1.7345,1.5738,1.411,1.2632,1.1142,0.9618,0.9564,0.9591,0.9673,0.9374,0.9262,0.92,0.9001,0.8885,0.8885,0.8885,0.8885,0.8885,0.8885,0.8885,0.894,0.9478,1.0891,1.2832,1.5263,1.6711,1.7582,1.7582,1.7582,1.7582,1.7582,1.7662,1.7809,1.8116,1.7983,1.7822,1.813,1.8517,1.902,1.9472,2.0947,2.2517,2.3484,2.4362,2.5118,2.5577,2.5693,2.5693,2.5693,2.5693,2.5693,2.5693,2.5693,2.5693,2.5693,2.5693,2.5693,2.5693,2.5693,2.5693,2.5693,2.5693,2.5333,2.4461,2.3534,2.2215,2.0436,2.2064,2.2567,2.1693,2.4344,2.5693,2.5693,2.5693,2.5693,2.5693,2.5693,2.5693,1.9722,2.019,2.0278,2.1015,2.0342,1.9497,1.9513,1.9467,1.9389,1.9372,1.8858,1.8605,1.931,1.9447,1.9711,2.0452,2.0249,1.9828,1.9517,1.9739,1.9406,1.7872,1.9031,1.9353,1.7872,1.7862,0.0,1.9428,0.0,1.9535,1.8532,1.8771,1.9065,1.9417,1.7923,1.626,1.446,1.2839,1.1408,0.9984,0.9897,0.9822,0.9822,0.9517,0.9357,0.9214,0.9001,0.8885,0.8885,0.8885,0.8885,0.8885,0.8885,0.8885,0.9044,1.046,1.1055,1.1319,1.2778,1.5156,1.7477,1.7582,1.7582,1.7582,1.7582,1.7796,1.8035,1.8384,1.825,1.8035,1.8397,1.8023,1.7937,1.9213,1.9524,2.0333,2.3018,2.3633,2.4097,2.543,2.5693,2.5693,2.5693,2.5693,2.5693,2.5693,2.5693,2.5693,2.5693,2.5693,2.5693,2.5693,2.5693,2.5693,2.5693,2.5693,2.5693,2.5577,2.3235,2.1744,2.1693,2.1744,2.1794,2.1794,2.4362,2.5693,2.5693,2.5693,2.5693,2.5693,2.5693,2.5693,1.9152,1.9982,2.0828,2.0127,1.9724,1.9563,1.9734,1.8955,1.8118,1.7841,1.6802,1.5817,1.5605,1.6216,1.6838,1.7042,1.7714,1.8229,1.8108,1.8163,1.844,1.902,1.8569,1.844,1.902,1.8436,1.8117,0.0,1.8467,1.855,1.8477,1.8771,1.9065,1.9417,1.901,1.7418,1.4577,1.1771,1.0264,0.9984,0.9897,0.9883,0.9916,0.9564,0.9361,0.9306,0.9049,0.8885,0.8885,0.8885,0.8885,0.8885,0.8885,0.8885,0.894,0.932,1.0131,1.1319,1.2778,1.4449,1.6115,1.7252,1.7582,1.7582,1.7582,1.7635,1.7769,1.8076,1.7943,1.7769,1.8022,1.7876,1.7687,1.8042,1.8864,2.0076,2.1862,2.2968,2.4097,2.543,2.5693,2.5693,2.5693,2.5693,2.5693,2.5693,2.5693,2.5693,2.5693,2.5693,2.5693,2.5693,2.5693,2.5693,2.5693,2.5693,2.5284,2.4245,2.3583,2.2717,2.1744,2.2667,2.3185,2.3185,2.4824,2.5693,2.5693,2.5693,2.5693,2.5693,2.5693,2.5693,1.9765,1.9764,1.9542,1.8856,1.838,1.8053,1.7796,1.7213,1.649,1.5791,1.4848,1.4055,1.3628,1.4563,1.5444,1.5444,1.6767,1.7742,1.7595,1.8218,1.8706,1.8722,1.8551,1.8608,1.8854,1.8358,1.8049,1.8237,1.8302,1.8504,1.8677,1.8958,1.9199,1.9359,1.8706,1.6797,1.3586,1.108,0.9863,0.9883,0.9863,0.9869,0.9876,0.9557,0.9381,0.9367,0.0,0.8885,0.8885,0.8885,0.8885,0.8885,0.8885,0.8885,0.8885,0.8885,0.943,1.046,1.2561,1.3867,1.4993,1.7128,1.7689,1.7609,1.7742,1.7782,1.7822,1.7942,1.7862,1.7822,1.7942,1.7809,1.7582,1.7582,1.8146,1.9265,2.1288,2.2316,2.3384,2.5333,2.5693,2.5693,2.5693,2.5693,2.5693,2.5693,2.5693,2.5693,2.5693,2.5693,2.5693,2.5693,2.5693,2.5693,2.5693,2.5693,2.5382,2.4609,2.4048,2.3384,2.2617,2.3285,2.3683,2.3683,2.502,2.5693,2.5693,2.5693,2.5693,2.5693,2.5693,2.5693,2.0499,1.9301,1.7712,1.7572,1.6888,1.6107,1.5303,1.5217,1.5003,1.3786,1.3307,1.3,1.2578,1.38,1.487,1.4815,1.6494,1.7742,1.7609,1.8844,1.9271,1.803,1.8708,1.9045,1.8333,1.813,1.8169,1.8531,1.8811,1.8958,1.8931,1.9199,1.9301,1.9068,1.7513,1.5241,1.2217,1.0596,0.9822,0.9822,0.9822,0.9822,0.9815,0.9537,0.9401,0.9367,0.0,0.0,0.8885,0.8885,0.8885,0.8885,0.8885,0.8885,0.8885,0.8885,0.8885,0.932,1.2028,1.3297,1.4206,1.7047,1.7862,1.7689,1.7916,1.7969,1.7929,1.7929,1.7929,1.7929,1.7929,1.7782,1.7582,1.7582,1.7582,1.8342,2.11,2.1996,2.2918,2.5265,2.5693,2.5693,2.5693,2.5693,2.5693,2.5693,2.5693,2.5693,2.5693,2.5693,2.5693,2.5693,2.5693,2.5693,2.5693,2.5693,2.5693,2.5693,2.4609,2.3949,2.3949,2.3949,2.3949,2.3949,2.5118,2.5693,2.5693,2.5693,2.5693,2.5693,2.5693,2.5693,1.8874,1.8161,1.7802,1.6808,1.6427,1.6166,1.5765,1.5351,1.4754,1.3534,1.3079,1.2462,1.1071,1.271,1.413,1.3726,1.548,1.7088,1.7515,1.7833,1.8359,1.9176,1.8499,1.8429,1.9628,1.8959,1.8531,0.0,1.9118,1.9185,1.8931,1.9199,1.8765,1.7443,1.5843,1.4123,1.2217,1.0596,0.9822,0.9822,0.9822,0.9822,0.9815,0.9646,0.9503,0.9367,0.9191,0.0,0.8885,0.8885,0.8885,0.8885,0.8885,0.8885,0.8885,0.8885,0.8885,0.9154,1.0891,1.2485,1.4206,1.7047,1.7955,1.7916,1.7969,1.7862,1.7662,1.7662,1.7662,1.7662,1.7662,1.7622,1.7582,1.7582,1.7582,1.8342,2.11,2.3434,2.5118,2.5577,2.5693,2.5693,2.5693,2.5693,2.5693,2.5693,2.5693,2.5693,2.5693,2.5693,2.5693,2.5693,2.5693,2.5693,2.5693,2.5693,2.5693,2.5693,2.5479,2.5333,2.5333,2.5333,2.5333,2.5333,2.5577,2.5693,2.5693,2.5693,2.5693,2.5693,2.5693,2.5693,1.8267,1.765,1.7225,1.6648,1.667,1.6496,1.5391,1.4565,1.36,1.1929,1.112,1.0418,0.9449,1.0835,1.2284,1.2666,1.4412,1.6071,1.701,1.7395,1.7832,1.8499,1.8087,1.8198,1.9189,1.8919,1.8838,1.9132,0.0,1.9305,1.9158,1.9292,1.8286,1.5843,1.5015,1.3407,1.0959,1.0179,0.9822,0.9822,0.9822,0.9822,0.9815,0.9673,0.9523,0.9374,0.9275,0.0,0.8885,0.8885,0.8885,0.8885,0.8885,0.8885,0.8885,0.8885,0.8885,0.9099,1.0562,1.1716,1.3053,1.6141,1.7544,1.8022,1.8237,1.7956,1.7582,1.7582,1.7582,1.7582,1.7582,1.7582,1.7582,1.7582,1.8708,2.0076,2.144,2.38,2.5693,2.5693,2.5693,2.5693,2.5693,2.5693,2.5693,2.5693,2.5693,2.5693,2.5693,2.5693,2.5693,2.5693,2.5693,2.5693,2.5693,2.5693,2.5693,2.5693,2.5693,2.5693,2.5693,2.5693,2.5693,2.5693,2.5693,2.5693,2.5693,2.5693,2.5693,2.5693,2.5693,2.5693,1.7808,1.7253,1.6807,1.6807,1.7032,1.67,1.472,1.3705,1.2512,1.0263,0.9219,0.8598,0.8059,0.9197,1.0573,1.1679,1.3338,1.4912,1.6071,1.6949,1.741,1.7147,1.7635,1.8115,1.8464,1.8758,1.9052,1.9345,0.0,0.0,1.943,1.943,1.7935,1.4718,1.4599,1.3048,0.9822,0.9822,0.9822,0.9822,0.9822,0.9822,0.9815,0.9707,0.9557,0.9374,0.9309,0.0,0.0,0.8885,0.8885,0.8885,0.8885,0.8885,0.8885,0.8885,0.8885,0.9044,1.0241,1.1007,1.1966,1.4863,1.6679,1.7733,1.83,1.8116,1.7662,1.7595,1.7582,1.7582,1.7582,1.7582,1.7582,1.7582,1.9716,2.1693,2.1693,2.38,2.5693,2.5693,2.5693,2.5693,2.5693,2.5693,2.5693,2.5693,2.5693,2.5693,2.5693,2.5693,2.5693,2.5693,2.5693,2.5693,2.5693,2.5693,2.5693,2.5693,2.5693,2.5693,2.5693,2.5693,2.5693,2.5693,2.5693,2.5693,2.5693,2.5693,2.5693,2.5693,2.5693,2.5693,1.6828,1.6773,1.7166,1.7166,1.7179,1.6553,1.4084,1.3254,1.2216,0.9347,0.8659,0.8333,0.7372,0.8494,0.9927,1.0953,1.246,1.379,1.4619,1.6151,1.6808,1.5707,1.7032,1.8115,1.8464,1.8758,1.9052,1.9345,0.0,0.0,1.943,1.943,1.7935,1.4718,1.4599,1.3048,0.9822,0.9822,0.9822,0.9822,0.9822,0.9822,0.9822,0.9808,0.9646,0.9381,0.9367,0.0,0.0,0.8885,0.8885,0.8885,0.8885,0.8885,0.8885,0.8885,0.8885,0.894,0.9044,1.0128,1.1798,1.3682,1.5266,1.6721,1.8076,1.8263,1.7889,1.7662,1.7582,1.7582,1.7582,1.7582,1.7582,1.7582,1.9716,2.1693,2.1693,2.38,2.5693,2.5693,2.5693,2.5693,2.5693,2.5693,2.5693,2.5693,2.5693,2.5693,2.5693,2.5693,2.5693,2.5693,2.5693,2.5693,2.5693,2.5693,2.5693,2.5693,2.5693,2.5693,2.5693,2.5693,2.5693,2.5693,2.5693,2.5693,2.5693,2.5693,2.5693,2.5693,2.5693,2.5693,1.6662,1.6967,1.746,1.746,1.6678,1.5432,1.3795,1.196,1.0098,0.8198,0.7318,0.6793,0.6401,0.6919,0.7851,0.9225,1.0218,1.1209,1.2414,1.3465,1.4071,1.3849,1.468,1.547,1.5852,0.0,1.7811,0.0,0.0,0.0,1.7981,1.8881,1.8344,1.6138,1.5133,1.3526,1.1261,1.0301,0.9822,0.9822,0.9822,0.9822,0.9822,0.9822,0.9659,0.9381,0.9381,0.0,0.0,0.8885,0.8885,0.8885,0.8885,0.8885,0.8885,0.8885,0.8885,0.8885,0.8885,0.9355,1.0389,1.3191,1.4488,1.5389,1.7798,1.829,1.7929,1.7675,1.7582,1.7582,1.7582,1.7582,1.7582,1.7582,1.9716,2.1693,2.1693,2.38,2.5693,2.5693,2.5693,2.5693,2.5693,2.5693,2.5693,2.5693,2.5693,2.5693,2.5693,2.5693,2.5693,2.5693,2.5693,2.5693,2.5693,2.5693,2.5693,2.5693,2.5693,2.5693,2.5693,2.5693,2.5693,2.5693,2.5693,2.5693,2.5693,2.5693,2.5693,2.5693,2.5693,2.5693,1.658,1.7074,1.7475,1.7555,1.6304,1.4638,1.3251,1.0984,0.8752,0.7233,0.6367,0.5867,0.5867,0.5919,0.6502,0.8078,0.8684,0.9347,1.0479,1.141,1.1977,1.2033,1.2789,1.3511,1.3958,1.5395,0.0,0.0,0.0,0.0,0.0,1.7806,1.7923,1.6315,1.5192,1.3586,1.1495,1.0361,0.9822,0.9822,0.9822,0.9822,0.9822,0.9822,0.9659,0.9381,0.0,0.0,0.0,0.8885,0.8885,0.8885,0.8885,0.8885,0.8885,0.8885,0.8885,0.8885,0.8885,0.8885,0.9418,1.2365,1.3652,1.4449,1.6993,1.7934,1.809,1.7689,1.7582,1.7582,1.7582,1.7582,1.7687,1.8094,1.9973,2.1794,2.2215,2.4097,2.5693,2.5693,2.5693,2.5693,2.5693,2.5693,2.5693,2.5693,2.5693,2.5693,2.5693,2.5693,2.5693,2.5693,2.5693,2.5693,2.5693,2.5693,2.5693,2.5693,2.5693,2.5693,2.5693,2.5693,2.5693,2.5693,2.5693,2.5693,2.5693,2.5693,2.5693,2.5693,2.5693,2.5693,1.6473,1.6978,1.7273,1.7515,1.6304,1.4439,1.2406,1.0563,0.8692,0.6478,0.5986,0.5993,0.5993,0.5993,0.6504,0.7959,0.8411,0.8732,0.9072,1.0596,1.1351,1.0342,1.1882,1.3143,1.3493,1.4188,0.0,0.0,0.0,0.0,0.0,1.6138,1.6315,1.4658,1.4599,1.3048,0.9883,0.9822,0.9822,0.9822,0.9822,0.9822,0.9822,0.9822,0.9659,0.0,0.0,0.0,0.0,0.8885,0.8885,0.8885,0.8885,0.8885,0.8885,0.8885,0.8885,0.8885,0.8885,0.8885,0.9182,1.0939,1.2488,1.3985,1.5482,1.7114,1.8357,1.7756,1.7582,1.7582,1.7582,1.7582,1.7937,1.9265,2.0692,2.2064,2.3384,2.4756,2.5693,2.5693,2.5693,2.5693,2.5693,2.5693,2.5693,2.5693,2.5693,2.5693,2.5693,2.5693,2.5693,2.5693,2.5693,2.5693,2.5693,2.5693,2.5693,2.5693,2.5693,2.5693,2.5693,2.5693,2.5693,2.5693,2.5693,2.5693,2.5693,2.5693,2.5693,2.5693,2.5693,2.5693,1.5378,1.5872,1.602,1.4987,1.3403,1.1754,1.0304,0.8624,0.7119,0.6194,0.6112,0.6159,0.6013,0.5993,0.6304,0.7288,0.7289,0.7352,0.787,0.8551,0.9003,0.8909,1.0046,1.1265,0.0,0.0,0.0,0.0,0.0,0.0,0.0,1.5537,1.6256,1.4658,1.3526,1.2449,1.1434,1.0361,0.9822,0.9822,0.9822,0.9822,0.9822,0.9822,0.0,0.0,0.0,0.0,0.0,0.8885,0.8885,0.8885,0.8885,0.8885,0.8885,0.8885,0.8885,0.8885,0.8885,0.8885,0.9182,1.0939,1.1819,1.2655,1.5142,1.6989,1.8103,1.7702,1.7582,1.7582,1.7582,1.7582,1.7937,1.9265,2.0692,2.2047,2.3434,2.4756,2.5693,2.5693,2.5693,2.5693,2.5693,2.5693,2.5693,2.5693,2.5693,2.5693,2.5693,2.5693,2.5693,2.5693,2.5693,2.5693,2.5693,2.5693,2.5693,2.5693,2.5693,2.5693,2.5693,2.5693,2.5693,2.5693,2.5693,2.5693,2.5693,2.5693,2.5693,2.5693,2.5693,2.5693,1.4629,1.5057,1.4996,1.3725,1.2357,1.0973,0.9447,0.8033,0.6871,0.6242,0.6231,0.6252,0.602,0.5993,0.6141,0.6606,0.6485,0.6532,0.719,0.7495,0.7841,0.8377,0.9103,0.0,0.0,0.0,0.0,0.0,0.0,0.0,0.0,1.3756,1.447,1.2808,1.3586,1.3696,1.3108,1.2097,1.1314,1.0717,1.0717,1.0422,0.9822,0.9822,0.0,0.0,0.0,0.0,0.0,0.8885,0.8885,0.8885,0.8885,0.8885,0.8885,0.8885,0.8885,0.8885,0.8885,0.8885,0.9064,1.0143,1.1279,1.2597,1.5006,1.6709,1.7836,1.7635,1.7582,1.7582,1.7582,1.7582,1.8094,1.9937,2.1033,2.2215,2.4048,2.5118,2.5693,2.5693,2.5693,2.5693,2.5693,2.5693,2.5693,2.5693,2.5693,2.5693,2.5693,2.5693,2.5693,2.5693,2.5693,2.5693,2.5693,2.5693,2.5693,2.5693,2.5693,2.5693,2.5693,2.5693,2.5693,2.5693,2.5693,2.5693,2.5693,2.5693,2.5693,2.5693,2.5693,2.5693,0.0,1.4346,1.4209,1.3387,1.2711,1.164,0.9508,0.8481,0.0,0.65,0.6286,0.6245,0.6071,0.5993,0.6,0.606,0.6054,0.6296,0.7038,0.736,0.7807,0.8682,0.9035,0.0,0.9401,0.0,0.0,0.0,0.0,0.0,0.0,1.1306,1.1487,0.9997,1.4411,1.6079,1.4421,1.454,1.3765,1.2217,1.2217,1.1374,0.9822,0.9822,0.0,0.0,0.0,0.0,0.0,0.8885,0.8885,0.8885,0.8885,0.8885,0.8885,0.8885,0.8885,0.8885,0.8885,0.8885,0.8885,0.8885,1.0891,1.3534,1.4824,1.634,1.7582,1.7582,1.7582,1.7582,1.7582,1.7582,1.8304,2.1033,2.1693,2.2416,2.5118,2.5693,2.5693,2.5693,2.5693,2.5693,2.5693,2.5693,2.5693,2.5693,2.5693,2.5693,2.5693,2.5693,2.5693,2.5693,2.5693,2.5693,2.5693,2.5693,2.5693,2.5693,2.5693,2.5693,2.5693,2.5693,2.5693,2.5693,2.5693,2.5693,2.5693,2.5693,2.5693,2.5693,2.5693,2.5693,1.2692,0.0,1.3172,1.1772,1.128,1.0634,0.0,0.7983,0.7526,0.6301,0.6084,0.6112,0.6193,0.601,0.6078,0.6728,0.6688,0.6803,0.755,0.818,0.8818,0.9483,0.9618,0.968,0.0,0.0,0.0,0.0,0.0,0.0,0.0,1.1248,1.1946,1.1615,1.3944,1.4361,1.2749,1.4004,1.3765,1.2217,1.2217,1.1374,0.9822,0.9822,0.0,0.0,0.0,0.0,0.8885,0.8885,0.8885,0.8885,0.8885,0.8885,0.8885,0.8885,0.8885,0.8885,0.8885,0.8885,0.8885,0.8885,1.0891,1.3372,1.3696,1.5583,1.7582,1.7582,1.7582,1.7582,1.7582,1.7582,1.8304,2.1033,2.1693,2.2416,2.5118,2.5693,2.5693,2.5693,2.5693,2.5693,2.5693,2.5693,2.5693,2.5693,2.5693,2.5693,2.5693,2.5693,2.5693,2.5693,2.5693,2.5693,2.5693,2.5693,2.5693,2.5693,2.5693,2.5693,2.5693,2.5693,2.5693,2.5693,2.5693,2.5693,2.5693,2.5693,2.5693,2.5693,2.5693,2.5693,1.1864,1.2331,1.2516,1.1285,1.135,1.1199,0.9135,0.8568,0.8172,0.7048,0.6473,0.6139,0.6152,0.6186,0.6329,0.6681,0.6892,0.7292,0.8106,0.8757,0.9313,0.9768,0.9822,0.9822,0.0,0.0,0.0,0.0,0.0,0.0,0.0,1.0472,1.0932,1.1025,1.2645,1.3467,1.3287,1.4896,1.4896,1.3287,1.3287,1.2457,1.0899,1.0119,0.9294,0.0,0.0,0.0,0.7875,0.7875,0.8269,0.8885,0.8885,0.8885,0.8885,0.8885,0.8885,0.8885,0.8885,0.8885,0.8885,0.8885,1.0891,1.3318,1.3318,1.5316,1.7582,1.7582,1.7582,1.774,1.8356,1.8042,1.8447,2.1811,2.2165,2.2416,2.5118,2.5693,2.5693,2.5693,2.5693,2.5693,2.5693,2.5693,2.5693,2.5693,2.5693,2.5693,2.5693,2.5693,2.5693,2.5693,2.5693,2.5693,2.5693,2.5693,2.5693,2.5693,2.5693,2.5693,2.5693,2.5693,2.5693,2.5693,2.5693,2.5693,2.5693,2.5693,2.5693,2.5693,2.5693,2.5693,1.1602,1.2064,1.2278,1.1511,1.2056,1.2299,1.0313,0.9586,0.9026,0.7973,0.6942,0.6213,0.6134,0.6596,0.6955,0.6874,0.7432,0.8166,0.903,0.9313,0.9517,0.9788,0.9822,0.0,0.0,0.0,0.0,0.0,0.0,0.0,0.0,0.9585,0.9585,0.9612,1.1056,1.2517,1.3825,1.5725,1.5843,1.4242,1.4242,1.3407,1.1796,1.0422,0.8821,0.0,0.0,0.0,0.6386,0.6371,0.726,0.8546,0.8546,0.8712,0.8885,0.8885,0.8885,0.8885,0.8885,0.8885,0.8885,0.8885,1.0891,1.3318,1.3318,1.5316,1.7582,1.7582,1.7582,1.7884,1.9265,1.8603,1.8603,2.2717,2.2667,2.2416,2.5118,2.5693,2.5693,2.5693,2.5693,2.5693,2.5693,2.5693,2.5693,2.5693,2.5693,2.5693,2.5693,2.5693,2.5693,2.5693,2.5693,2.5693,2.5693,2.5693,2.5693,2.5693,2.5693,2.5693,2.5693,2.5693,2.5693,2.5693,2.5693,2.5693,2.5693,2.5693,2.5693,2.5693,2.5693,2.5693,1.2599,1.2999,1.2854,1.2002,1.2297,1.2412,1.0976,0.9954,0.8977,0.779,0.6731,0.6175,0.666,0.7527,0.842,0.9312,0.9836,1.0412,1.099,1.0221,0.9639,0.9802,0.0,0.0,0.0,0.0,0.0,0.0,0.0,0.0,0.0,0.0,0.9476,0.9605,0.9981,1.0301,1.0543,1.3467,1.4183,1.2577,1.2577,1.1736,1.0179,0.9943,0.8817,0.0,0.0,0.6263,0.4839,0.483,0.5695,0.7038,0.7038,0.782,0.8885,0.8885,0.8885,0.8885,0.8885,0.8885,0.8885,0.8885,1.0891,1.3318,1.3318,1.5316,1.7582,1.7582,1.7582,1.7884,1.9265,1.8603,1.8603,2.2717,2.2667,2.2416,2.5118,2.5693,2.5693,2.5693,2.5693,2.5693,2.5693,2.5693,2.5693,2.5693,2.5693,2.5693,2.5693,2.5693,2.5693,2.5693,2.5693,2.5693,2.5693,2.5693,2.5693,2.5693,2.5693,2.5693,2.5693,2.5693,2.5693,2.5693,2.5693,2.5693,2.5693,2.5693,2.5693,2.5693,2.5693,2.5693,1.1784,1.2251,1.2505,1.2572,1.3387,1.405,1.3442,1.2356,1.1272,1.0453,0.8931,0.7826,0.7935,0.8821,1.0065,1.1916,1.0814,1.0186,1.16,1.0501,0.9659,0.0,0.0,0.0,0.0,0.0,0.0,0.0,0.0,0.0,0.0,0.0,0.9415,0.9483,0.97,0.9822,0.9822,1.1261,1.2097,1.2217,1.2217,1.1796,1.108,1.0179,0.84,0.5936,0.0,0.4879,0.3257,0.3263,0.4634,0.67,0.67,0.7593,0.8885,0.8885,0.8885,0.8885,0.8885,0.8885,0.9044,0.9809,1.1538,1.3426,1.418,1.5902,1.7582,1.7582,1.7582,1.7884,1.9265,1.9124,1.9524,2.2868,2.3235,2.3335,2.5284,2.5693,2.5693,2.5693,2.5693,2.5693,2.5693,2.5693,2.5693,2.5693,2.5693,2.5693,2.5693,2.5693,2.5693,2.5693,2.5693,2.5693,2.5693,2.5693,2.5693,2.5693,2.5693,2.5693,2.5693,2.5693,2.5693,2.5693,2.5693,2.5693,2.5693,2.5693,2.5693,2.5693,2.5693,2.5693,1.1356,1.1819,1.2355,1.336,1.4202,1.487,1.5217,1.4224,1.3129,1.2853,1.1301,0.9936,0.9723,1.0419,1.1714,1.3985,1.1677,1.0179,1.1812,1.0651,0.97,0.0,0.0,0.0,0.0,0.0,0.0,0.0,0.0,0.0,0.0,0.0,0.9381,0.9381,0.9666,0.964,0.9268,0.964,1.0422,1.1615,1.1615,1.1615,1.1615,1.0361,0.7988,0.4884,0.4909,0.3669,0.167,0.1692,0.3463,0.62,0.62,0.7315,0.8885,0.8491,0.8602,0.8885,0.8885,0.8885,0.9154,1.0617,1.2082,1.3534,1.4984,1.6446,1.7582,1.7582,1.7582,1.7884,1.9265,1.9369,1.9886,2.2985,2.3484,2.3683,2.5333,2.5693,2.5693,2.5693,2.5693,2.5693,2.5693,2.5693,2.5693,2.5693,2.5693,2.5693,2.5693,2.5693,2.5693,2.5693,2.5693,2.5693,2.5693,2.5693,2.5693,2.5693,2.5693,2.5693,2.5693,2.5693,2.5693,2.5693,2.5693,2.5693,2.5693,2.5693,2.5693,2.5693,2.5693,2.5693,1.2665,1.2866,1.3065,1.4526,1.3923,1.3333,1.4727,1.3793,1.2793,1.3237,1.2733,1.2115,1.2001,1.2423,1.3311,1.4869,1.3135,1.1719,1.2106,0.0,0.0,0.0,0.0,0.0,0.0,0.0,0.0,0.0,0.0,0.0,0.0,0.0,0.0,0.9381,0.9666,0.9079,0.7606,0.9079,0.9883,1.0004,1.0004,1.0004,0.9943,0.9883,0.8033,0.4899,0.4871,0.3108,0.0176,0.017,0.1958,0.4637,0.4637,0.6422,0.8719,0.7371,0.7709,0.8885,0.8885,0.8885,0.9154,1.0617,1.2082,1.3534,1.4984,1.6446,1.7582,1.7582,1.7582,1.7884,1.9265,1.8655,1.876,2.2767,2.2767,2.2567,2.5118,2.5693,2.5693,2.5693,2.5693,2.5693,2.5693,2.5693,2.5693,2.5693,2.5693,2.5693,2.5693,2.5693,2.5693,2.5693,2.5693,2.5693,2.5693,2.5693,2.5693,2.5693,2.5693,2.5693,2.5693,2.5693,2.5693,2.5693,2.5693,2.5693,2.5693,2.5693,2.5693,2.5693,2.5693,2.5693,1.1868,1.2412,1.3012,1.3908,1.3988,1.4242,1.5712,1.5765,1.5554,1.5942,1.5242,1.4265,1.318,1.2635,1.2881,1.4256,1.2276,1.1303,0.0,0.0,0.0,0.0,0.0,0.0,0.0,0.0,0.0,0.0,0.0,0.0,0.0,0.0,0.0,0.9381,0.8696,0.8033,0.7423,0.6996,0.7301,0.8343,0.9329,0.9822,0.9822,0.9822,0.8,0.4902,0.4913,0.3034,0.0058,0.1018,0.2014,0.3185,0.4136,0.5755,0.7482,0.6922,0.7654,0.8885,0.8885,0.9478,1.0507,1.1973,1.3426,1.4877,1.634,1.7147,1.7582,1.7582,1.7582,1.774,1.8199,1.8603,1.9472,2.1862,2.2717,2.3434,2.5284,2.5693,2.5693,2.5693,2.5693,2.5693,2.5693,2.5693,2.5693,2.5693,2.5693,2.5693,2.5693,2.5693,2.5693,2.5693,2.5693,2.5693,2.5693,2.5693,2.5693,2.5693,2.5693,2.5693,2.5693,2.5693,2.5693,2.5693,2.5693,2.5693,2.5693,2.5693,2.611,2.6839,2.6062,2.611,1.1931,1.2425,1.3119,1.3868,1.4295,1.4923,1.6486,1.6927,1.7219,1.7756,1.7053,1.6057,1.507,1.3854,1.3203,1.3865,1.2022,0.0,0.0,0.0,0.0,0.0,0.0,0.0,0.0,0.0,0.0,0.0,0.0,0.0,0.0,0.0,0.0,0.0,0.809,0.7113,0.6625,0.5468,0.5223,0.5892,0.7484,0.8532,0.9019,0.9019,0.7241,0.4142,0.4133,0.2851,0.0746,0.1802,0.2738,0.3742,0.4804,0.6089,0.7315,0.6866,0.7654,0.8885,0.8885,0.9864,1.1319,1.2832,1.4234,1.5689,1.7147,1.7582,1.7582,1.7582,1.7582,1.7582,1.7582,1.8304,1.942,2.1237,2.2416,2.3434,2.4756,2.5382,2.5693,2.5693,2.5693,2.5693,2.5693,2.5693,2.5693,2.5693,2.5693,2.5693,2.5693,2.5693,2.5693,2.5693,2.5693,2.5693,2.5693,2.5693,2.5693,2.5693,2.5693,2.5868,2.6284,2.5917,2.5868,2.6284,2.5917,2.5693,2.5693,2.5693,2.6332,2.7579,2.6716,2.6982,1.32,1.3213,1.3494,1.4713,1.475,1.5003,1.6804,1.6927,1.7061,1.825,1.7849,1.7407,1.7889,1.6497,1.4896,1.3851,1.2845,0.0,0.0,0.0,0.0,0.0,0.0,0.0,0.0,0.0,0.0,0.0,0.0,0.0,0.0,0.0,0.0,0.0,0.809,0.6564,0.4916,0.4855,0.4057,0.2524,0.4119,0.5774,0.7357,0.7357,0.56,0.2523,0.2542,0.2386,0.2174,0.2195,0.3965,0.67,0.67,0.7593,0.8712,0.726,0.7654,0.8885,0.8885,0.9864,1.1374,1.2832,1.4234,1.5689,1.7147,1.7582,1.7582,1.7582,1.7582,1.7582,1.7635,1.7635,1.829,2.1033,2.1693,2.2114,2.3434,2.4756,2.5693,2.5693,2.5693,2.5693,2.5693,2.5693,2.5693,2.5693,2.5693,2.5693,2.5693,2.5693,2.5693,2.5693,2.5693,2.5693,2.5693,2.5693,2.5693,2.5693,2.5693,2.6284,2.7552,2.638,2.6284,2.76,2.6332,2.5693,2.5693,2.5693,2.638,2.7647,2.7647,2.8262,1.2011,1.2866,1.3908,1.4255,1.5524,1.686,1.7595,1.7689,1.7903,1.8905,1.8948,1.8401,1.7141,1.6666,0.0,1.4236,0.0,0.0,0.0,0.0,0.0,0.0,0.0,0.0,0.0,0.0,0.0,0.0,0.0,0.0,0.0,0.0,0.0,0.0,0.695,0.5406,0.4916,0.2585,0.1787,0.2524,0.2954,0.4057,0.5651,0.5651,0.4482,0.2542,0.3587,0.3349,0.2307,0.336,0.4972,0.6589,0.5584,0.6033,0.7315,0.6871,0.7654,0.8885,0.8885,1.0562,1.2724,1.3156,1.4931,1.7041,1.7477,1.7582,1.7582,1.7582,1.7582,1.7845,1.876,1.902,1.9472,2.1288,2.2416,2.3484,2.4824,2.543,2.5693,2.5693,2.5693,2.5693,2.5693,2.5693,2.5693,2.5693,2.5693,2.5693,2.5693,2.5693,2.5693,2.5693,2.5693,2.5693,2.5693,2.5693,2.5693,2.5693,2.6524,2.722,2.7579,2.722,2.722,2.76,2.722,2.662,2.5693,2.662,2.7673,2.8866,2.8866,2.9487,1.3093,1.4041,1.507,1.5538,1.654,1.7661,1.8384,1.8557,1.8704,1.9252,1.9185,1.8704,1.7666,1.7509,0.0,0.0,0.0,0.0,0.0,0.0,0.0,0.0,0.0,0.0,0.0,0.0,0.0,0.0,0.0,0.0,0.0,0.0,0.0,0.0,0.6487,0.4916,0.4916,0.1663,0.0494,0.1479,0.1479,0.2033,0.2954,0.3628,0.3024,0.1645,0.3706,0.4382,0.4132,0.5639,0.6755,0.7482,0.6589,0.6811,0.7593,0.7593,0.8152,0.8885,0.8885,1.0836,1.3318,1.3318,1.5263,1.7582,1.7582,1.7582,1.7582,1.7582,1.7989,1.8551,1.9369,2.0385,2.1304,2.1592,2.2717,2.3949,2.4707,2.5333,2.5693,2.5693,2.5693,2.5693,2.5693,2.5693,2.5693,2.5693,2.5693,2.5693,2.5693,2.5693,2.5693,2.5693,2.5693,2.5693,2.5693,2.6159,2.6255,2.5742,2.7363,2.8308,2.8308,2.8308,2.8541,2.905,2.8541,2.772,2.6476,2.772,2.868,2.9396,2.9897,3.0777,1.5271,1.5885,1.6513,1.7675,1.7662,1.7755,1.9109,1.943,1.943,1.943,1.8918,1.8611,1.8878,1.8691,0.0,0.0,0.0,0.0,0.0,0.0,0.0,0.0,0.0,0.0,0.0,0.0,0.0,0.0,0.0,0.0,0.0,0.0,0.0,0.0,0.6696,0.5039,0.4916,0.1787,0.0123,0.0,0.0,0.0,0.0062,0.16,0.1572,0.0586,0.3457,0.5532,0.6982,0.8325,0.8885,0.8885,0.8885,0.8885,0.8885,0.8885,0.8885,0.8885,0.8885,1.0836,1.3318,1.3318,1.5263,1.7582,1.7582,1.7582,1.7582,1.7582,1.8551,1.9576,1.9576,2.1659,2.3384,2.2165,2.2918,2.3899,2.3899,2.4824,2.5693,2.5693,2.5693,2.5693,2.5693,2.5693,2.5693,2.5693,2.5693,2.5693,2.5693,2.5693,2.5693,2.5693,2.5693,2.5693,2.5693,2.6839,2.7125,2.5965,2.8075,2.9442,2.9533,2.9533,3.0079,3.1178,3.0124,2.8912,2.76,2.8912,2.9487,2.9442,3.0777,3.1996,1.3454,1.4643,1.6152,1.7101,1.8184,1.9028,1.935,1.943,1.943,1.943,1.9078,1.8851,1.8918,0.0,0.0,0.0,0.0,0.0,0.0,0.0,0.0,0.0,0.0,0.0,0.0,0.0,0.0,0.0,0.0,0.0,0.0,0.0,0.0,0.0,0.0,0.6259,0.4916,0.2954,0.1295,0.0,0.0,0.0,0.0,0.0366,0.1606,0.3621,0.5462,0.7038,0.8436,0.8768,0.8885,0.8885,0.8885,0.8885,0.8885,0.8885,0.8885,0.8885,0.8885,1.0836,1.3318,1.3318,1.5263,1.7582,1.7582,1.7582,1.7582,1.7582,1.8551,1.9576,1.9576,2.1659,2.3633,2.3335,2.4295,2.5284,2.5284,2.5479,2.5693,2.5693,2.5693,2.5693,2.5693,2.5693,2.5693,2.5693,2.5693,2.5693,2.5693,2.5693,2.5693,2.5693,2.5693,2.5693,2.5693,2.6839,2.7505,2.722,2.8588,2.9806,3.0777,3.0822,3.0956,3.1178,3.0956,2.9761,2.76,2.9761,3.0305,2.9442,3.1645,3.2853,1.3921,1.511,1.6326,1.7502,1.864,1.943,1.943,1.943,1.9332,1.9185,1.9025,1.8838,0.0,0.0,0.0,0.0,0.0,0.0,0.0,0.0,0.0,0.0,0.0,0.0,0.0,0.0,0.0,0.0,0.0,0.0,0.0,0.0,0.0,0.0,0.8153,0.6569,0.4916,0.4057,0.2401,0.0,0.0802,0.0795,0.0,0.0718,0.2288,0.4572,0.6074,0.7537,0.8885,0.8885,0.8885,0.8885,0.8885,0.8885,0.8885,0.8885,0.8885,0.8885,0.8885,1.0836,1.3318,1.3318,1.5263,1.7582,1.7582,1.7582,1.7582,1.7582,1.9057,2.0436,1.9782,2.2114,2.451,2.385,2.4926,2.6055,2.6055,2.6055,2.6055,2.6055,2.583,2.5693,2.5693,2.5693,2.5693,2.5693,2.5693,2.5693,2.5693,2.5693,2.5693,2.5693,2.5693,2.5693,2.5693,2.7389,2.7955,2.6764,2.8936,3.0033,2.9487,3.0574,3.1488,3.2108,3.2108,3.1178,2.9304,3.1178,3.1468,3.0305,3.2196,3.3111,1.4549,1.5698,1.6633,1.8116,1.8931,1.943,1.943,1.943,1.9279,1.8985,1.8878,0.0,0.0,0.0,0.0,0.0,0.0,0.0,0.0,0.0,0.0,0.0,0.0,0.0,0.0,0.0,0.0,0.0,0.0,0.0,0.0,0.0,0.9517,0.9741,0.8502,0.6987,0.5323,0.5338,0.3812,0.0863,0.1971,0.1758,0.0412,0.1645,0.3021,0.4555,0.6065,0.7537,0.8885,0.8885,0.8885,0.8885,0.8885,0.8885,0.8885,0.8885,0.8885,0.8885,0.8885,1.0836,1.3318,1.3318,1.5263,1.7582,1.7582,1.7582,1.7582,1.7582,1.9561,2.1389,1.9989,2.2634,2.5382,2.3998,2.5133,2.6484,2.6406,2.6387,2.6387,2.6387,2.6035,2.5693,2.5693,2.5693,2.5693,2.5693,2.5693,2.5693,2.5693,2.5693,2.5693,2.5693,2.5693,2.5693,2.5693,2.7981,2.8448,2.6159,2.9074,2.9988,2.8002,2.9806,3.1488,3.2742,3.2982,3.2481,3.1223,3.2481,3.2438,3.1223,3.2525,3.3111,1.2342,1.4338,1.6633,1.8116,1.8931,1.943,1.943,1.943,1.9279,0.0,0.0,0.0,0.0,0.0,0.0,0.0,0.0,0.0,0.0,0.0,0.0,0.0,0.0,0.0,0.0,0.0,0.0,0.0,0.0,0.0,0.0,0.9435,0.9537,0.9442,0.9447,0.86,0.6806,0.6948,0.6137,0.4242,0.3077,0.2302,0.1939,0.2115,0.3061,0.4596,0.6038,0.7537,0.8885,0.8885,0.8885,0.8885,0.8885,0.8885,0.8885,0.8885,0.8885,0.8885,0.8885,1.0836,1.3318,1.3318,1.5263,1.7582,1.7582,1.7582,1.7582,1.7582,1.9561,2.1389,1.9989,2.2634,2.5382,2.3998,2.5359,2.6836,2.6465,2.6387,2.6387,2.6387,2.6035,2.5693,2.5693,2.5693,2.5693,2.5693,2.5693,2.5693,2.5693,2.5693,2.5693,2.5693,2.5693,2.5693,2.5693,2.7981,2.8819,2.7458,2.8773,2.9487,2.9166,2.9442,3.0214,3.1444,3.2568,3.2481,3.1223,3.2481,3.2438,3.1223,3.2525,3.3111,1.2665,1.4656,1.6633,1.8116,1.8811,1.9158,1.939,1.943,1.9239,1.8771,0.0,0.0,0.0,0.0,0.0,0.0,0.0,0.0,0.0,0.0,0.0,0.0,0.0,0.0,0.0,0.0,0.0,0.0,0.0,0.0,0.9401,0.9456,0.949,0.951,0.9551,0.8763,0.6985,0.7988,0.7687,0.6125,0.4488,0.324,0.2407,0.3139,0.4284,0.575,0.6422,0.7537,0.8892,0.9028,0.9015,0.8892,0.9028,0.9008,0.8885,0.8885,0.8885,0.8885,0.8885,1.0296,1.2191,1.3048,1.4663,1.6499,1.7371,1.7582,1.774,1.8499,1.971,2.0633,1.9828,2.1603,2.3518,2.2769,2.4296,2.6045,2.6625,2.6738,2.6602,2.6113,2.6074,2.6035,2.5732,2.5937,2.6016,2.5732,2.5693,2.5596,2.5391,2.5371,2.5371,2.5371,2.5371,2.5469,2.5674,2.7342,2.819,2.7626,2.8727,2.9096,2.8402,2.967,3.035,3.0169,3.2108,3.2828,3.2283,3.2853,3.281,3.2283,3.2853,3.3111,1.2799,1.4376,1.5698,1.7475,1.8263,1.8704,1.9145,1.9319,1.9239,0.0,0.0,0.0,0.0,0.0,0.0,0.0,0.0,0.0,0.0,0.0,0.0,0.0,0.0,0.0,0.0,0.0,0.0,0.0,0.0,0.0,0.9483,0.9422,0.9415,0.949,0.9422,0.8775,0.7511,0.8807,0.866,0.708,0.5485,0.4363,0.3635,0.3821,0.5123,0.726,0.6871,0.7554,0.9001,0.9166,0.9089,0.9001,0.9166,0.9062,0.8885,0.8885,0.8885,0.8885,0.8885,0.9864,1.1265,1.2398,1.3965,1.5636,1.6711,1.7305,1.7806,1.8912,1.9626,1.9985,1.9468,2.0684,2.2067,2.1973,2.3496,2.5341,2.6686,2.7012,2.6758,2.5849,2.6094,2.625,2.5771,2.6094,2.625,2.5752,2.5596,2.5449,2.5165,2.5106,2.5067,2.4922,2.5047,2.5195,2.5527,2.7008,2.7738,2.7411,2.8938,2.9259,2.7925,3.001,3.0777,2.9852,3.1977,3.3111,3.3111,3.3111,3.3111,3.3111,3.3111,3.3111,1.1524,1.2238,1.3133,1.5738,1.7021,1.7876,1.8744,0.0,1.9417,0.0,0.0,0.0,0.0,0.0,0.0,0.0,0.0,0.0,0.0,0.0,0.0,0.0,0.0,0.0,0.0,0.0,0.0,0.0,0.0,0.0,0.9234,0.9306,0.932,0.9234,0.9306,0.9313,0.9107,0.939,0.876,0.708,0.5604,0.5497,0.656,0.3632,0.466,0.8712,0.7315,0.7662,0.92,0.9207,0.9207,0.92,0.9207,0.9062,0.8885,0.8885,0.8885,0.8885,0.8885,0.9864,1.1109,1.1219,1.3102,1.5423,1.5476,1.6499,1.7649,1.7996,1.907,1.9876,1.8851,2.0306,2.2199,2.2564,2.3826,2.5341,2.6686,2.7012,2.6758,2.5849,2.6094,2.625,2.5771,2.6094,2.625,2.5752,2.5371,2.5145,2.5125,2.5106,2.4902,2.4492,2.4824,2.5125,2.5145,2.7366,2.8184,2.6815,2.9489,3.032,2.8634,3.0229,3.1178,3.1134,3.2438,3.3111,3.3111,3.3111,3.3111,3.3111,3.3111,3.3111,1.1263,1.1931,1.2759,1.4669,1.5952,1.6967,1.7862,1.8597,1.9078,0.0,0.0,0.0,0.0,0.0,0.0,0.0,0.0,0.0,0.0,0.0,0.0,0.0,0.0,0.0,0.0,0.0,0.0,0.0,0.0,0.0,0.935,0.9316,0.9268,0.9214,0.9262,0.9309,0.9357,0.8347,0.8142,0.8706,0.706,0.6584,0.7026,0.6782,0.7012,0.7543,0.8071,0.8646,0.9214,0.9316,0.9296,0.9221,0.9316,0.915,0.8885,0.8885,0.8885,0.8885,0.8885,0.9265,0.9864,1.0781,1.2548,1.4516,1.5441,1.6901,1.8401,1.9354,1.9469,1.9389,1.9676,1.9883,2.0574,2.263,2.4224,2.5674,2.711,2.7441,2.7266,2.668,2.6914,2.6992,2.6269,2.6289,2.6133,2.541,2.4941,2.4648,2.4648,2.4648,2.4687,2.4824,2.4727,2.4766,2.5086,2.6609,2.7558,2.7456,2.9498,3.041,2.9785,3.1105,3.1631,3.1223,3.2457,3.3111,3.3111,3.3111,3.3111,3.3111,3.3111,3.3111,1.0675,1.1196,1.1944,1.3534,1.4291,1.5198,1.7143,1.7309,1.7328,0.0,0.0,0.0,0.0,0.0,0.0,0.0,0.0,0.0,0.0,0.0,0.0,0.0,0.0,0.0,0.0,0.0,0.0,0.0,0.0,0.0,0.9282,0.9137,0.9083,0.9083,0.9187,0.9262,0.9306,0.7752,0.76,0.8766,0.712,0.6598,0.7141,0.8014,0.8118,0.7606,0.8708,0.9241,0.9296,0.9395,0.9367,0.9239,0.8813,0.8736,0.883,0.8325,0.8491,0.8885,0.8885,0.8885,0.9058,1.0145,1.1935,1.3885,1.4911,1.6747,1.8725,1.9679,1.9473,1.9061,1.9947,1.9963,2.0414,2.2834,2.4518,2.6042,2.7588,2.7826,2.7539,2.709,2.7246,2.7226,2.6504,2.6387,2.6133,2.541,2.4922,2.4629,2.4629,2.4629,2.4687,2.4824,2.4727,2.4687,2.4844,2.6526,2.7541,2.7629,2.9734,3.0925,3.0755,3.167,3.2084,3.1865,3.2655,3.3111,3.3111,3.3111,3.3111,3.3111,3.3111,3.3111,0.0,0.0,0.0,1.2261,1.2094,1.2503,1.65,0.0,1.4083,0.0,0.0,0.0,0.0,0.0,0.0,0.0,0.0,0.0,0.0,0.0,0.0,0.0,0.0,0.0,0.0,0.0,0.0,0.0,0.0,1.0515,0.9044,0.894,0.8885,0.8892,0.9083,0.9214,0.9221,0.7738,0.708,0.7085,0.5612,0.5669,0.7075,0.6965,0.7726,0.9101,0.9107,0.9131,0.9278,0.9426,0.9465,0.9155,0.7624,0.7766,0.8615,0.7215,0.7604,0.8843,0.8898,0.8898,0.8974,0.9173,1.122,1.376,1.3871,1.6053,1.8571,1.8865,1.8931,1.8998,1.9292,2.0486,2.1835,2.3064,2.4726,2.6445,2.7906,2.7969,2.7559,2.7129,2.7051,2.6894,2.6484,2.6387,2.623,2.5732,2.5332,2.5106,2.5106,2.5106,2.4902,2.4492,2.4844,2.4922,2.4473,2.7112,2.8319,2.7182,3.029,3.1964,3.1436,3.1913,3.2466,3.3111,3.3111,3.3111,3.3111,3.3111,3.3111,3.3111,3.3111,3.3111,0.974,0.0,0.0,0.0,0.0,0.0,0.0,0.0,0.0,0.0,0.0,0.0,0.0,0.0,0.0,0.0,0.0,0.0,0.0,0.0,0.0,0.0,0.0,0.0,0.0,0.0,0.0,0.0,1.3295,1.2028,1.0562,0.9478,0.8988,0.9089,0.9187,0.9316,0.9483,0.6753,0.6034,0.7317,0.5701,0.5669,0.708,0.705,0.721,0.7453,0.6422,0.5937,0.6081,0.7308,0.7779,0.7574,0.5962,0.5534,0.5784,0.6589,0.7112,0.7634,0.8851,0.9259,0.9266,0.9306,1.1561,1.4208,1.4269,1.6552,1.9145,1.9225,1.9239,1.9265,1.9403,1.9707,2.0343,2.1748,2.331,2.482,2.6391,2.7469,2.8086,2.7969,2.7695,2.7344,2.6914,2.6328,2.5762,2.5312,2.4883,2.4707,2.5067,2.5106,2.5137,2.5304,2.5488,2.5371,2.4922,2.7558,2.8791,2.7739,3.0145,3.1738,3.1964,3.1763,3.2089,3.3068,3.3111,3.3111,3.3111,3.3111,3.3111,3.3111,3.3111,3.3111,1.0157,1.0087,1.01,0.9963,0.0,0.0,1.1366,1.0721,0.0,0.0,0.0,0.0,0.0,0.0,0.0,0.0,0.0,0.0,0.0,0.0,0.0,0.0,0.0,0.0,0.0,0.0,0.0,0.0,1.375,1.2408,1.0296,0.9375,0.8974,0.9062,0.9184,0.9038,0.8496,0.6022,0.4993,0.5341,0.5039,0.5014,0.5211,0.6501,0.6684,0.592,0.5081,0.4684,0.4744,0.5019,0.5553,0.5941,0.4384,0.4103,0.463,0.5622,0.6385,0.7148,0.8794,0.9381,0.9395,0.9456,1.1269,1.3519,1.4259,1.633,1.8532,1.9185,1.943,1.943,1.943,1.943,1.9751,2.1259,2.2251,2.3487,2.5645,2.6771,2.7565,2.8174,2.7812,2.7305,2.7051,2.6259,2.5596,2.5391,2.5137,2.5059,2.5312,2.5352,2.5527,2.5957,2.6016,2.582,2.5391,2.8002,2.9149,2.7963,3.029,3.1863,3.219,3.1913,3.2164,3.3068,3.3111,3.3111,3.3111,3.3111,3.3111,3.3111,3.3111,3.3194,1.0651,1.0372,1.0199,1.0709,0.9119,0.0,1.1408,0.9551,0.7891,0.0,0.0,0.0,0.0,0.0,0.0,0.0,0.0,0.0,0.0,0.0,0.0,0.0,0.0,0.0,0.0,0.0,1.6446,1.375,1.3264,1.1864,0.9044,0.8885,0.883,0.8657,0.894,0.8323,0.6677,0.5324,0.3935,0.2524,0.3935,0.3873,0.2585,0.5331,0.5838,0.4454,0.4274,0.4153,0.4099,0.2754,0.3112,0.4334,0.2833,0.2928,0.4006,0.4362,0.542,0.6891,0.8598,0.9312,0.9456,0.9591,1.0858,1.2578,1.4124,1.5843,1.756,1.901,1.943,1.943,1.943,1.943,1.9751,2.1031,2.1472,2.2307,2.5041,2.5882,2.6481,2.778,2.7493,2.7012,2.7012,2.6259,2.5693,2.5693,2.5693,2.5693,2.5693,2.5732,2.5957,2.6348,2.6484,2.6397,2.6094,2.8604,2.9641,2.8429,3.0834,3.2315,3.2315,3.224,3.2491,3.3111,3.3111,3.3111,3.3111,3.3111,3.3111,3.3111,3.3111,3.3345,1.0662,1.0359,0.9798,0.9927,0.8974,0.0,0.8047,0.6763,0.5851,0.0,0.0,0.0,0.0,0.0,0.0,0.0,0.0,0.0,0.0,0.0,0.0,0.0,0.0,0.0,0.0,0.0,1.6882,1.5091,1.2832,1.0781,0.8989,0.8885,0.838,0.7149,0.732,0.6677,0.5155,0.3693,0.2831,0.2524,0.2831,0.2831,0.2524,0.3128,0.3246,0.2879,0.1534,0.0921,0.0921,0.0616,0.1477,0.2756,0.1104,0.0674,0.1039,0.244,0.396,0.554,0.7236,0.8636,0.9741,0.9768,1.1747,1.4193,1.4529,1.6621,1.901,1.9301,1.943,1.943,1.943,1.943,1.9475,1.9764,2.0759,2.1756,2.2363,2.4378,2.6209,2.6481,2.6774,2.7012,2.7012,2.6259,2.5693,2.5693,2.5693,2.5693,2.5693,2.6055,2.6289,2.6387,2.7012,2.7688,2.8289,3.0106,3.1235,3.1266,3.2307,3.2893,3.2893,3.2466,3.2491,3.3111,3.3111,3.3111,3.3111,3.3111,3.3111,3.3111,3.3111,3.3187,1.0726,1.0456,1.009,1.0789,0.9644,0.0,0.0,0.6968,0.5989,0.0,0.0,0.0,0.0,0.0,0.0,0.0,0.0,0.0,0.0,0.0,0.0,0.0,0.0,0.0,0.0,0.0,1.5583,1.3426,1.121,0.9699,0.894,0.8208,0.7454,0.672,0.6134,0.5061,0.3443,0.2798,0.2094,0.1233,0.2094,0.2033,0.1295,0.2094,0.2033,0.1233,0.037,0.0,0.0,0.0,0.0494,0.1171,0.0308,0.0,0.0308,0.277,0.418,0.5284,0.7728,0.914,0.9822,0.9822,1.1434,1.3526,1.4361,1.6856,1.943,1.943,1.943,1.943,1.943,1.943,1.943,1.943,1.9982,2.0702,2.1415,2.2814,2.4322,2.5827,2.6164,2.6399,2.6897,2.6259,2.5693,2.5693,2.5918,2.6055,2.6055,2.6426,2.6777,2.7012,2.7454,2.787,2.8279,3.0292,3.1382,3.1043,3.2601,3.337,3.3136,3.2792,3.2792,3.3111,3.3111,3.3111,3.3111,3.3111,3.3111,3.3111,3.3111,3.337,1.0562,1.0483,1.0484,1.17,1.0503,0.916,0.0,0.0,0.0,0.0,0.0,0.0,0.0,0.0,0.0,0.0,0.0,0.0,0.0,0.0,0.0,0.0,0.0,0.0,0.0,0.0,1.3404,1.1256,0.9576,0.8703,0.8871,0.7482,0.6578,0.6284,0.4937,0.3428,0.1805,0.1955,0.1356,0.0,0.1356,0.1295,0.0062,0.1418,0.1295,0.0,0.0,0.0,0.0,0.0,0.0,0.0,0.0,0.0,0.0308,0.2954,0.4364,0.5284,0.7917,0.9268,0.9822,0.9822,1.108,1.2928,1.4599,1.7103,1.943,1.943,1.943,1.943,1.943,1.943,1.943,1.943,1.943,1.9707,2.0916,2.1415,2.242,2.5151,2.5505,2.5748,2.6814,2.6367,2.581,2.581,2.6172,2.6426,2.6504,2.6875,2.7285,2.7689,2.7787,2.8035,2.8537,3.045,3.1469,3.0948,3.288,3.3771,3.3136,3.3111,3.3111,3.3111,3.3111,3.3111,3.3111,3.3111,3.3111,3.3111,3.3111,3.3621,0.9644,1.0202,1.0575,1.0751,1.1163,1.1201,1.0102,0.0,0.7082,0.6636,0.0,0.0,0.0,0.0,0.0,0.0,0.0,0.0,0.0,0.0,0.0,0.0,0.0,0.0,0.0,0.0,0.0,1.1088,0.8996,0.8099,0.8844,0.7482,0.6074,0.48,0.3258,0.1777,0.0241,0.0245,0.0185,0.0,0.0185,0.0185,0.0,0.0185,0.0185,0.0,0.0,0.0,0.0,0.0,0.0,0.0,0.0,0.0,0.0062,0.0432,0.2401,0.4977,0.5345,0.7368,0.9822,0.9822,1.1856,1.4658,1.6256,1.7981,1.943,1.943,1.943,1.943,1.943,1.943,1.943,1.943,1.943,1.943,1.9591,2.0702,2.2096,2.3766,2.4783,2.5748,2.6814,2.6621,2.6309,2.6309,2.6367,2.6523,2.6894,2.7324,2.7669,2.7708,2.7988,2.9189,3.1607,3.204,3.2773,3.4061,3.4445,3.4173,3.3162,3.3111,3.3111,3.3111,3.3111,3.3111,3.3111,3.3111,3.3111,3.3111,3.3111,3.3395,0.9043,0.9489,0.9979,1.1068,1.0969,1.0478,0.9827,0.8317,0.6864,0.0,0.0,0.0,0.0,0.0,0.0,0.0,0.0,0.0,0.0,0.0,0.0,0.0,0.0,0.0,0.0,0.0,0.0,0.0,0.0,0.7991,0.8838,0.67,0.5145,0.4521,0.2166,0.0655,0.0,0.0,0.0,0.0,0.0,0.0,0.0,0.0,0.0,0.0,0.0,0.0,0.0,0.0,0.0,0.0,0.0,0.0,0.0123,0.111,0.2339,0.3751,0.5708,0.724,0.8708,1.0589,1.2757,1.4896,1.6492,1.811,1.943,1.943,1.943,1.943,1.943,1.943,1.943,1.943,1.943,1.943,1.943,1.9866,2.1031,2.3375,2.4132,2.5127,2.7078,2.7031,2.6758,2.6758,2.6973,2.7187,2.7363,2.7773,2.8027,2.8027,2.8184,2.9059,3.0979,3.1825,3.2784,3.3928,3.4421,3.4374,3.3596,3.3545,3.3395,3.3136,3.3111,3.3111,3.3111,3.3111,3.3111,3.3111,3.3111,3.337,0.8482,0.8917,0.9609,1.0813,1.0621,1.0039,0.0,0.0,0.7667,0.0,0.0,0.0,0.0,0.0,0.0,0.0,0.0,0.0,0.0,0.0,0.0,0.0,0.0,0.0,0.0,0.0,0.0,0.0,0.0,0.0,0.8824,0.6089,0.4482,0.4509,0.1586,0.0,0.0,0.0,0.0,0.0,0.0,0.0,0.0,0.0,0.0,0.0,0.0,0.0,0.0,0.0,0.0,0.0,0.0,0.0,0.0123,0.1356,0.2094,0.2893,0.5708,0.7301,0.8459,1.077,1.2928,1.4837,1.5961,1.7747,1.943,1.943,1.943,1.943,1.943,1.943,1.943,1.943,1.943,1.943,1.943,1.943,2.0256,2.3207,2.3822,2.4679,2.7396,2.748,2.7187,2.7187,2.7461,2.7767,2.7832,2.8105,2.8301,2.8301,2.8301,2.9006,3.0721,3.1724,3.2826,3.3958,3.4453,3.455,3.4148,3.4123,3.3872,3.3319,3.3294,3.3262,3.3111,3.3111,3.3111,3.3111,3.3111,3.337,0.0,0.0,0.0,0.93,0.0,0.0,0.0,0.0,1.0218,0.0,0.0,0.0,0.0,0.0,0.0,0.0,0.0,0.0,0.0,0.0,0.0,0.0,0.0,0.0,0.0,0.0,0.0,0.0,0.0,0.0,0.879,0.6089,0.4482,0.4509,0.1586,0.0,0.0,0.0,0.0,0.0,0.0,0.0,0.0,0.0,0.0,0.0,0.0,0.0,0.0,0.0,0.0,0.0,0.0,0.0,0.0,0.0062,0.111,0.2708,0.4426,0.7057,0.9761,0.9822,1.2037,1.4599,1.4658,1.6868,1.943,1.943,1.943,1.943,1.943,1.943,1.943,1.943,1.943,1.943,1.943,1.943,2.0256,2.3207,2.3822,2.4765,2.7761,2.793,2.7689,2.7689,2.7708,2.7812,2.8223,2.8281,2.8301,2.8301,2.8301,2.9355,3.2028,3.228,3.3172,3.5276,3.4981,3.468,3.47,3.4655,3.4424,3.3872,3.3872,3.3621,3.3111,3.3111,3.3111,3.3111,3.3111,3.337,0.0,0.0,1.0784,1.0102,0.0,0.0,0.0,0.0,0.0,0.0,0.0,0.0,0.0,0.0,0.0,0.0,0.0,0.0,0.0,0.0,0.0,0.0,0.0,0.0,0.0,0.0,0.0,0.0,0.0,0.0,0.0,0.6089,0.4482,0.4509,0.1586,0.0,0.0,0.0,0.0,0.0,0.0,0.0,0.0,0.0,0.0,0.0062,0.1171,0.1663,0.1663,0.1663,0.1663,0.154,0.0432,0.0,0.0,0.0,0.037,0.1233,0.3935,0.7057,0.9822,0.9822,1.1976,1.4599,1.4599,1.6856,1.943,1.943,1.943,1.943,1.943,1.943,1.943,1.943,1.943,1.943,1.943,1.943,2.0256,2.3207,2.3822,2.4765,2.778,2.8184,2.8086,2.8086,2.8086,2.8125,2.8281,2.8301,2.8301,2.8301,2.8301,2.9059,3.0824,3.2655,3.4388,3.5987,3.5906,3.5655,3.5232,3.5232,3.4781,3.3922,3.3897,3.3621,3.3111,3.3111,3.3111,3.3111,3.3111,3.3212,0.9387,1.0466,0.0,1.1613,1.2347,0.0,1.1215,0.0,1.044,0.0,0.0,0.0,0.0,0.0,0.0,0.0,0.0,0.0,0.0,0.0,0.0,0.0,0.0,0.0,0.0,0.0,0.0,0.0,0.0,0.0,0.0,0.0,0.4807,0.3717,0.1816,0.0536,0.0,0.0,0.0,0.0,0.0,0.0,0.0,0.0617,0.0863,0.0986,0.2647,0.3384,0.3384,0.3384,0.3016,0.2401,0.1295,0.0555,0.0,0.0,0.074,0.2033,0.418,0.7057,0.9822,0.9822,1.1976,1.4599,1.4599,1.6856,1.943,1.943,1.943,1.943,1.943,1.943,1.943,1.943,1.943,1.943,1.943,1.943,2.0097,2.2533,2.3431,2.4599,2.7114,2.796,2.8301,2.8301,2.8301,2.8301,2.8301,2.8301,2.8301,2.8301,2.8301,2.8847,3.0172,3.2805,3.4775,3.5619,3.6168,3.6207,3.5855,3.5338,3.4941,3.4455,3.3801,3.3454,3.337,3.3169,3.3111,3.3111,3.3111,3.3111]}]]